[[{"header":{"parameterUnit":"m.s-1","parameterCategory":1,"la1":30.6,"la2":28.766,"lo1":-90.7593,"lo2":-88.6598,"dy":0.0162,"dx":0.0183,"nx":116,"ny":114,"refTime":"2023-09-01T06:00:00:Z","depth":0,"parameterNumber":2,"parameterNumberName":"U-component_of_WINDS"},"data":[0.0,0.0,0.0,0.0,0.0,0.0,0.0,0.0,0.0,0.0,0.0,0.0,0.0,0.0,0.0,0.0,0.0,0.0,0.0,0.0,0.0,0.0,0.0,0.0,0.0,0.0,0.0,0.0,0.0,0.0,0.0,0.0,0.0,0.0,0.0,0.0,0.0,0.0,0.0,0.0,0.0,0.0,0.0,0.0,0.0,0.0,0.0,0.0,0.0,0.0,0.0,0.0,0.0,0.0,0.0,0.0,0.0,0.0,0.0,0.0,0.0,0.0,0.0,0.0,0.0,0.0,0.0,0.0,0.0,0.0,0.0,0.0,0.0,0.0,0.0,0.0,0.0,0.0,0.0,0.0,0.0,0.0,0.0,0.0,0.0,0.0,0.0,0.0,0.0,0.0,0.0,0.0,0.0,0.0,0.0,0.0,0.0,0.0,0.0,0.0,0.0,0.0,0.0,0.0,0.0,0.0,0.0,0.0,0.0,0.0,0.0,0.0,0.0,0.0,0.0,0.0,0.0,0.0,0.0,0.0,0.0,0.0,0.0,0.0,0.0,0.0,0.0,0.0,0.0,0.0,0.0,0.0,0.0,0.0,0.0,0.0,0.0,0.0,0.0,0.0,0.0,0.0,0.0,0.0,0.0,0.0,0.0,0.0,0.0,0.0,0.0,0.0,0.0,0.0,0.0,0.0,0.0,0.0,0.0,0.0,0.0,0.0,0.0,0.0,0.0,0.0,0.0,0.0,0.0,0.0,0.0,0.0,0.0,0.0,0.0,0.0,0.0,0.0,0.0,0.0,0.0,0.0,0.0,0.0,0.0,0.0,0.0,0.0,0.0,0.0,0.0,0.0,0.0,0.0,0.0,0.0,0.0,0.0,0.0,0.0,0.0,0.0,0.0,0.0,0.0,0.0,0.0,0.0,0.0,0.0,0.0,0.0,0.0,0.0,0.0,0.0,0.0,0.0,0.0,0.0,0.0,0.0,0.0,0.0,0.0,0.0,0.0,0.0,0.0,0.0,0.0,0.0,0.0,0.0,0.0,0.0,0.0,0.0,0.0,0.0,0.0,0.0,0.0,0.0,0.0,0.0,0.0,0.0,0.0,0.0,0.0,0.0,0.0,0.0,0.0,0.0,0.0,0.0,0.0,0.0,0.0,0.0,0.0,0.0,0.0,0.0,0.0,0.0,0.0,0.0,0.0,0.0,0.0,0.0,0.0,0.0,0.0,0.0,0.0,0.0,0.0,0.0,0.0,0.0,0.0,0.0,0.0,0.0,0.0,0.0,0.0,0.0,0.0,0.0,0.0,0.0,0.0,0.0,0.0,0.0,0.0,0.0,0.0,0.0,0.0,0.0,0.0,0.0,0.0,0.0,0.0,0.0,0.0,0.0,0.0,0.0,0.0,0.0,0.0,0.0,0.0,0.0,0.0,0.0,0.0,0.0,0.0,0.0,0.0,0.0,0.0,0.0,0.0,0.0,0.0,0.0,0.0,0.0,0.0,0.0,0.0,0.0,0.0,0.0,0.0,0.0,0.0,0.0,0.0,0.0,0.0,0.0,0.0,0.0,0.0,0.0,0.0,0.0,0.0,0.0,0.0,0.0,0.0,0.0,0.0,0.0,0.0,0.0,0.0,0.0,0.0,0.0,0.0,0.0,0.0,0.0,0.0,0.0,0.0,0.0,0.0,0.0,0.0,0.0,0.0,0.0,0.0,0.0,0.0,0.0,0.0,0.0,0.0,0.0,0.0,0.0,0.0,0.0,0.0,0.0,0.0,0.0,0.0,0.0,0.0,0.0,0.0,0.0,0.0,0.0,0.0,0.0,0.0,0.0,0.0,0.0,0.0,0.0,0.0,0.0,0.0,0.0,0.0,0.0,0.0,0.0,0.0,0.0,0.0,0.0,0.0,0.0,0.0,0.0,0.0,0.0,0.0,0.0,0.0,0.0,0.0,0.0,0.0,0.0,0.0,0.0,0.0,0.0,0.0,0.0,0.0,0.0,0.0,0.0,0.0,0.0,0.0,0.0,0.0,0.0,0.0,0.0,0.0,0.0,0.0,0.0,0.0,0.0,0.0,0.0,0.0,0.0,0.0,0.0,0.0,0.0,0.0,0.0,0.0,0.0,0.0,0.0,0.0,0.0,0.0,0.0,0.0,0.0,0.0,0.0,0.0,0.0,0.0,0.0,0.0,0.0,0.0,0.0,0.0,0.0,0.0,0.0,0.0,0.0,0.0,0.0,0.0,0.0,0.0,0.0,0.0,0.0,0.0,0.0,0.0,0.0,0.0,0.0,0.0,0.0,0.0,0.0,0.0,0.0,0.0,0.0,0.0,0.0,0.0,0.0,0.0,0.0,0.0,0.0,0.0,0.0,0.0,0.0,0.0,0.0,0.0,0.0,0.0,0.0,0.0,0.0,0.0,0.0,0.0,0.0,0.0,0.0,0.0,0.0,0.0,0.0,0.0,0.0,0.0,0.0,0.0,0.0,0.0,0.0,0.0,0.0,0.0,0.0,0.0,0.0,0.0,0.0,0.0,0.0,0.0,0.0,0.0,0.0,0.0,0.0,0.0,0.0,0.0,0.0,0.0,0.0,0.0,0.0,0.0,0.0,0.0,0.0,0.0,0.0,0.0,0.0,0.0,0.0,0.0,0.0,0.0,0.0,0.0,0.0,0.0,0.0,0.0,0.0,0.0,0.0,0.0,0.0,0.0,0.0,0.0,0.0,0.0,0.0,0.0,0.0,0.0,0.0,0.0,0.0,0.0,0.0,0.0,0.0,0.0,0.0,0.0,0.0,0.0,0.0,0.0,0.0,0.0,0.0,0.0,0.0,0.0,0.0,0.0,0.0,0.0,0.0,0.0,0.0,0.0,0.0,0.0,0.0,0.0,0.0,0.0,0.0,0.0,0.0,0.0,0.0,0.0,0.0,0.0,0.0,0.0,0.0,0.0,0.0,0.0,0.0,0.0,0.0,0.0,0.0,0.0,0.0,0.0,0.0,0.0,0.0,0.0,0.0,0.0,0.0,0.0,0.0,0.0,0.0,0.0,0.0,0.0,0.0,0.0,0.0,0.0,0.0,0.0,0.0,0.0,0.0,0.0,0.0,0.0,0.0,0.0,0.0,0.0,0.0,0.0,0.0,0.0,0.0,0.0,0.0,0.0,0.0,0.0,0.0,0.0,0.0,0.0,0.0,0.0,0.0,0.0,0.0,0.0,0.0,0.0,0.0,0.0,0.0,0.0,0.0,0.0,0.0,0.0,0.0,0.0,0.0,0.0,0.0,0.0,0.0,0.0,0.0,0.0,0.0,0.0,0.0,0.0,0.0,0.0,0.0,0.0,0.0,0.0,0.0,0.0,0.0,0.0,0.0,0.0,0.0,0.0,0.0,0.0,0.0,0.0,0.0,0.0,0.0,0.0,0.0,0.0,0.0,0.0,0.0,0.0,0.0,0.0,0.0,0.0,0.0,0.0,0.0,0.0,0.0,0.0,0.0,0.0,0.0,0.0,0.0,0.0,0.0,0.0,0.0,0.0,0.0,0.0,0.0,0.0,0.0,0.0,0.0,0.0,0.0,0.0,0.0,0.0,0.0,0.0,0.0,0.0,0.0,0.0,0.0,0.0,0.0,0.0,0.0,0.0,0.0,0.0,0.0,0.0,0.0,0.0,0.0,0.0,0.0,0.0,0.0,0.0,0.0,0.0,0.0,0.0,0.0,0.0,0.0,0.0,0.0,0.0,0.0,0.0,0.0,0.0,0.0,0.0,0.0,0.0,0.0,0.0,0.0,0.0,0.0,0.0,0.0,0.0,0.0,0.0,0.0,0.0,0.0,0.0,0.0,0.0,0.0,0.0,0.0,0.0,0.0,0.0,0.0,0.0,0.0,0.0,0.0,0.0,0.0,0.0,0.0,0.0,0.0,0.0,0.0,0.0,0.0,0.0,0.0,0.0,0.0,0.0,0.0,0.0,0.0,0.0,0.0,0.0,0.0,0.0,0.0,0.0,0.0,0.0,0.0,0.0,0.0,0.0,0.0,0.0,0.0,0.0,0.0,0.0,0.0,0.0,0.0,0.0,0.0,0.0,0.0,0.0,0.0,0.0,0.0,0.0,0.0,0.0,0.0,0.0,0.0,0.0,0.0,0.0,0.0,0.0,0.0,0.0,0.0,0.0,0.0,0.0,0.0,0.0,0.0,0.0,0.0,0.0,0.0,0.0,0.0,0.0,0.0,0.0,0.0,0.0,0.0,0.0,0.0,0.0,0.0,0.0,0.0,0.0,0.0,0.0,0.0,0.0,0.0,0.0,0.0,0.0,0.0,0.0,0.0,0.0,0.0,0.0,0.0,0.0,0.0,0.0,0.0,0.0,0.0,0.0,0.0,0.0,0.0,0.0,0.0,0.0,0.0,0.0,0.0,0.0,0.0,0.0,0.0,0.0,0.0,0.0,0.0,0.0,0.0,0.0,0.0,0.0,0.0,0.0,0.0,0.0,0.0,0.0,0.0,0.0,0.0,0.0,0.0,0.0,0.0,0.0,0.0,0.0,0.0,0.0,0.0,0.0,0.0,0.0,0.0,0.0,0.0,0.0,0.0,0.0,0.0,0.0,0.0,0.0,0.0,0.0,0.0,0.0,0.0,0.0,0.0,0.0,0.0,0.0,0.0,0.0,0.0,0.0,0.0,0.0,0.0,0.0,0.0,0.0,0.0,0.0,0.0,0.0,0.0,0.0,0.0,0.0,0.0,0.0,0.0,0.0,0.0,0.0,0.0,0.0,0.0,0.0,0.0,0.0,0.0,0.0,0.0,0.0,0.0,0.0,0.0,0.0,0.0,0.0,0.0,0.0,0.0,0.0,0.0,0.0,0.0,0.0,0.0,0.0,0.0,0.0,0.0,0.0,0.0,0.0,0.0,0.0,0.0,0.0,0.0,0.0,0.0,0.0,0.0,0.0,0.0,0.0,0.0,0.0,0.0,0.0,0.0,0.0,0.0,0.0,0.0,0.0,0.0,0.0,0.0,0.0,0.0,0.0,0.0,0.0,0.0,0.0,0.0,0.0,0.0,0.0,0.0,0.0,0.0,0.0,0.0,0.0,0.0,0.0,0.0,0.0,0.0,0.0,0.0,0.0,0.0,0.0,0.0,0.0,0.0,0.0,0.0,0.0,0.0,0.0,0.0,0.0,0.0,0.0,0.0,0.0,0.0,0.0,0.0,0.0,0.0,0.0,0.0,0.0,0.0,0.0,0.0,0.0,0.0,0.0,0.0,0.0,0.0,0.0,0.0,0.0,0.0,0.0,0.0,0.0,0.0,0.0,0.0,0.0,0.0,0.0,0.0,0.0,0.0,0.0,0.0,0.0,0.0,0.0,0.0,0.0,0.0,0.0,0.0,0.0,0.0,0.0,0.0,0.0,0.0,0.0,0.0,0.0,0.0,0.0,0.0,0.0,0.0,0.0,0.0,0.0,0.0,0.0,0.0,0.0,0.0,0.0,0.0,0.0,0.0,0.0,0.0,0.0,0.0,0.0,0.0,0.0,0.0,0.0,0.0,0.0,0.0,0.0,0.0,0.0,0.0,0.0,0.0,0.0,0.0,0.0,0.0,0.0,0.0,0.0,0.0,0.0,0.0,0.0,0.0,0.0,0.0,0.0,0.0,0.0,0.0,0.0,0.0,0.0,0.0,0.0,0.0,0.0,0.0,0.0,0.0,0.0,0.0,0.0,0.0,0.0,0.0,0.0,0.0,0.0,0.0,0.0,0.0,0.0,0.0,0.0,0.0,0.0,0.0,0.0,0.0,0.0,0.0,0.0,0.0,0.0,0.0,0.0,0.0,0.0,0.0,0.0,0.0,0.0,0.0,0.0,0.0,0.0,0.0,0.0,0.0,0.0,0.0,0.0,0.0,0.0,0.0,0.0,0.0,0.0,0.0,0.0,0.0,0.0,0.0,0.0,0.0,0.0,0.0,0.0,0.0,0.0,0.0,0.0,0.0,0.0,0.0,0.0,0.0,0.0,0.0,0.0,0.0,0.0,0.0,0.0,0.0,0.0,0.0,0.0,0.0,0.0,0.0,0.0,0.0,0.0,0.0,0.0,0.0,0.0,0.0,0.2658,0.0,0.0,0.0,0.0,0.0,0.0,0.0,0.0,0.0,0.0,0.0,0.0,0.0,0.0,0.0,0.0,0.0,0.0,0.0,0.0,0.0,0.0,0.0,0.0,0.0,0.0,0.0,0.0,0.0,0.0,0.0,0.0,0.0,0.0,0.0,0.0,0.0,0.0,-1.0801,-1.0801,-1.0909,-1.1149,-1.1113,-0.984,-0.748,0.0,0.0,0.0,0.0,0.0,0.0,0.0,0.0,0.0,0.0,0.0,0.0,0.0,0.0,0.0,0.0,0.0,0.0,0.0,0.0,0.0,0.0,0.0,0.0,0.0,0.0,0.0,0.0,0.0,0.0,0.0,0.0,0.0,0.0,0.0,0.0,0.0,0.0,0.0,0.0,0.0,0.0,0.0,0.0,0.0,0.0,0.0,0.0,0.0,0.0,0.0,0.0,0.0,0.0,0.0,0.0,0.0,0.0,0.0,0.0,0.0,0.0,0.0,0.0,0.0,0.0,0.0,0.0,0.0,0.0,0.0,0.1444,0.0,0.0,0.0,0.0,0.0,0.0,0.0,0.0,0.0,0.0,0.0,0.0,0.0,0.0,0.0,0.0,0.0,0.0,0.0,0.0,0.0,0.0,0.0,-1.0474,-0.9783,-0.8186,-0.8549,-0.8218,0.0,0.0,0.0,0.0,0.0,0.0,0.0,-1.0142,-1.0713,-1.0915,-1.1015,-1.149,-1.2274,-1.1922,-1.0487,-0.817,-0.7816,0.0,0.0,0.0,0.0,0.0,0.0,0.0,0.0,0.0,0.0,0.0,0.0,0.0,0.0,0.0,0.0,0.0,0.0,0.0,0.0,0.0,0.0,0.0,0.0,0.0,0.0,0.0,0.0,0.0,0.0,0.0,0.0,0.0,0.0,0.0,0.0,0.0,0.0,0.0,0.0,0.0,0.0,0.0,0.0,0.0,0.0,0.0,0.0,0.0,0.0,0.0,0.0,0.0,0.0,0.0,0.0,0.0,0.0,0.0,0.0,0.0,0.0,0.0,-0.0555,-0.0563,-0.1038,-0.0346,-0.0342,-0.0875,-0.05,-0.0319,-0.0196,0.0,0.0,0.0,0.0,0.0,0.0,0.0,0.0,0.0,0.0,0.0,0.0,0.0,0.0,0.0,0.0,0.0,0.0,0.0,0.0,0.0,0.0,-1.0016,-0.9253,-0.8255,-0.7576,-0.6801,-0.5796,0.0,0.0,0.0,0.0,0.0,-0.9306,-1.0142,-1.0613,-1.0646,-1.1122,-1.1655,-1.2274,-1.1603,-1.1167,-1.0889,-0.9092,-0.7693,-0.6677,0.0,0.0,0.0,0.0,0.0,0.0,0.0,0.0,0.0,0.0,0.0,0.0,0.0,0.0,0.0,0.0,0.0,0.0,0.0,0.0,0.0,0.0,0.0,0.0,0.0,0.0,0.0,0.0,0.0,0.0,0.0,0.0,0.0,0.0,0.0,0.0,0.0,0.0,0.0,0.0,0.0,0.5002,0.4901,0.0,0.0,0.0,0.0,0.0,0.0,0.0,0.0,0.0,0.0,0.0,0.0,0.0,0.0042,0.0165,-0.097,-0.1082,-0.0178,-0.1125,-0.1059,-0.0144,-0.0048,-0.0048,-0.0187,-0.1268,0.0,-0.2237,-0.1115,0.0,0.0,0.0,0.0,0.0,0.0,0.0,0.0,0.0,0.0,0.0,0.0,0.0,0.0,0.0,0.0,0.0,0.0,0.0,0.0,0.0,-0.9832,-0.9216,-0.7979,-0.7732,-0.7133,-0.5893,-0.6248,0.0,0.0,0.0,-0.7832,-0.7832,-0.8705,-0.9238,-0.949,-1.1116,-1.2113,-1.2474,-1.3349,-1.3485,-1.2929,-1.2076,-1.0239,-0.7673,-0.6758,0.0,0.0,0.0,0.0,0.0,0.0,0.0,0.0,0.0,0.0,0.0,0.0,0.0,0.0,0.0,0.0,0.0,0.0,0.0,0.0,0.0,0.0,0.0,0.0,0.0,0.0,0.0,0.0,0.0,0.0,0.0,0.0,0.0,0.0,0.0,0.0,0.0,0.0,0.0,0.5172,0.5189,0.4376,0.4698,0.4639,0.0,0.0,0.0,0.0,0.0,0.0,0.0,0.0,0.0,0.0717,0.0268,0.0,0.0,-0.0528,-0.0541,0.0,-0.0557,-0.0515,0.0,0.0,-0.0403,-0.1147,-0.1741,-0.3285,-0.5335,-0.4536,-0.5071,-0.635,0.0,0.0,0.0,0.0,-0.7887,-0.9362,0.0,0.0,0.0,0.0,0.0,0.0,0.0,0.0,0.0,0.0,0.0,0.0,-0.9649,-0.9419,-0.8881,-0.7843,-0.7834,-0.7368,-0.6272,-0.6166,-0.5979,-0.5528,-0.6283,-0.6687,-0.6687,-0.766,-0.8429,-0.8955,-1.0896,-1.2019,-1.235,-1.4127,-1.4672,-1.4135,-1.4,-1.2232,-0.9285,-0.8193,-0.7418,-0.6822,0.0,0.0,0.0,0.0,0.0,0.0,0.0,0.0,0.0,0.0,0.0,0.0,0.0,0.0,0.0,0.0,0.0,0.0,0.0,0.0,0.0,0.0,0.0,0.0,0.0,0.0,0.0,0.0,0.0,0.0,0.0,0.0,0.0,0.0,0.0,0.0,0.0,0.5153,0.4953,0.3881,0.3759,0.3477,0.0,0.0,0.0,0.0,0.0,0.0,0.1024,0.098,0.0962,0.0973,0.0728,0.0546,0.0544,0.0979,0.1156,0.1156,0.0746,0.0538,0.054,0.0159,-0.0734,-0.2028,-0.2712,-0.4953,-0.7973,-0.7434,-0.8631,-1.0904,-1.1303,-1.2646,-1.4318,-1.4108,-1.5122,-1.6545,0.0,0.0,0.0,0.0,0.0,0.0,0.0,0.0,0.0,0.0,0.0,-0.9274,-0.9809,-0.8575,-0.7855,-0.8136,-0.7417,-0.6897,-0.6678,-0.6139,-0.581,-0.5779,-0.6376,-0.6687,-0.6687,-0.7944,-0.9032,-0.9935,-1.043,-1.1,-1.1571,-1.2237,-1.3204,-1.4248,-1.3287,-1.2544,-1.1949,-1.1011,-1.0234,-0.9557,-0.8015,0.0,0.0,0.0,0.0,0.0,0.0,0.0,0.0,0.0,0.0,0.0,0.0,0.0,0.0,0.0,0.0,0.0,0.0,0.0,0.0,0.0,0.0,0.0,0.0,0.0,0.0,0.0,0.0,0.0,0.0,0.0,0.0,0.0,0.0,0.0,0.0,0.0,0.0,0.3633,0.2225,0.0,0.0,0.0,0.0,0.129,0.1344,0.1004,0.0097,0.005,0.0052,0.0054,0.1375,0.2093,0.2115,0.353,0.4293,0.4237,0.2777,0.2088,0.2062,0.066,-0.0757,-0.212,-0.4702,-0.7217,-0.9444,-0.8996,-1.1375,-1.5544,-1.7246,-1.9262,-2.1268,-2.1801,-2.1849,-2.1533,0.0,0.0,0.0,0.0,0.0,0.0,0.0,0.0,-1.066,-1.0847,-1.087,-1.0522,-0.9625,-0.9517,-0.9048,-0.7914,-0.7669,-0.7409,-0.6967,-0.6603,-0.6295,-0.6143,-0.6122,-0.6268,-0.6548,-0.7026,-0.7614,-0.8311,-1.056,-1.1857,-1.2398,-1.428,-1.5619,-1.642,-1.5875,-1.5528,-1.5263,-1.2618,-1.1102,-1.0336,-0.8622,-0.7672,0.0,0.0,0.0,0.0,0.0,0.0,0.0,0.0,0.0,0.0,0.0,0.0,0.0,0.0,0.0,0.0,0.0,0.0,0.0,0.0,0.0,0.0,0.0,0.0,0.0,0.0,0.0,0.0,0.0,0.0,0.0,0.0,0.0,0.0,0.0,0.0,0.0,-0.0111,-0.1435,0.0,-0.1701,-0.2898,-0.2898,-0.098,-0.0892,-0.0691,-0.0052,0.0,0.0502,0.1578,0.2118,0.2862,0.3826,0.4331,0.4587,0.4486,0.2936,0.2224,0.2122,-0.033,-0.2589,-0.4744,-0.7394,-1.0875,-1.4746,-1.6126,-1.7796,-1.9811,-2.2725,-2.5315,-2.7424,-2.739,-2.7238,-2.691,0.0,0.0,0.0,0.0,0.0,0.0,0.0,0.0,-1.0546,-1.0841,-1.1186,-1.1022,-1.0063,-1.0501,-1.0326,-0.9135,-0.8792,-0.8413,-0.7871,-0.7095,-0.6515,-0.631,-0.6102,-0.6142,-0.6539,-0.7146,-0.7703,-0.8208,-1.0952,-1.2366,-1.2541,-1.5026,-1.6381,-1.6697,-1.7132,-1.7347,-1.7183,-1.4739,-1.313,-1.2062,-1.0284,-0.9086,-0.8139,0.0,0.0,0.0,0.0,0.0,0.0,0.0,0.0,0.0,0.0,0.0,0.0,0.0,0.0,0.0,0.0,0.0,0.0,0.0,0.0,0.0,0.0,0.0,0.0,0.0,0.0,0.0,0.0,0.0,0.0,0.0,0.0,0.0,0.0,0.0,-0.1321,-0.3158,-0.4968,-0.5957,-0.5629,-0.689,-0.6529,-0.3758,-0.3715,-0.2875,-0.0826,-0.0805,-0.0059,0.1587,0.2642,0.3618,0.4615,0.5646,0.5814,0.525,0.3687,0.2682,0.2123,-0.0829,-0.39,-0.6964,-0.9689,-1.3682,-1.8509,-2.1625,-2.3232,-2.4061,-2.7366,-3.04,-3.2899,-3.2447,-3.1842,-3.0758,0.0,0.0,0.0,0.0,0.0,0.0,0.0,-1.0077,-1.0234,-1.0579,-1.0528,-1.0683,-1.1164,-1.1311,-1.1522,-1.1793,-1.0578,-0.9639,-0.9276,-0.7507,-0.645,-0.632,-0.6317,-0.6463,-0.6809,-0.846,-0.9485,-0.9866,-1.1629,-1.2326,-1.2029,-1.4231,-1.5124,-1.4949,-1.6782,-1.7575,-1.7562,-1.7326,-1.6382,-1.4905,-1.3044,-1.1331,-0.9732,0.0,0.0,0.0,0.0,0.0,0.0,0.0,0.0,0.0,0.0,0.0,0.0,0.0,0.0,0.0,0.0,0.0,0.0,0.0,0.0,0.0,0.0,0.0,0.0,0.0,0.0,0.0,0.0,0.0,0.0,0.0,0.0,0.0,-0.1302,-0.3009,-0.4763,-0.5272,-0.8282,-0.9922,-0.9031,-1.0074,-0.9669,-0.6939,-0.69,-0.5616,-0.2523,-0.242,-0.1724,0.0,0.2925,0.4457,0.4574,0.7387,0.8051,0.6594,0.514,0.3632,0.2011,-0.0949,-0.4605,-0.8622,-1.151,-1.5538,-2.0378,-2.4823,-2.7172,-2.8198,-3.1105,-3.4401,-3.7454,-3.7026,-3.5515,-3.2777,0.0,0.0,0.0,0.0,0.0,0.0,0.0,-0.998,-1.0374,-1.1096,-1.1896,-1.2283,-1.1885,-1.2671,-1.2458,-1.0667,-0.9862,-0.9001,-0.8007,-0.6957,-0.6436,-0.6573,-0.6685,-0.7408,-0.8912,-0.9179,-0.9965,-1.1322,-1.3192,-1.4099,-1.4042,-1.5839,-1.6691,-1.6853,-1.7178,-1.7434,-1.7562,-1.7326,-1.6965,-1.6334,-1.3124,-1.1492,-1.0618,0.0,0.0,0.0,0.0,0.0,0.0,0.0,0.0,0.0,0.0,0.0,0.0,0.0,0.0,0.0,0.0,0.0,0.0,0.0,0.0,0.0,0.0,0.0,0.0,0.0,0.0,0.0,0.0,0.0,0.0,0.0,0.0,-0.7556,-0.5855,-0.72,-0.885,-1.0101,-1.2874,-1.3895,-1.19,-1.3853,-1.3778,-1.0194,-0.9032,-0.7737,-0.5976,-0.3722,-0.1154,0.1714,0.259,0.4117,0.6378,0.6018,0.5576,0.5113,0.3538,0.2066,0.0446,-0.3555,-0.7065,-1.0282,-1.5029,-1.8641,-2.1387,-2.4503,-2.6596,-2.8382,-3.3302,-3.6059,-3.7383,-3.8056,-3.5622,-3.1296,0.0,0.0,0.0,0.0,0.0,0.0,0.0,-0.9476,-0.9863,-1.0929,-1.2318,-1.3053,-1.262,-1.3627,-1.3665,-1.1868,-1.09,-0.9943,-0.8886,-0.815,-0.7736,-0.7785,-0.8471,-0.9455,-1.0866,-1.1204,-1.1971,-1.3111,-1.4915,-1.5732,-1.5626,-1.6813,-1.7407,-1.7454,-1.7407,-1.7474,-1.7569,-1.7454,-1.738,-1.7138,-1.4321,-1.2608,-1.1507,-0.9359,-0.7432,-0.5766,-0.4421,-0.3161,-0.1894,-0.0036,0.0,0.0,0.0,0.0,0.0,0.0,0.0,0.0,0.0,0.0,0.0,0.0,0.0,0.0,0.0,0.0,0.0,0.0,0.0,0.0,0.0,0.0,0.0,0.0,-1.0065,-1.066,-1.0157,-1.1,-1.2058,-1.3166,-1.5832,-1.7066,-1.5793,-1.7684,-1.7801,-1.4866,-1.3462,-1.1894,-0.9979,-0.695,-0.3822,-0.0669,0.0779,0.2614,0.5051,0.4738,0.4258,0.3511,0.2019,0.0502,-0.106,-0.5641,-0.9201,0.0,-1.6642,-1.9709,-2.1683,-2.3539,-2.4642,0.0,0.0,0.0,0.0,0.0,-3.5201,-3.0678,0.0,0.0,0.0,0.0,0.0,0.0,0.0,-0.8731,-0.904,-1.0324,-1.1936,-1.2988,-1.3106,-1.4128,-1.4559,-1.3906,-1.258,-1.1502,-1.0761,-1.0174,-0.9738,-0.9595,-1.0914,-1.1953,-1.2678,-1.3785,-1.4562,-1.5002,-1.651,-1.7112,-1.682,-1.7408,-1.7528,-1.7313,-1.7522,-1.7615,-1.7582,-1.7582,-1.7582,-1.7503,-1.6033,-1.4384,-1.2607,-1.1724,-0.9876,-0.7476,-0.5946,-0.5221,-0.4537,-0.1733,0.0,0.0,0.0,0.0,0.0,0.0,0.0,0.0,0.0,0.0,0.0,0.0,0.0,0.0,0.0,0.0,0.0,0.0,0.0,0.0,0.0,0.0,0.0,0.0,-1.2292,-1.3448,-1.3874,-1.432,-1.4771,-1.5193,-1.7715,-1.9522,-1.9796,-2.1092,-2.1322,-1.9905,-1.8615,-1.6857,-1.4367,0.0,0.0,0.0,0.0,-0.0058,0.141,0.2773,0.2786,0.1456,0.0112,-0.1286,-0.2857,-0.7287,-1.0735,-1.3477,-1.6625,-1.9078,-2.0825,-2.1683,-2.1773,-2.1952,-2.8164,-3.2599,-3.5608,-3.6553,-3.4392,-3.0603,0.0,0.0,0.0,0.0,0.0,0.0,0.0,-0.8028,-0.8759,-0.961,-1.0715,-1.1677,-1.2404,-1.3327,-1.3425,-1.2254,-1.1645,-1.1044,-1.0341,-1.0481,-1.0837,-1.1374,-1.2026,-1.299,-1.4288,-1.4592,-1.5256,-1.6343,-1.7131,-1.7468,-1.7428,-1.8029,-1.8156,-1.7876,-1.7876,-1.7816,-1.7582,-1.7582,-1.7582,-1.7575,-1.7252,-1.6125,-1.4447,-1.271,-1.0972,-0.9286,-0.7804,-0.6495,-0.5255,-0.3787,-0.2752,-0.1981,-0.1625,-0.0112,0.0,0.0,0.0,0.0,0.0,0.0,0.0,0.0,0.0,0.0,0.0,0.0,0.0,0.0,0.0,0.0,0.0,0.0,0.0,-1.3568,-1.4435,-1.5048,-1.5349,-1.6801,-1.7864,-1.793,-1.9654,-2.0948,-2.1263,-2.2517,-2.2847,-2.1694,-2.0181,-1.9188,-1.8924,-1.4834,-1.172,-1.0105,-0.6961,-0.4671,-0.3299,-0.3041,-0.3005,-0.3186,0.0,0.0,-0.6087,-0.8176,-1.0111,-1.2073,-1.4948,-1.6169,-1.6249,-1.7502,-1.8731,-2.0497,-2.7248,-3.1926,-3.4891,-3.5045,-3.3182,-3.0226,0.0,0.0,0.0,0.0,0.0,0.0,0.0,-0.7341,-0.7772,-0.9078,-1.0139,-1.1126,-1.2012,-1.2612,-1.2576,-1.1626,-1.1397,-1.1184,-1.0884,-1.1958,-1.2798,-1.3208,-1.415,-1.5154,-1.6182,-1.6055,-1.6433,-1.7361,-1.7662,-1.7889,-1.8043,-1.835,-1.841,-1.827,-1.827,-1.8103,-1.7816,-1.7816,-1.7722,-1.7582,-1.7582,-1.7036,-1.5989,-1.4209,-1.2454,-1.0852,-1.0053,-0.9234,-0.8363,-0.723,-0.6482,-0.5903,-0.5358,-0.355,-0.1628,0.0,0.0,0.0,0.0,0.0,0.0,0.0,0.0,0.0,0.0,0.0,0.0,0.0,0.0,-1.1183,0.0,0.0,-1.4143,-1.5232,-1.6317,-1.7087,-1.7236,-1.8818,-1.9659,-1.8811,-2.0909,-2.251,-2.27,-2.389,-2.4495,-2.393,-2.2715,-2.2157,-2.2474,-1.8833,-1.6127,-1.4829,-1.2206,-0.9947,-0.799,-0.7973,-0.763,-0.6863,-0.694,-0.7347,-0.8034,-0.9692,-1.0914,-1.1852,-1.3274,-1.368,-1.3312,-1.3646,-1.5397,-1.8348,-2.2814,-2.7515,-3.1903,-3.2972,-3.2194,-3.0377,0.0,0.0,0.0,0.0,0.0,0.0,0.0,-0.6549,-0.6669,-0.8204,-0.928,-1.0172,-1.0997,-1.1362,-1.1417,-1.1103,-1.1393,-1.1666,-1.1902,-1.3638,-1.4767,-1.4906,-1.6179,-1.7094,-1.7569,-1.7407,-1.7488,-1.8023,-1.8096,-1.8283,-1.8577,-1.8631,-1.8631,-1.8577,-1.8577,-1.841,-1.813,-1.8333,-1.8345,-1.8206,-1.8345,-1.8306,-1.7944,-1.6478,-1.4436,-1.2306,-1.2036,-1.1646,-1.1116,-1.019,-0.9702,-0.9359,-0.8674,-0.6885,-0.4994,-0.4806,-0.3109,0.0,0.0,0.0,0.0,0.0,0.0,0.0,0.0,-0.96,-1.0575,-1.1912,-1.2413,-1.3029,-1.4471,-1.5064,-1.5578,-1.6246,-1.766,-1.872,-1.8829,-2.0434,-2.1122,-1.9838,-2.2049,-2.3791,-2.4048,-2.5079,-2.5859,-2.6181,-2.5509,-2.5339,-2.5998,-2.3341,-2.1373,-2.0315,-1.7889,-1.5593,-1.3477,-1.299,-1.2008,-1.0624,-1.0699,-1.0517,-1.0194,-1.1343,-1.1932,-1.1989,-1.1399,-1.0832,-1.0345,-1.0292,-1.2083,-1.5105,-1.7816,-2.2387,-2.769,-3.037,-3.1095,-3.0611,0.0,0.0,0.0,0.0,0.0,0.0,0.0,0.0,-0.595,-0.628,-0.6921,-0.754,-0.8106,-0.8574,-0.9129,-0.9831,-1.132,-1.2523,-1.3324,-1.4575,-1.5658,-1.6414,-1.7136,-1.7515,-1.7582,-1.7549,-1.7702,-1.7989,-1.831,-1.8591,-1.8878,-1.9145,-1.9125,-1.8878,-1.8878,-1.8711,-1.8534,-1.9467,-2.0056,-2.0388,-2.098,-2.1279,-2.1291,-2.0288,-1.749,-1.3924,-1.3124,-1.1758,-1.0357,-1.0474,-1.0028,-0.9618,-1.0255,-0.9303,-0.7879,-0.7559,-0.6327,-0.517,-0.5535,-0.6626,-0.7926,-0.9044,-0.967,-1.0509,0.0,-1.2812,-1.3114,-1.4373,-1.5239,-1.5743,-1.5658,-1.6139,-1.654,-1.664,-1.7803,-1.8852,-1.9245,-2.1492,-2.3116,-2.3314,-2.3529,-2.4146,-2.5382,-2.5586,-2.6366,-2.7983,-2.7997,-2.8634,-3.024,-2.8838,-2.7829,-2.7472,-2.384,-2.1675,-2.1143,-1.9036,-1.7148,-1.5572,-1.5739,-1.5083,-1.3775,-1.253,-1.2065,-1.1995,-0.8982,-0.6837,-0.5664,-0.8097,-0.9143,-0.9826,-1.5047,-1.9072,-2.2503,-2.6909,-2.958,-3.0668,0.0,0.0,0.0,0.0,0.0,0.0,0.0,0.0,0.0,-0.5931,-0.6371,-0.6881,-0.7628,-0.842,-0.9061,-0.9432,-1.1051,-1.2432,-1.3293,-1.4489,-1.5611,-1.666,-1.7108,-1.7495,-1.7849,-1.7675,-1.7903,-1.8502,-1.851,-1.8731,-1.9185,-1.9305,-1.9299,-1.9185,-1.9185,-1.9018,-1.8843,-2.0106,-2.0706,-2.0778,-2.1719,-2.1827,-2.1412,-2.0528,-1.838,-1.572,-1.5136,-1.412,0.0,-1.2314,-1.1922,-1.1709,-1.2088,-1.1095,-0.977,-0.9543,-0.8734,-0.8189,-0.9367,-1.0407,-1.138,-1.2272,-1.3451,-1.4638,-1.5527,-1.5832,-1.6098,-1.6567,-1.6455,-1.6239,-1.6112,-1.7044,-1.7989,0.0,-2.0474,-2.2021,-2.2232,-2.3642,-2.4687,-2.4601,-2.4316,-2.4517,-2.5586,-2.5693,-2.6315,-2.7814,-2.8463,-2.937,-3.0863,-3.0385,-3.0061,-2.9953,-2.8087,-2.6765,-2.6018,-2.4526,-2.3062,-2.1596,-1.9146,-1.7547,-1.6586,-1.3428,-1.0532,-0.7892,-0.646,-0.4845,-0.3327,-0.449,-0.6938,-1.0292,-1.4004,-1.8728,-2.3728,-2.6237,-2.8821,-3.1061,0.0,0.0,0.0,0.0,0.0,0.0,0.0,0.0,0.0,0.0,-0.5795,-0.6191,-0.6851,-0.7865,-0.8579,-0.8839,-1.0412,-1.187,-1.3026,-1.4188,-1.5331,-1.642,-1.6951,-1.744,-1.7856,-1.7782,-1.832,-1.952,-1.8872,-1.909,-1.9982,-1.9591,-1.9424,-1.9424,-1.9424,-1.9469,-1.975,-2.1082,-2.1822,-2.2081,-2.291,-2.2844,-2.2122,-2.0905,-1.9307,-1.7578,-1.6576,-1.5499,-1.4471,-1.3751,-1.3395,-1.3304,-1.3564,-1.2791,-1.1797,-1.1969,-1.1742,-1.167,-1.2942,-1.3872,-1.4679,-1.5576,-1.7011,-1.8246,-1.834,-1.831,-1.8248,-1.8157,-1.7258,-1.6536,-1.6406,-1.7387,-1.8517,-1.9618,-2.1984,-2.3823,-2.4404,-2.5194,-2.5567,-2.5293,-2.4756,-2.4668,-2.5265,-2.5323,-2.5976,-2.751,-2.8562,-2.9882,-3.1595,-3.1826,-3.2005,-3.2144,-3.1364,-3.0544,-2.9721,-2.846,-2.7159,-2.5869,-2.2439,-2.0431,-1.9693,-1.5709,-1.1228,-0.667,-0.6253,-0.4917,-0.3003,-0.3382,-0.6484,-1.1347,-1.4328,-1.9532,-2.5592,-2.7398,-2.9717,-3.2033,0.0,0.0,0.0,0.0,0.0,0.0,0.0,0.0,0.0,0.0,0.0,0.0,0.0,-0.5887,-0.6827,-0.769,-0.922,-1.0915,-1.2705,-1.3874,-1.493,-1.5771,-1.6687,-1.734,-1.7589,-1.7883,-1.9008,-2.1029,-1.9562,-1.9778,-2.1472,-2.009,-1.9424,-1.9424,-1.9424,-2.0199,-2.1605,-2.2672,-2.3982,-2.5271,-2.5534,-2.5324,-2.474,-2.2648,-2.0984,-1.9487,-1.6936,-1.4819,-1.3364,-1.403,-1.3872,-1.355,-1.4447,-1.4484,-1.4386,-1.5343,-1.5906,-1.615,-1.6094,-1.6944,-1.8095,-1.9087,-1.9782,-2.0317,-2.0629,-1.9888,-1.9057,-1.8735,-1.7852,-1.7085,-1.6747,-1.675,-1.7443,-1.9464,-2.1022,-2.2656,-2.4686,-2.5383,-2.5684,-2.5674,-2.4894,-2.4424,0.0,-2.4453,-2.5335,-2.751,-2.8877,-3.0754,-3.3482,-3.4244,-3.4828,-3.5353,-3.3568,-3.2628,-3.2594,-3.0052,-2.8269,-2.7224,-2.5874,-2.465,-2.355,-2.0153,-1.5847,-1.1011,-0.9738,-0.7528,-0.4924,-0.6359,-0.8585,-1.1557,-1.6117,-2.1233,-2.6557,-3.054,-3.2821,-3.3774,0.0,0.0,0.0,0.0,0.0,0.0,0.0,0.0,0.0,0.0,0.0,0.0,0.0,0.0,0.0,0.0,-0.8463,-0.9934,-1.1241,-1.2628,-1.3828,-1.4865,-1.5805,-1.6593,-1.7333,-1.7395,-1.8501,-2.0716,-2.0026,-2.0567,-2.2189,-2.1705,-2.1438,-2.1446,-2.1786,-2.2213,-2.2743,-2.4096,-2.5111,-2.5855,-2.5473,-2.5205,-2.4822,-2.2083,-1.9853,-1.8105,0.0,-1.5325,-1.383,-1.3526,-1.3139,-1.2852,-1.3418,-1.3525,-1.3737,-1.5235,-1.6127,-1.7077,-1.9037,-1.9856,-2.0536,-2.1925,-2.2496,-2.2677,-2.2703,-2.1593,-2.0351,-1.9758,-1.7684,-1.6123,-1.6455,-1.7566,-1.9049,-2.0948,-2.3305,-2.5217,-2.618,-2.6444,-2.626,-2.5391,-2.4775,0.0,0.0,0.0,0.0,-2.7007,-2.8679,-3.048,-3.2519,-3.3609,-3.4261,-3.4449,-3.3846,-3.3683,-3.404,-3.2641,-3.1973,-3.1967,-2.9038,-2.6525,-2.4286,-2.1801,-1.8656,-1.5093,-1.3093,-1.1061,-0.9182,-0.9655,-1.2203,-1.6051,-1.9231,-2.4723,-3.1148,-3.3406,-3.5477,-3.6983,0.0,0.0,0.0,0.0,0.0,0.0,0.0,0.0,0.0,0.0,0.0,0.0,0.0,0.0,0.0,0.0,0.0,-0.8943,-1.0189,-1.1565,-1.2705,-1.3681,-1.4831,-1.581,-1.6505,-1.6903,-1.8221,-2.0432,-1.9891,-2.0471,-2.2147,-2.1486,-2.1189,-2.1204,-2.165,-2.2121,-2.2761,-2.4132,-2.4845,-2.4959,-2.4381,-2.3691,-2.2787,-2.038,-1.8511,0.0,-1.6443,-1.5462,-1.4346,-1.3981,-1.3688,-1.3556,-1.3964,-1.4626,-1.5473,-1.6607,-1.7824,-1.9408,-2.1957,-2.2327,-2.2501,-2.4631,-2.4274,-2.347,-2.3705,-2.2423,-2.0817,-1.9843,-1.7872,-1.6387,-1.6536,-1.7368,-1.882,-2.1347,-2.3215,-2.4909,-2.6571,-2.6514,-2.6064,-2.5391,-2.4775,-2.4199,0.0,0.0,0.0,-2.5722,-2.7557,-2.9179,-3.0445,-3.2241,-3.3325,-3.3523,-3.3776,-3.4161,-3.4668,-3.3577,-3.3137,-3.3394,-3.1119,-2.8971,-2.6865,-2.5034,-2.2681,-2.0045,-1.8023,-1.6307,-1.4944,-1.5308,-1.7964,-2.1996,-2.4513,-2.9492,-3.5375,-3.6524,-3.8017,-3.9296,0.0,0.0,0.0,0.0,0.0,0.0,0.0,0.0,0.0,0.0,0.0,0.0,0.0,0.0,0.0,0.0,0.0,0.0,-0.9495,-1.071,-1.1602,-1.2211,-1.3906,-1.4966,-1.5245,-1.6385,-1.8024,-2.0192,-1.9171,-1.9662,-2.1514,-1.9747,-1.8877,-1.8892,-1.9314,-2.0308,-2.1762,-2.2924,-2.3251,-2.2984,-2.2549,-2.1083,-1.9143,-1.7818,-1.7006,-1.6488,-1.5633,-1.5108,-1.4882,-1.5293,-1.5488,-1.5615,-1.6065,-1.7631,-1.9307,-1.9394,-2.0918,-2.2906,-2.4594,-2.4305,-2.4115,-2.6831,-2.5004,-2.2786,-2.3663,-2.2322,-2.0514,-1.9101,-1.8303,-1.7679,-1.7001,-1.6251,-1.6986,-2.0693,-2.1083,-2.2215,-2.5907,-2.5713,-2.5352,0.0,0.0,0.0,0.0,0.0,0.0,-2.3926,0.0,-2.7174,-2.772,-3.0479,-3.2305,-3.2897,-3.3515,-3.4109,-3.4718,-3.3144,-3.2172,-3.1954,-3.2295,-3.2002,-3.1067,-2.9672,-2.7844,-2.5713,-2.4344,-2.3075,-2.1998,-2.3007,-2.5467,-2.8845,-3.1417,-3.502,-3.8852,-3.9625,-4.0335,-4.0594,0.0,0.0,0.0,0.0,0.0,0.0,0.0,0.0,0.0,0.0,0.0,0.0,0.0,0.0,0.0,0.0,0.0,0.0,-0.8007,-0.9765,-1.0975,-1.1309,-1.3184,-1.434,-1.4615,-1.5767,-1.7195,-1.8941,-1.8668,-1.935,-2.085,-2.038,-2.0129,-2.0147,-2.0555,-2.0961,-2.1356,-2.1674,-2.1957,-2.208,-2.0674,-1.9611,-1.863,-1.6708,-1.5729,-1.5281,-1.4694,-1.4638,-1.4902,-1.5674,-1.6543,-1.7373,-1.748,-1.833,-1.9541,-2.084,-2.2285,-2.367,-2.4516,-2.5196,-2.5592,-2.5266,-2.4065,-2.3111,-2.3533,-2.1581,-1.9662,-1.9289,-1.7572,-1.613,-1.6334,-1.7133,-1.8518,-2.0863,-2.2773,0.0,-2.6571,-2.6943,0.0,-2.6719,-2.6484,-2.6103,-2.5411,-2.5693,0.0,0.0,-2.6591,-2.7757,-2.8485,-3.0127,-3.156,-3.2699,-3.2905,-3.3756,-3.5282,-3.5301,-3.5281,-3.5195,-3.4831,-3.4367,-3.3695,-3.278,-3.1851,-3.0823,-2.9613,-2.8855,-2.8574,-2.8855,-3.0272,-3.2384,-3.3898,-3.6536,-3.9625,-3.9825,-4.0262,-4.0526,0.0,0.0,0.0,0.0,0.0,0.0,0.0,0.0,0.0,0.0,0.0,0.0,0.0,0.0,0.0,0.0,0.0,0.0,0.0,-0.9124,-1.0114,-1.0439,-1.1954,-1.289,-1.3033,-1.4061,-1.5025,-1.6009,-1.6183,-1.6777,-1.7716,-1.7852,-1.7908,-1.7963,-1.8686,-1.9098,-1.9267,-1.9468,-1.9469,0.0,0.0,-1.6916,-1.6069,-1.4877,-1.4262,-1.4022,-1.3774,-1.4403,-1.556,-1.6767,-1.7803,-1.8672,-1.9248,-2.0137,-2.1318,-2.3066,-2.4346,-2.5431,-2.6501,-2.6412,-2.591,-2.5689,-2.344,-2.1325,-2.1312,-1.9951,-1.8493,-1.7638,-1.6839,-1.6323,-1.6413,-1.6992,-1.8135,0.0,0.0,0.0,-2.6133,-2.667,-2.6943,0.0,-2.7139,0.0,-2.6298,-2.6523,-2.6641,0.0,-2.7022,-2.7476,-2.7721,-2.9374,-3.0758,-3.1899,-3.263,-3.3857,-3.5495,-3.6094,-3.6405,-3.6405,-3.5805,-3.5469,-3.5366,-3.4743,-3.4357,-3.4245,0.0,-3.3289,-3.3361,-3.4192,-3.534,-3.6721,-3.7827,-3.9361,-4.0896,-4.0488,-4.0134,-3.965,0.0,0.0,0.0,0.0,0.0,0.0,0.0,0.0,0.0,0.0,0.0,0.0,0.0,0.0,0.0,0.0,0.0,0.0,0.0,0.0,-0.9344,-0.9695,-1.0733,-1.1323,-1.1368,-1.2166,-1.2655,-1.2763,-1.3093,-1.342,-1.3766,-1.4129,-1.4347,-1.4446,-1.541,-1.6094,-1.6466,-1.6722,-1.6378,-1.5629,-1.4932,-1.3939,-1.2856,0.0,-1.2856,-1.2848,-1.2948,-1.4271,-1.6196,-1.7932,-1.9051,-1.9932,-2.1142,-2.2409,-2.3773,-2.545,-2.6562,-2.7497,-2.8969,-2.7597,-2.594,-2.6761,-2.3157,-1.9317,-1.8995,-1.842,-1.7491,-1.5708,-1.633,-1.707,-1.6609,-1.6387,-1.7009,-1.928,0.0,-2.1863,-2.5015,-2.5586,-2.6191,-2.7483,-2.7295,-2.71,-2.71,-2.7148,-2.7344,-2.7777,-2.7548,-2.7216,-2.666,-2.8614,-3.0296,-3.134,-3.2993,-3.4457,-3.5608,-3.6119,-3.6405,-3.6405,-3.5932,-3.5929,-3.6292,-3.604,-3.6076,-3.6408,-3.6565,0.0,-3.6746,-3.8583,-3.9775,-4.0575,-4.1638,-4.2083,-4.2008,-4.0995,-3.985,-3.8671,0.0,0.0,0.0,0.0,0.0,0.0,0.0,0.0,0.0,0.0,-0.4569,-0.4539,0.0,0.0,0.0,0.0,0.0,0.0,0.0,0.0,0.0,-0.9695,-1.0733,-1.1428,-1.1706,-1.2295,-1.2618,-1.2618,-1.2433,-1.2349,-1.2436,-1.3048,-1.3544,-1.3915,-1.4016,-1.4267,-1.4595,-1.4013,-1.3686,-1.3529,-1.3374,-1.2795,-1.202,-1.202,0.0,0.0,-1.2757,-1.3912,-1.5414,-1.7509,-1.9858,-2.2119,-2.3057,-2.4238,-2.5508,-2.6934,-2.7685,-2.8091,-2.8094,-2.8011,-2.7478,-2.5711,-2.3584,-2.1723,-2.1203,-1.9419,-1.7723,-1.7095,-1.6622,-1.6183,-1.5723,-1.6465,-1.7451,-1.8271,-2.0245,-2.2255,-2.3983,-2.5069,-2.6035,0.0,-2.7383,-2.7559,-2.7559,-2.7871,0.0,0.0,0.0,-2.9196,-2.8012,-2.9413,-3.1277,-3.3711,-3.5171,-3.6018,-3.6219,-3.6367,-3.6405,-3.6392,-3.6709,-3.665,-3.6322,-3.759,-3.7902,-3.7587,-3.8457,0.0,-3.8929,-3.9984,-4.0571,-4.0849,-4.1089,-4.1222,-4.1054,-3.9677,-3.9267,-3.9175,0.0,0.0,0.0,0.0,0.0,0.0,0.0,-0.461,-0.4692,-0.4891,-0.4857,-0.4779,-0.4701,-0.4583,-0.4992,0.0,0.0,0.0,0.0,0.0,0.0,0.0,-0.9595,-0.9925,-1.0434,-1.0696,-1.076,-1.0622,0.0,-1.0562,-1.0931,-1.1836,-1.2573,-1.3132,-1.3202,-1.348,-1.381,-1.2404,-1.1927,-1.2084,-1.1677,-1.1252,-1.0937,0.0,0.0,0.0,-1.2081,-1.3471,-1.5158,-1.6845,-1.9851,-2.3192,-2.4879,-2.6148,-2.7266,-2.8552,-2.925,-2.9513,-2.9136,-2.8716,-2.8041,-2.6551,-2.4179,-2.1899,-2.03,-1.8568,-1.6964,-1.5703,-1.5416,-1.5292,-1.4796,-1.5635,-1.6654,-1.7598,-1.8941,-2.072,-2.3144,-2.3996,-2.4914,-2.6504,-2.7266,-2.7718,-2.7718,-2.8047,-2.8601,0.0,0.0,-3.0016,-2.9355,-3.1286,-3.3066,-3.4337,-3.5715,-3.6405,-3.6405,-3.6405,-3.6405,-3.6392,-3.658,-3.6817,-3.7153,-3.791,-3.8397,-3.8671,-3.9177,0.0,-4.015,-4.1013,-4.1677,-4.2106,-4.1801,-4.1455,-4.0902,-3.9355,-3.8479,-3.7896,0.0,0.0,0.0,0.0,0.0,0.0,0.0,-0.467,-0.4785,-0.5019,-0.5052,-0.4965,-0.4765,-0.4662,-0.5059,0.0,0.0,0.0,0.0,0.0,0.0,0.0,0.0,0.0,0.0,0.0,0.0,-0.8684,-0.8758,0.0,0.0,0.0,0.0,0.0,-1.2761,-1.3107,-1.3342,-1.1475,-1.0842,0.0,0.0,-1.0083,0.0,0.0,0.0,0.0,0.0,-1.2716,-1.4446,-1.5928,-1.8845,-2.2376,-2.5157,-2.7122,-2.8566,-2.9671,-3.0412,-3.0781,-3.0664,-2.9708,-2.8581,-2.7831,-2.5112,-2.1981,-1.9555,-1.7942,-1.634,-1.4264,-1.4355,-1.4648,-1.4192,-1.4738,-1.5614,-1.6689,-1.7499,-1.9032,-2.2011,-2.2843,-2.3877,-2.5869,-2.6943,0.0,-2.7529,-2.8242,0.0,0.0,0.0,0.0,-3.0971,-3.3043,-3.4365,-3.4619,-3.5796,-3.6405,-3.6405,-3.6405,-3.6355,-3.6216,-3.6496,-3.7028,-3.7731,-3.8025,-3.8583,-3.9388,-3.9388,0.0,0.0,-4.1642,-4.252,-4.3218,-4.2545,-4.1946,-4.1215,-3.9469,-3.807,-3.7017,0.0,0.0,0.0,0.0,0.0,0.0,0.0,-0.4631,-0.4752,-0.4887,-0.4908,-0.4897,-0.487,-0.4887,-0.5052,0.0,0.0,0.0,0.0,0.0,0.0,0.0,0.0,0.0,0.0,0.0,0.0,-0.8243,-0.8609,0.0,0.0,0.0,0.0,0.0,0.0,-1.2965,-1.294,-1.1382,0.0,0.0,0.0,0.0,0.0,0.0,0.0,0.0,0.0,-1.1314,-1.2389,-1.4388,-1.6112,-1.8088,-2.2042,-2.5861,-2.9009,-2.9566,-3.0263,-3.0995,-3.1781,-3.1027,-2.9812,-2.8959,-2.6454,-2.364,-2.1457,-1.9097,-1.6854,-1.507,-1.4757,-1.4648,-1.4192,-1.4521,-1.4907,-1.509,-1.6745,-1.8521,-2.0052,-2.1983,-2.3707,-2.5077,0.0,0.0,-2.707,-2.891,0.0,0.0,0.0,0.0,-3.3144,-3.3445,-3.4137,-3.5385,-3.6047,-3.6405,-3.6405,-3.6405,-3.6107,-3.5617,-3.7074,-3.7566,-3.7206,-3.8629,-3.9301,-3.9388,-3.9388,0.0,0.0,-4.1642,-4.252,-4.3218,-4.2545,-4.226,-4.194,-3.9698,-3.8772,-3.8418,0.0,0.0,0.0,0.0,0.0,0.0,-0.4614,-0.4653,-0.4775,-0.4982,-0.5128,-0.5152,-0.5026,-0.5015,-0.5156,-0.5474,0.0,0.0,0.0,0.0,0.0,0.0,0.0,0.0,0.0,0.0,-0.7903,-0.7903,-0.8512,0.0,0.0,0.0,0.0,0.0,0.0,-1.2694,-1.2249,-1.0997,0.0,0.0,0.0,0.0,0.0,0.0,0.0,0.0,0.0,0.0,-1.2324,-1.3411,-1.5337,-1.7553,-1.9094,-2.2454,-2.6174,-2.7981,-2.8997,-2.9721,-3.0276,-2.9974,-2.9228,-2.8379,-2.5898,-2.3164,-2.1269,-1.8939,-1.6729,-1.5276,-1.4755,-1.4445,-1.3997,-1.3969,-1.421,-1.4748,-1.531,-1.6471,-1.8816,-1.9678,-2.1016,-2.3603,-2.4824,0.0,0.0,0.0,0.0,0.0,0.0,0.0,-3.3756,-3.4357,-3.5095,-3.6019,-3.6292,-3.6405,-3.6405,-3.6031,-3.6054,-3.647,-3.7099,-3.7629,-3.8096,-3.9003,-3.9388,-3.9424,-3.9955,0.0,0.0,-4.241,-4.329,-4.3942,-4.277,-4.2286,-4.202,-3.974,-3.887,-3.8703,0.0,0.0,0.0,0.0,0.0,-0.4663,-0.4656,-0.466,-0.4765,-0.4941,-0.5135,-0.5108,-0.4702,-0.4655,-0.4633,-0.4525,-0.4937,0.0,0.0,0.0,0.0,0.0,0.0,0.0,0.0,0.0,-0.7516,-0.7835,-0.8576,-0.9165,0.0,0.0,-1.1634,-1.2219,0.0,0.0,0.0,0.0,0.0,0.0,0.0,0.0,0.0,0.0,0.0,0.0,0.0,0.0,0.0,0.0,0.0,-1.6311,-1.6666,-1.9111,-2.2472,-2.5793,-2.7425,-2.8309,-2.8887,-2.8594,-2.7969,-2.7161,-2.4727,-2.2222,-2.066,-1.8512,-1.6485,-1.5341,-1.4746,-1.4247,-1.38,-1.3616,-1.374,-1.4473,-1.4513,-1.541,-1.8042,-1.8481,-1.9619,-2.2389,0.0,-2.4814,0.0,0.0,0.0,0.0,0.0,0.0,-3.3765,-3.4574,-3.5228,-3.5663,-3.6153,-3.6329,-3.6119,-3.6041,-3.627,-3.6854,-3.7359,-3.7868,-3.8477,-3.9114,-3.9388,-3.9409,-4.006,0.0,0.0,-4.2552,-4.3294,-4.3782,-4.2713,-4.2168,-4.176,-3.9931,-3.9113,-3.8827,0.0,0.0,0.0,0.0,0.0,0.0,-0.4549,-0.4624,-0.4694,-0.4694,-0.4826,-0.4589,-0.3709,-0.3608,-0.324,-0.2322,-0.3622,0.0,0.0,0.0,0.0,0.0,0.0,0.0,0.0,0.0,-0.7132,-0.8195,-0.8871,-0.9211,-0.9239,-1.0355,-1.1134,-1.1543,0.0,0.0,0.0,0.0,0.0,0.0,0.0,0.0,0.0,0.0,0.0,0.0,0.0,0.0,0.0,0.0,0.0,0.0,0.0,-1.6319,-1.8392,-2.3138,-2.5559,-2.6963,-2.811,-2.7447,-2.6201,-2.536,-2.3154,-2.0958,-1.9875,-1.7957,-1.6168,-1.5279,-1.4746,-1.4212,-1.3623,-1.3506,-1.3617,-1.4046,-1.4825,-1.6016,-1.7764,-1.9102,-2.04,0.0,0.0,-2.4141,-2.5047,0.0,0.0,0.0,0.0,0.0,-3.3446,-3.3785,-3.3922,-3.3922,-3.5563,-3.6094,-3.552,-3.6573,-3.684,-3.6305,-3.7928,-3.8371,-3.7843,-3.8907,-3.9388,0.0,0.0,0.0,0.0,-4.1658,-4.2099,-4.2241,-4.2286,-4.1847,-4.1119,-4.0358,-3.9568,-3.8908,0.0,0.0,0.0,0.0,0.0,0.0,0.0,-0.444,-0.4563,-0.4563,-0.423,-0.3912,-0.3637,-0.3137,-0.2716,-0.2427,-0.3191,0.0,0.0,0.0,0.0,0.0,0.0,0.0,0.0,0.0,-0.6886,-0.7458,-0.8621,-0.9317,-0.9568,-1.019,-1.0568,-1.0697,-1.1136,-1.1009,0.0,0.0,0.0,0.0,0.0,0.0,0.0,0.0,0.0,0.0,0.0,0.0,0.0,0.0,0.0,0.0,0.0,0.0,0.0,-1.8541,-2.0783,-2.2713,-2.3526,-2.3124,-2.2249,-2.1328,-1.9932,-1.8596,-1.7945,-1.7039,-1.6239,-1.5982,-1.5209,-1.4559,-1.4357,-1.3634,-1.3408,-1.4414,-1.4805,-1.5596,-1.7334,0.0,0.0,-2.166,-2.4791,-2.7269,0.0,0.0,0.0,0.0,0.0,0.0,-3.3202,-3.3651,-3.4248,-3.4956,-3.5165,-3.5165,-3.4944,-3.5647,-3.6269,-3.6851,-3.8289,-3.9235,-3.9829,-4.0743,-4.1196,0.0,0.0,0.0,0.0,-4.262,-4.2684,-4.2215,-4.175,-4.1407,-4.1119,-4.0383,-3.9927,-3.9731,0.0,0.0,0.0,0.0,0.0,0.0,0.0,-0.4368,-0.4491,-0.4491,-0.4176,-0.3709,-0.3135,-0.2674,-0.216,-0.1613,-0.2372,0.0,0.0,0.0,0.0,0.0,0.0,0.0,-0.4869,-0.5737,-0.6507,-0.7179,-0.8109,-0.8826,-0.9354,-0.9681,-0.9981,-1.03,-1.0506,-1.0145,0.0,0.0,0.0,0.0,0.0,0.0,-0.7858,0.0,0.0,0.0,0.0,0.0,0.0,0.0,0.0,0.0,0.0,0.0,0.0,0.0,-1.6886,-1.846,-1.987,-1.9946,-1.9434,-1.8776,-1.7787,-1.6951,-1.6603,-1.6018,-1.5581,-1.5581,-1.4928,-1.4348,-1.4272,-1.37,-1.3471,-1.4194,-1.4651,-1.5372,-1.6723,0.0,0.0,-2.1846,0.0,0.0,0.0,0.0,0.0,0.0,0.0,0.0,-3.3339,-3.352,-3.3997,-3.4856,-3.4756,-3.4792,-3.4996,-3.5748,-3.662,-3.7714,-3.9069,-4.0047,-4.0724,-4.1593,-4.1997,0.0,0.0,0.0,0.0,-4.2297,-4.2071,-4.1389,-4.1494,-4.134,-4.1066,-4.0838,-4.0744,-4.0713,0.0,0.0,0.0,0.0,0.0,0.0,0.0,-0.4368,-0.4487,-0.4474,-0.4457,-0.3871,-0.2417,-0.2173,-0.1563,-0.0196,0.0,0.0,0.0,0.0,0.0,0.0,0.0,0.0,-0.5406,-0.5487,-0.6057,-0.723,-0.7409,-0.7933,-0.8761,-0.8893,-0.937,-1.01,-1.0079,-0.9511,-0.8469,-0.7111,-0.6118,-0.5515,-0.5515,-0.5955,0.0,0.0,0.0,0.0,0.0,0.0,0.0,0.0,0.0,0.0,0.0,0.0,0.0,0.0,0.0,0.0,0.0,-1.7671,-1.7588,-1.7168,-1.6498,-1.588,-1.5608,-1.4976,0.0,-1.4423,-1.4086,-1.3769,-1.3635,-1.3742,-1.3817,-1.3696,-1.4566,-1.5488,0.0,-1.7764,0.0,0.0,-2.3855,0.0,0.0,0.0,0.0,0.0,0.0,0.0,-3.362,-3.3301,-3.3319,-3.3822,-3.4343,-3.4881,-3.5373,-3.6484,-3.7599,-3.8683,-4.0051,-4.0754,-4.0834,-4.1628,-4.2028,0.0,0.0,0.0,0.0,-4.0991,-4.06,-4.0117,-4.1483,-4.1579,-4.1041,-4.1599,-4.181,-4.1707,0.0,0.0,0.0,0.0,0.0,0.0,0.0,0.0,0.0,0.0,-0.3926,-0.3451,-0.2935,-0.198,-0.1229,0.0,0.0,0.0,0.0,0.0,0.0,0.0,0.0,0.0,-0.4732,-0.5246,-0.5808,-0.646,-0.7254,-0.7874,-0.8342,-0.8361,-0.8306,-0.8152,-0.7935,-0.7564,-0.7031,-0.614,-0.5651,-0.5515,-0.5515,-0.5955,0.0,0.0,0.0,0.0,-0.8884,-0.9024,0.0,0.0,0.0,0.0,0.0,0.0,0.0,0.0,-1.3428,-1.3312,-1.3919,0.0,-1.4463,-1.4069,-1.4138,-1.4335,0.0,-1.4454,-1.4633,-1.4633,-1.4195,-1.3983,-1.4615,-1.4554,-1.4644,-1.5368,-1.6178,-1.6896,-1.7462,0.0,0.0,-2.4621,-2.6051,0.0,0.0,0.0,0.0,0.0,0.0,-3.0407,-3.1769,-3.263,-3.3174,-3.3269,-3.3694,-3.4003,-3.4133,-3.5762,-3.7123,-3.8246,-4.0071,-4.1235,-4.1878,-4.2104,-4.2239,0.0,0.0,0.0,-4.1126,-4.1147,-4.0959,-4.0693,-4.1039,-4.1353,-4.1599,-4.175,-4.181,-4.1789,0.0,0.0,0.0,0.0,0.0,0.0,0.0,0.0,0.0,0.0,0.0,0.0,0.0,0.0,0.0,0.0,0.0,0.0,0.0,0.0,0.0,0.0,0.0,-0.4491,-0.4491,-0.4866,-0.5262,-0.5678,-0.633,-0.7002,-0.7697,-0.7298,-0.7242,-0.7453,-0.671,-0.6267,-0.6064,-0.5678,-0.5324,-0.5058,-0.5378,0.0,0.0,0.0,0.0,0.0,-0.8804,-0.8884,0.0,-0.9171,-0.9391,-0.9802,0.0,0.0,0.0,0.0,-1.2572,-1.2476,-1.2798,-1.3184,-1.3447,-1.3223,-1.3417,-1.3652,-1.3652,-1.3779,-1.386,-1.386,-1.361,-1.3585,-1.4236,-1.4438,-1.4728,-1.5398,-1.6413,0.0,0.0,0.0,-2.2626,-2.4568,0.0,0.0,0.0,0.0,0.0,0.0,0.0,-2.9269,-3.0509,-3.2101,-3.2959,-3.2959,-3.3608,-3.4109,-3.4418,-3.5912,-3.7242,-3.8363,-4.015,-4.1239,-4.1675,-4.2087,-4.2286,0.0,0.0,0.0,-4.1569,-4.1218,-4.116,-4.1335,-4.1621,-4.1916,-4.2244,-4.2483,-4.2581,-4.2542,0.0,0.0,0.0,0.0,0.0,0.0,0.0,0.0,0.0,0.0,0.0,0.0,0.0,0.0,0.0,0.0,0.0,0.0,0.0,0.0,0.0,0.0,-0.4491,-0.4491,-0.4491,-0.4491,-0.4689,-0.5032,-0.514,-0.5675,-0.6612,-0.5797,-0.5976,-0.6875,-0.5702,-0.5242,-0.5351,-0.5351,-0.503,-0.457,-0.5218,0.0,0.0,0.0,0.0,0.0,0.0,0.0,0.0,-0.9064,-0.8984,-0.8977,-0.9916,0.0,0.0,0.0,0.0,0.0,-1.2412,-1.3045,-1.3523,-1.3432,-1.3457,-1.3486,-1.3428,-1.3135,-1.2905,-1.2905,-1.2954,-1.315,-1.3613,-1.4261,-1.4795,0.0,0.0,0.0,-1.9938,-2.0937,-2.2019,-2.3516,0.0,0.0,0.0,0.0,0.0,0.0,0.0,-2.8189,-2.9454,-3.1448,-3.262,-3.2778,-3.3929,-3.485,-3.5404,-3.6474,-3.7633,-3.8857,-4.0209,-4.0904,-4.1047,-4.1671,-4.2027,-4.2055,0.0,0.0,-4.2009,-4.1337,-4.1402,-4.1979,-4.25,-4.275,-4.2883,-4.3321,-4.3515,-4.3427,0.0,0.0,0.0,0.0,0.0,0.0,0.0,0.0,0.0,0.0,0.0,0.0,0.0,0.0,0.0,0.0,0.0,0.0,0.0,0.0,0.0,-0.4491,-0.4491,-0.4491,-0.4491,-0.4491,-0.4586,-0.4758,-0.4397,-0.4303,-0.4461,-0.3982,-0.3994,-0.4362,-0.3926,-0.4067,-0.4653,-0.4653,-0.4598,-0.457,-0.5218,0.0,0.0,0.0,0.0,0.0,0.0,0.0,0.0,-0.8858,-0.8844,-0.8917,-0.9646,0.0,0.0,0.0,0.0,0.0,-1.1099,-1.2405,-1.3635,-1.3117,-1.3242,-1.3418,-1.3057,-1.2954,-1.2905,-1.2905,-1.3164,-1.3652,-1.4443,-1.5449,-1.6226,0.0,0.0,-1.9553,0.0,0.0,-2.2896,0.0,0.0,0.0,0.0,0.0,0.0,0.0,0.0,-2.7051,-2.8145,-3.028,-3.184,-3.2778,-3.4725,-3.5785,-3.5888,-3.6725,-3.8089,-3.9866,-4.0114,-4.0575,-4.1139,-4.0645,-4.0701,-4.1125,0.0,-4.1301,-4.1837,-4.1717,-4.2018,-4.2577,-4.2655,-4.2976,-4.3392,-4.3462,-4.3515,-4.3497,0.0,0.0,0.0,0.0,0.0,0.0,0.0,0.0,0.0,0.0,0.0,0.0,0.0,0.0,0.0,0.0,0.0,0.0,0.0,0.0,-0.4491,-0.4491,-0.4491,-0.4491,-0.4491,-0.4651,-0.4823,-0.5085,-0.5002,-0.4756,-0.4364,-0.3462,-0.2788,-0.2378,-0.304,-0.3539,-0.3873,-0.4322,-0.4491,-0.457,0.0,0.0,0.0,0.0,0.0,0.0,0.0,0.0,0.0,0.0,-0.8804,-0.8778,-0.8699,0.0,0.0,0.0,0.0,0.0,-1.0577,-1.1677,-1.2464,-1.212,-1.3277,-1.4482,-1.4287,-1.3887,-1.3623,-1.3857,-1.4062,-1.4316,-1.4745,0.0,-1.7006,-1.8228,0.0,-2.0458,-2.1709,-2.2217,0.0,0.0,0.0,0.0,0.0,0.0,0.0,0.0,0.0,0.0,-2.6195,-2.8812,-3.0585,-3.1279,-3.3679,-3.5269,-3.5826,-3.697,-3.8177,-3.9446,-3.9882,-4.0282,-4.0578,-4.0265,-4.0229,-4.0473,0.0,-4.1246,-4.1832,-4.2142,-4.2637,-4.3124,-4.3124,-4.3268,-4.3515,-4.3515,-4.3515,-4.3515,0.0,0.0,0.0,0.0,0.0,0.0,0.0,0.0,0.0,0.0,0.0,0.0,0.0,0.0,0.0,0.0,0.0,0.0,0.0,-0.4235,-0.4294,-0.4491,-0.4322,-0.4338,-0.4542,-0.4745,-0.4992,-0.5289,-0.5306,-0.4826,-0.3875,-0.2804,-0.1884,-0.1144,-0.2463,-0.3148,-0.3345,-0.4153,-0.4491,-0.457,0.0,0.0,0.0,0.0,0.0,0.0,0.0,0.0,0.0,0.0,0.0,0.0,0.0,0.0,0.0,-0.833,-0.8587,-0.896,-1.0031,-1.0969,-1.1554,-1.1204,-1.2801,-1.4535,-1.471,-1.444,-1.4323,-1.4888,-1.5313,-1.5478,-1.5273,-1.6143,0.0,-1.9453,-2.0215,-2.0918,-2.1758,0.0,0.0,0.0,0.0,0.0,0.0,0.0,0.0,0.0,0.0,0.0,-2.4787,-2.7437,-2.924,-2.999,-3.2706,-3.4678,-3.5683,-3.7281,-3.8361,-3.8917,-3.9724,-4.0096,-4.0096,-4.0096,-4.0171,-4.0311,-4.0874,-4.1446,-4.2059,-4.2637,-4.3142,-4.3515,-4.3515,-4.3515,-4.3515,-4.3515,-4.3515,-4.3515,0.0,0.0,0.0,0.0,0.0,0.0,0.0,0.0,0.0,0.0,0.0,0.0,0.0,0.0,0.0,0.0,0.0,0.0,0.0,-0.3785,-0.3707,-0.446,-0.3846,-0.3848,-0.467,-0.4697,-0.4789,-0.4952,-0.427,-0.3114,-0.1542,-0.132,-0.1183,-0.1143,-0.1925,-0.2649,-0.3345,-0.4153,-0.4491,-0.457,-0.5218,0.0,0.0,0.0,0.0,0.0,0.0,0.0,0.0,0.0,0.0,0.0,0.0,0.0,-0.7696,-0.7744,-0.8256,-0.8804,-0.891,-1.0474,-1.1831,-1.0818,-1.1156,-1.1965,-1.2658,-1.3622,-1.4629,-1.5468,-1.6754,-1.7539,-1.6707,-1.7002,-1.7773,-1.9111,-2.0067,-2.0918,0.0,0.0,0.0,0.0,0.0,0.0,0.0,0.0,0.0,0.0,0.0,0.0,-2.4745,-2.6394,-2.8099,-2.9928,-3.2836,-3.4804,-3.5694,-3.7834,-3.8931,-3.8999,-3.9749,-4.0096,-4.0096,-4.0096,-4.0368,-4.0897,-4.1468,-4.208,-4.2674,-4.3214,-4.348,-4.3515,-4.3515,-4.3515,-4.3515,-4.3515,-4.3515,-4.3515,0.0,0.0,0.0,0.0,0.0,0.0,0.0,0.0,0.0,0.0,0.0,0.0,0.0,0.0,0.0,0.0,0.0,0.0,0.0,-0.3929,-0.3959,-0.3763,-0.3959,-0.4275,-0.4687,-0.4782,-0.486,-0.4887,-0.4169,-0.3479,-0.2838,-0.2112,-0.1527,-0.1138,-0.188,-0.2343,-0.2676,-0.3483,-0.407,-0.457,-0.5218,-0.5678,0.0,0.0,0.0,0.0,0.0,0.0,0.0,0.0,-0.8315,-0.7616,-0.7155,-0.702,-0.702,-0.702,-0.753,-0.8209,-0.8672,-0.9694,-1.045,-0.9854,-1.0172,-1.1145,-1.3083,-1.4519,-1.56,-1.6052,-1.717,-1.7898,-1.731,0.0,-1.8193,-1.9473,-2.0176,0.0,0.0,0.0,0.0,0.0,0.0,0.0,0.0,0.0,0.0,0.0,0.0,0.0,0.0,-2.4785,-2.6451,-2.7901,-3.114,-3.3344,-3.4382,-3.6538,-3.7642,-3.7658,-3.9317,-4.0096,-4.0121,-4.0449,-4.0726,-4.0949,-4.1937,-4.2174,-4.1955,-4.2519,-4.2745,-4.2745,-4.2745,-4.2745,-4.2745,-4.2745,-4.2745,-4.2818,0.0,0.0,0.0,0.0,0.0,0.0,0.0,0.0,0.0,0.0,0.0,0.0,0.0,0.0,0.0,0.0,0.0,0.0,-0.3707,-0.3987,-0.3901,-0.3317,-0.3818,-0.4172,-0.4298,-0.4601,-0.4823,-0.4887,-0.4344,-0.395,-0.372,-0.2928,-0.2207,-0.156,-0.2242,-0.2579,-0.2689,-0.3444,-0.4042,-0.457,-0.5218,-0.5515,0.0,0.0,0.0,0.0,0.0,0.0,0.0,0.0,-0.8315,-0.7616,-0.7101,-0.6939,-0.6939,-0.6939,-0.7477,-0.8156,-0.8672,-0.9262,-0.9701,-0.9646,-1.0272,-1.1424,-1.3467,-1.5104,-1.6341,-1.6907,-1.7494,-1.7939,-1.8053,0.0,0.0,0.0,0.0,0.0,0.0,0.0,0.0,0.0,0.0,0.0,0.0,0.0,0.0,0.0,0.0,0.0,0.0,-2.4012,-2.5613,-2.6836,-3.0018,-3.2307,-3.3564,-3.5726,-3.6795,-3.6829,-3.8969,-4.0002,-4.0044,-4.0629,-4.0874,-4.0857,-4.1868,-4.1808,-4.1106,-4.1952,-4.2451,-4.2671,-4.2671,-4.2525,-4.2323,-4.2598,-4.2359,-4.2047,0.0,0.0,0.0,0.0,0.0,0.0,0.0,0.0,0.0,0.0,0.0,0.0,0.0,0.0,0.0,0.0,0.0,0.0,-0.4491,-0.3818,-0.3372,-0.3314,-0.3314,-0.3345,-0.34,-0.4125,-0.4613,-0.4884,-0.4762,-0.4336,-0.36,-0.3483,-0.3093,-0.2517,-0.3056,-0.3408,-0.3624,-0.4244,-0.4491,-0.4543,-0.5218,-0.5483,-0.5615,0.0,0.0,0.0,0.0,0.0,0.0,0.0,-0.8315,-0.7696,-0.7696,-0.7696,-0.7696,-0.7696,-0.8209,-0.8804,-0.8804,-0.929,-0.9903,-1.0386,-1.1551,-1.2755,-1.3379,-1.5001,-1.6807,-1.8128,-1.792,-1.7868,-1.9068,-1.8603,0.0,-1.8529,0.0,0.0,0.0,0.0,0.0,0.0,0.0,0.0,0.0,0.0,0.0,0.0,0.0,0.0,0.0,-2.4362,-2.5767,-2.7254,-2.9905,-3.2,-3.3498,-3.5685,-3.6801,-3.6835,-3.8837,-3.9799,-3.9811,-4.0556,-4.0787,-4.0639,-4.1165,-4.0942,-4.0311,-4.1715,-4.2745,-4.3478,-4.3478,-4.2983,-4.2378,-4.3167,-4.2451,-4.1187,0.0,0.0,0.0,0.0,0.0,0.0,0.0,0.0,0.0,0.0,0.0,0.0,0.0,0.0,0.0,0.0,0.0,0.0,-0.3763,-0.4015,-0.3929,-0.34,-0.3873,-0.4153,-0.4181,-0.3876,-0.4027,-0.4627,-0.458,-0.4444,-0.4244,-0.4203,-0.3783,-0.3081,-0.3218,-0.3335,-0.3393,-0.3638,-0.3707,-0.3677,-0.3868,-0.3641,-0.3335,0.0,0.0,0.0,0.0,0.0,0.0,0.0,0.0,0.0,-0.7696,-0.7696,-0.7696,-0.7696,-0.8209,-0.8804,-0.8804,-0.9262,-0.9771,-0.9889,-1.104,-1.2452,-1.3799,-1.5662,-1.7582,-1.9208,-1.8894,-1.844,-1.883,-1.8447,0.0,0.0,0.0,0.0,0.0,0.0,0.0,0.0,0.0,0.0,0.0,0.0,0.0,0.0,0.0,0.0,0.0,-2.3379,-2.4877,-2.6747,-2.9569,-3.1998,-3.4035,-3.5452,-3.6457,-3.7093,-3.8213,-3.8821,-3.9015,-4.0548,-4.0919,-4.0358,-4.0942,-4.0731,-4.0017,-4.0439,-4.0744,-4.0965,-4.0965,-4.0818,-4.0634,-4.0873,-4.0671,-4.0377,0.0,0.0,0.0,0.0,0.0,0.0,0.0,0.0,0.0,0.0,-0.3754,-0.3917,0.0,0.0,0.0,0.0,0.0,0.0,0.0,-0.4267,-0.4042,-0.2982,-0.3929,-0.4349,-0.4042,-0.3624,-0.3456,-0.3594,-0.3873,-0.4181,-0.4491,-0.4491,-0.4268,-0.3866,-0.3814,-0.3819,-0.3837,-0.3504,-0.3345,-0.3314,-0.2982,-0.2591,-0.2341,0.0,0.0,0.0,0.0,0.0,0.0,0.0,0.0,0.0,-0.8129,-0.8129,-0.8129,-0.8129,-0.8454,-0.8804,-0.8804,-0.8948,-0.9223,-0.9701,-1.0856,-1.252,-1.5133,-1.6868,-1.8395,-1.9976,-1.9433,-1.8859,-1.9344,-1.8831,0.0,0.0,0.0,0.0,0.0,0.0,0.0,0.0,0.0,0.0,0.0,0.0,0.0,0.0,0.0,0.0,0.0,-2.3497,-2.5118,-2.6813,-2.98,-3.2144,-3.3768,-3.4871,-3.5684,-3.6216,-3.7519,-3.787,-3.7455,-3.9834,-4.0619,-4.0089,-4.0119,-4.0047,-3.99,-3.99,-4.0084,-4.0377,-4.0377,-4.0175,-3.9937,-4.0267,-3.9974,-3.9533,0.0,0.0,0.0,0.0,0.0,0.0,0.0,0.0,0.0,0.0,-0.3765,-0.392,0.0,0.0,0.0,0.0,0.0,0.0,0.0,0.0,-0.3873,-0.2482,-0.3763,-0.4125,-0.3317,-0.3372,-0.3037,-0.2286,-0.3037,-0.3735,-0.4405,-0.446,-0.4563,-0.4663,-0.4552,-0.4566,-0.4631,-0.3699,-0.3287,-0.3231,-0.2425,-0.2063,-0.2093,-0.2954,0.0,0.0,0.0,0.0,0.0,0.0,0.0,0.0,-0.8672,-0.8646,-0.8586,-0.8586,-0.8586,-0.8586,-0.8586,-0.8407,-0.8509,-0.9675,-1.0987,-1.2941,-1.6672,-1.8126,-1.9109,-2.0433,0.0,-1.9152,-2.0362,-1.9496,0.0,0.0,0.0,0.0,0.0,0.0,0.0,0.0,0.0,0.0,0.0,0.0,0.0,0.0,0.0,0.0,0.0,-2.428,-2.5936,-2.7208,-3.0311,-3.2288,-3.2955,-3.4146,-3.4765,-3.4854,-3.6821,-3.6987,-3.5688,-3.8759,-4.0034,-3.9753,-3.8946,-3.9001,-3.9696,-3.9753,-4.0175,-4.0783,-4.0838,-4.0432,-3.9882,-4.06,-3.9958,-3.8799,0.0,0.0,0.0,0.0,0.0,0.0,0.0,0.0,0.0,0.0,0.0,0.0,0.0,0.0,0.0,0.0,0.0,0.0,0.0,0.0,-0.4349,-0.4015,-0.4322,-0.4153,-0.34,-0.34,-0.3289,-0.3065,-0.3846,-0.4015,-0.3566,-0.4208,-0.4508,-0.4539,-0.4505,-0.4508,-0.4479,-0.366,-0.2982,-0.2397,-0.1647,-0.0978,-0.0615,-0.1952,-0.2536,0.0,0.0,0.0,0.0,0.0,0.0,0.0,-0.775,-0.753,-0.7074,-0.7074,-0.7074,-0.7074,-0.7074,-0.7785,-0.8699,-0.9436,-1.1426,-1.3768,-1.5827,-1.7193,-1.849,-2.0257,-1.9907,-1.952,-2.042,-1.9277,0.0,0.0,0.0,0.0,0.0,0.0,0.0,0.0,0.0,0.0,0.0,0.0,0.0,0.0,0.0,0.0,-2.2984,-2.4091,-2.5409,-2.6931,-2.9496,-3.1429,-3.2664,-3.4179,-3.5275,0.0,-3.6419,-3.6464,-3.6226,-3.8786,-3.9603,-3.8909,-3.8102,-3.786,-3.8062,-3.8707,-3.8689,-3.8355,-3.8964,-3.9111,-3.8982,-3.9148,-3.9001,-3.8726,0.0,0.0,0.0,0.0,0.0,0.0,0.0,0.0,0.0,0.0,0.0,0.0,0.0,0.0,0.0,0.0,0.0,0.0,0.0,0.0,-0.4491,-0.4491,-0.379,-0.3372,-0.3345,-0.3372,-0.3206,-0.276,-0.3929,-0.4294,-0.3873,-0.4294,-0.4491,-0.4491,-0.4491,-0.4491,-0.446,-0.368,-0.3121,-0.2704,-0.1925,-0.1396,-0.1174,-0.2343,-0.2788,-0.2982,-0.4474,0.0,0.0,0.0,0.0,0.0,0.0,0.0,-0.6588,-0.6588,-0.6588,-0.6588,-0.6588,-0.6966,-0.77,-0.9053,-1.0609,-1.2416,-1.4832,-1.6267,-1.7477,-1.8722,-1.9314,-1.9635,-1.9644,0.0,0.0,0.0,0.0,0.0,0.0,0.0,0.0,0.0,0.0,0.0,0.0,0.0,0.0,0.0,0.0,-2.1073,-2.2762,-2.3867,-2.5228,-2.694,-2.8982,-3.0693,-3.2016,-3.3081,-3.4114,-3.511,-3.5495,-3.5899,-3.634,-3.7588,-3.7955,-3.7533,-3.7125,-3.6942,-3.696,-3.7386,-3.7533,-3.7492,-3.7533,-3.8028,-3.8652,-3.8267,-3.8377,-3.8719,0.0,0.0,0.0,0.0,0.0,0.0,0.0,0.0,0.0,0.0,0.0,0.0,0.0,0.0,0.0,0.0,0.0,0.0,0.0,0.0,0.0,-0.4491,-0.3289,-0.2871,-0.3483,-0.3566,-0.3262,-0.2593,-0.3873,-0.4505,-0.4528,-0.4501,-0.4491,-0.4491,-0.4491,-0.4491,-0.446,-0.3707,-0.3372,-0.3317,-0.2508,-0.2202,-0.2286,-0.3095,-0.3372,-0.3483,-0.4236,-0.4866,-0.5351,-0.546,0.0,0.0,0.0,0.0,-0.6236,-0.6236,-0.6236,-0.6236,-0.6236,-0.614,-0.6564,-0.8683,-0.9548,-1.0699,-1.363,-1.5241,-1.6215,-1.6714,-1.8269,-1.9346,0.0,0.0,0.0,0.0,0.0,0.0,0.0,0.0,0.0,0.0,0.0,0.0,0.0,0.0,0.0,0.0,0.0,-2.0387,-2.252,-2.379,-2.525,-2.698,-2.8528,-2.9865,-3.0989,-3.165,-3.2452,-3.3385,-3.405,-3.4821,-3.5661,-3.5661,-3.5881,-3.6285,-3.6138,-3.6083,-3.6083,-3.6229,-3.6597,-3.7015,-3.6486,-3.7202,-3.8414,-3.7749,-3.8025,-3.875,0.0,0.0,0.0,0.0,0.0,0.0,0.0,0.0,0.0,0.0,-0.2637,-0.2186,0.0,0.0,0.0,0.0,0.0,0.0,-0.34,0.0,0.0,-0.4491,-0.4294,-0.4236,-0.4349,-0.4349,-0.4294,-0.4184,-0.4405,-0.4559,-0.4657,-0.4552,-0.4491,-0.4491,-0.4491,-0.4491,-0.446,-0.3649,-0.3314,-0.3262,-0.2508,-0.2202,-0.2286,-0.3037,-0.3314,-0.3428,-0.4208,-0.457,-0.4732,-0.5296,-0.5191,0.0,0.0,0.0,-0.4791,-0.4791,-0.4791,-0.4791,-0.4791,-0.5542,-0.6748,-0.8433,-0.961,-1.069,-1.2046,0.0,-1.484,0.0,-1.6821,0.0,0.0,0.0,0.0,0.0,0.0,0.0,0.0,0.0,0.0,0.0,0.0,0.0,0.0,0.0,0.0,0.0,-2.0808,-2.1883,-2.313,-2.4191,-2.5371,-2.6708,-2.7698,-2.8599,-2.939,-3.0785,-3.1567,-3.1727,-3.1825,-3.2302,-3.3078,-3.3078,-3.4284,-3.6266,-3.55,-3.5169,-3.5224,-3.5991,-3.5917,-3.5408,-3.6046,-3.6868,-3.7658,-3.7547,-3.8025,-3.875,0.0,0.0,0.0,0.0,0.0,0.0,0.0,0.0,0.0,0.0,0.0,-0.2473,0.0,0.0,0.0,-0.2811,-0.2843,-0.3148,-0.3929,-0.4294,-0.4491,-0.4491,-0.4491,-0.4491,-0.4491,-0.4869,-0.5054,-0.5054,-0.5054,-0.5096,-0.5142,-0.4777,-0.4665,-0.4718,-0.4718,-0.4926,-0.5197,-0.4729,-0.4525,-0.4498,-0.4189,-0.3837,-0.3511,-0.3846,-0.3984,-0.407,-0.4807,-0.4814,-0.4598,-0.5273,-0.5054,-0.4543,-0.4842,0.0,0.0,0.0,-0.4759,-0.5035,-0.4973,-0.5128,-0.5649,-0.7021,-0.7656,-0.8511,-1.0659,-1.2003,-1.3076,-1.389,0.0,0.0,0.0,0.0,0.0,0.0,0.0,0.0,0.0,0.0,0.0,0.0,0.0,0.0,0.0,0.0,0.0,0.0,-2.0222,-2.1261,-2.2941,-2.3399,-2.4381,-2.6032,-2.6449,-2.743,-2.9071,-2.9775,-3.0544,-3.1397,-3.1397,-3.1586,-3.1935,-3.1935,-3.2779,-3.4229,-3.4289,-3.4325,-3.4362,-3.4743,-3.4931,-3.4986,-3.4926,-3.5954,-3.7456,-3.6997,-3.7624,-3.878,0.0,0.0,0.0,0.0,0.0,0.0,0.0,0.0,0.0,0.0,0.0,0.0,0.0,0.0,0.0,0.0,-0.3037,-0.3425,-0.4398,-0.4814,-0.5034,-0.5034,-0.5034,-0.5034,-0.5034,-0.5519,-0.5787,-0.5787,-0.5787,-0.5814,-0.5835,-0.5301,-0.5188,-0.5453,-0.5235,-0.5357,-0.5717,-0.5771,-0.5787,-0.5783,-0.5703,-0.5423,-0.5027,-0.4885,-0.4904,-0.5081,-0.5514,-0.54,-0.5089,-0.5406,-0.5164,-0.4759,-0.4759,-0.4759,0.0,0.0,0.0,-0.5747,-0.5614,-0.5171,-0.5006,-0.6033,-0.6307,-0.6927,0.0,0.0,-1.1645,0.0,0.0,0.0,0.0,0.0,0.0,0.0,0.0,0.0,0.0,0.0,0.0,0.0,0.0,0.0,0.0,0.0,0.0,0.0,-2.006,-2.0971,-2.2674,-2.285,-2.3626,-2.5271,-2.5245,-2.6154,-2.817,-2.8566,-2.9561,-3.1091,-3.0889,-3.0889,-3.1103,-3.1103,-3.1421,-3.2051,-3.3054,-3.3605,-3.3807,-3.3807,-3.4156,-3.4637,-3.4027,-3.5055,-3.678,-3.6193,-3.6872,-3.8221,0.0,0.0,0.0,0.0,0.0,0.0,0.0,0.0,0.0,0.0,0.0,0.0,-0.3093,-0.2567,-0.2199,-0.2258,-0.2258,-0.2864,-0.4316,-0.5728,-0.648,-0.648,-0.648,0.0,-0.648,-0.6534,-0.6534,-0.6534,-0.6534,-0.6634,-0.6809,-0.6214,-0.631,-0.6933,-0.6126,-0.5652,-0.5555,-0.6258,-0.6534,-0.6514,-0.6269,-0.6283,-0.6431,-0.5936,-0.6033,-0.645,-0.6233,-0.6293,-0.6394,-0.5733,-0.5487,-0.546,-0.546,-0.546,-0.5597,0.0,0.0,0.0,-0.639,-0.5906,-0.5628,-0.6381,-0.6824,-0.731,0.0,0.0,0.0,0.0,0.0,0.0,0.0,0.0,0.0,0.0,0.0,0.0,0.0,0.0,0.0,0.0,0.0,0.0,0.0,0.0,0.0,0.0,-2.1303,-2.2134,-2.2684,-2.312,-2.3733,-2.4525,-2.4242,-2.4611,-2.5685,-2.7139,-2.8682,-3.0246,-2.9482,-2.9519,-3.0265,-3.0265,-3.0283,-3.0411,-3.1977,-3.3096,-3.3807,-3.3807,-3.3825,-3.3862,-3.3825,-3.4325,-3.5133,-3.5078,-3.5628,-3.6619,0.0,0.0,0.0,0.0,0.0,0.0,0.0,0.0,0.0,0.0,0.0,0.0,0.0,-0.4538,-0.4732,-0.4344,-0.4738,-0.5257,-0.5778,-0.6308,-0.6588,-0.6588,-0.6588,-0.6588,-0.6588,-0.7074,-0.7316,-0.7316,-0.7316,-0.7333,-0.7395,-0.6839,-0.664,-0.675,-0.6193,-0.6336,-0.7046,-0.7242,-0.7316,-0.7272,-0.7023,-0.6685,-0.6321,-0.6136,-0.6171,-0.6425,-0.6965,-0.6919,-0.6642,-0.6853,-0.6605,-0.6199,-0.6199,-0.6199,-0.634,-0.7101,-0.7272,-0.7327,-0.767,-0.7246,-0.6736,-0.6843,-0.6968,-0.728,-0.7916,-0.913,-1.0377,0.0,0.0,0.0,0.0,0.0,0.0,0.0,0.0,0.0,0.0,0.0,0.0,0.0,0.0,0.0,0.0,0.0,0.0,0.0,0.0,-2.1944,-2.2417,-2.2596,-2.3038,-2.378,-2.3689,-2.4227,-2.5495,-2.6527,-2.7585,-2.865,-2.8374,-2.865,-2.9427,-2.9427,-2.9702,-3.0228,-3.0815,-3.1513,-3.2302,-3.2816,-3.2871,-3.2728,-3.3492,-3.4132,-3.4636,-3.4902,-3.5555,-3.6407,0.0,0.0,0.0,0.0,0.0,0.0,0.0,0.0,0.0,-0.4485,0.0,0.0,0.0,0.0,-0.6317,-0.5914,-0.6556,-0.6966,-0.6966,-0.7208,-0.7444,-0.7673,-0.7471,-0.7444,-0.7673,-0.7931,-0.8076,-0.8076,-0.8076,-0.8076,-0.8049,-0.7685,-0.7455,-0.7333,-0.7258,-0.7452,-0.7842,-0.8009,-0.8076,-0.8051,-0.7781,-0.744,-0.7043,-0.6856,-0.689,-0.7137,-0.7594,-0.7518,-0.7235,-0.7353,-0.7189,-0.6915,-0.6849,-0.7068,-0.7423,-0.791,-0.8204,-0.8404,-0.8659,-0.8358,-0.7944,-0.7862,-0.7697,-0.771,-0.8315,0.0,-1.0226,0.0,0.0,0.0,0.0,0.0,0.0,0.0,0.0,0.0,0.0,0.0,0.0,0.0,0.0,0.0,0.0,0.0,0.0,0.0,0.0,0.0,-2.2282,-2.2296,-2.2516,-2.3021,-2.3229,-2.391,-2.5118,-2.5837,-2.6594,-2.7402,-2.7402,-2.7824,-2.8601,-2.8601,-2.9042,-2.9794,-2.9794,-3.0411,-3.1458,-3.2117,-3.2242,-3.2116,-3.3184,-3.3764,-3.4039,-3.4457,-3.4963,-3.5533,0.0,0.0,0.0,0.0,0.0,0.0,0.0,0.0,-0.5587,-0.5187,0.0,0.0,0.0,0.0,0.0,-0.6669,-0.7316,-0.7723,-0.7723,-0.8427,-0.9106,-0.9762,-0.9185,-0.9159,-0.9814,-0.9185,-0.8831,-0.8831,-0.8811,-0.8804,-0.8831,-0.8758,-0.8784,-0.8883,-0.9478,-0.9011,-0.7851,-0.856,-0.8857,-0.883,-0.8567,-0.8621,-0.8783,-0.8205,-0.8322,-0.8744,-0.8156,-0.8136,-0.8248,-0.72,-0.7217,-0.7626,-0.7441,-0.8049,-0.8831,-0.8811,-0.9309,-0.9765,0.0,0.0,0.0,-0.9461,0.0,0.0,-0.9357,0.0,0.0,0.0,0.0,0.0,0.0,0.0,0.0,0.0,0.0,0.0,0.0,0.0,0.0,0.0,0.0,0.0,0.0,0.0,0.0,0.0,-2.2032,-2.2296,-2.2296,-2.2296,-2.231,-2.231,-2.2895,-2.3572,-2.4371,-2.503,-2.5778,-2.6547,-2.6583,-2.7016,-2.778,-2.7805,-2.8246,-2.8968,-2.8987,-2.9886,-3.1372,-3.1755,-3.1924,-3.2,-3.2805,-3.313,-3.3192,-3.3602,-3.377,-3.3952,0.0,0.0,0.0,0.0,0.0,-0.6066,-0.6092,-0.6152,-0.6197,0.0,0.0,0.0,-0.6536,-0.7036,-0.761,-0.8156,-0.8374,-0.8507,-0.8507,-0.9152,-0.9614,-0.9788,-1.009,-1.0338,-1.0517,-0.9865,-0.951,-0.951,-0.9035,-0.9035,-0.951,-0.9496,-0.9773,-1.0236,-1.0424,-1.0519,-1.0579,-1.0348,-1.0244,-1.0212,-0.9943,-0.9889,-0.9927,-0.9787,-0.9526,-0.9235,-0.926,-0.8893,-0.8357,-0.8071,-0.8371,-0.8921,-0.9068,-0.9308,-0.9439,-0.8936,-0.9969,-1.1056,-1.0165,0.0,0.0,0.0,0.0,0.0,0.0,0.0,0.0,0.0,0.0,0.0,0.0,0.0,0.0,0.0,0.0,0.0,0.0,0.0,0.0,0.0,0.0,0.0,0.0,0.0,0.0,0.0,-2.2223,-2.2296,-2.2296,-2.2296,-2.2388,-2.2573,-2.2989,-2.3412,-2.3878,-2.4324,-2.4934,-2.5742,-2.6319,-2.6722,-2.6979,-2.8143,-2.8473,-2.8154,-2.8748,-2.9244,-2.9697,-3.0101,-3.009,-2.9905,-3.0781,-3.1423,-3.1951,-3.2408,-3.3086,-3.3839,0.0,0.0,0.0,0.0,0.0,-0.7499,-0.7427,-0.7542,-0.7575,0.0,0.0,0.0,-0.7551,-0.7916,-0.8321,-0.8752,-0.9061,-0.9211,-0.9211,-0.984,-1.0338,-1.0618,-1.0737,-1.0939,-1.1216,-1.0568,-1.009,-0.9788,-0.9692,-0.9684,-0.9814,-1.0364,-1.0686,-1.0838,-1.1409,-1.1855,-1.2162,-1.2083,-1.1877,-1.1567,-1.1146,-1.0972,-1.0972,-1.0972,-1.0735,-1.0412,-1.0417,-1.0074,-0.9559,-0.9171,-0.9385,-0.9841,-1.0067,-1.0159,-1.0141,-0.9744,-1.0661,-1.159,-1.0621,-1.0855,-1.121,-1.0625,0.0,0.0,-1.0941,-1.1895,0.0,0.0,0.0,0.0,0.0,0.0,0.0,0.0,0.0,0.0,0.0,0.0,0.0,0.0,0.0,0.0,0.0,-2.1716,-2.2003,-2.2282,-2.2296,-2.2296,-2.2296,-2.2296,-2.2426,-2.2695,-2.3033,-2.3357,-2.3692,-2.4026,-2.4438,-2.4915,-2.5364,-2.5768,-2.6135,-2.7071,-2.7603,-2.7835,-2.8301,-2.8693,-2.8989,-2.8912,-2.893,-2.9074,-2.9726,-3.037,-3.0949,-3.1438,-3.2315,-3.3311,0.0,0.0,-0.811,-0.8495,-0.9048,-0.931,-0.8967,-0.9278,-0.9313,0.0,-0.8543,-0.8645,-0.8883,-0.8831,-0.8804,-0.8804,-0.9413,-0.9788,-0.9788,-1.0491,-1.1191,-1.1765,-1.1316,-1.1316,-1.1922,-1.1266,-1.0618,-1.0012,-1.0542,-1.0542,-1.0038,-1.1241,-1.1541,-1.1099,-1.2338,-1.2939,-1.3062,-1.3663,-1.3611,-1.3054,-1.2381,-1.2119,-1.2119,-1.2047,-1.2012,-1.1958,-1.1616,-1.1417,-1.1186,-1.0363,-1.0249,-1.0465,-1.0764,-1.0889,-1.0947,-1.0998,-1.1447,-1.1792,-1.1054,-1.1299,-1.1668,-1.133,-1.1612,0.0,-1.257,-1.3634,-1.4447,0.0,0.0,0.0,0.0,0.0,0.0,0.0,0.0,0.0,0.0,0.0,0.0,0.0,0.0,0.0,-2.1147,-2.1786,-2.2212,-2.2296,-2.2296,-2.2296,-2.2296,-2.2296,-2.244,-2.2746,-2.3045,-2.338,-2.3746,-2.4054,-2.419,-2.419,-2.4281,-2.4658,-2.5264,-2.5448,-2.6256,-2.7541,-2.7622,-2.8062,-2.8684,-2.8062,-2.8244,-2.8885,-2.9166,-2.9577,-3.0059,-3.0525,-3.1443,-3.2433,0.0,-0.8677,-0.8806,-0.9409,-0.9647,-0.9688,-0.9625,-1.0138,-1.0286,-0.9621,-0.9519,-0.9541,-0.9607,-0.9133,-0.8804,-0.8804,-0.9413,-0.9788,-0.9788,-1.0939,-1.1665,-1.1789,-1.2246,-1.2535,-1.2691,-1.1981,-1.1541,-1.1416,-1.099,-1.1015,-1.1416,-1.169,-1.2055,-1.2486,-1.2774,-1.342,-1.4342,-1.4468,-1.4994,-1.5662,-1.4575,-1.4132,-1.4088,-1.3662,-1.3413,-1.3264,-1.2777,-1.2079,-1.1368,-1.1293,-1.0954,-1.078,-1.2053,-1.2145,-1.1848,-1.222,-1.2537,-1.2719,-1.2564,-1.2582,-1.268,-1.2747,-1.3293,0.0,-1.4329,-1.5155,-1.5977,0.0,0.0,0.0,0.0,0.0,0.0,0.0,0.0,0.0,0.0,0.0,0.0,0.0,0.0,0.0,-2.114,-2.1326,-2.1651,-2.2245,-2.2296,-2.2296,-2.2296,-2.2296,-2.2544,-2.3081,-2.3165,-2.35,-2.4094,-2.417,-2.419,-2.4208,-2.486,-2.4915,-2.4483,-2.5786,-2.6172,-2.5907,-2.6557,-2.6914,-2.7075,-2.726,-2.7629,-2.8055,-2.7493,-2.7924,-2.8879,-2.9308,-3.0202,-3.1361,-0.9788,-0.9788,-0.9917,-1.0244,-1.0593,-1.0686,-1.0338,-1.0593,-1.0568,-0.9891,-0.9517,-0.9309,-0.9309,-0.9309,-0.9309,-0.9309,-1.0218,-1.0788,-1.0788,-1.1783,-1.2344,-1.2344,-1.2691,-1.2905,-1.2905,-1.2535,-1.2163,-1.1789,-1.1832,-1.1832,-1.1814,-1.2187,-1.2556,-1.2963,-1.3233,-1.3863,-1.4762,-1.5048,-1.583,-1.6799,-1.566,-1.5358,-1.5575,-1.5306,-1.533,-1.5459,-1.515,-1.4317,-1.332,-1.3182,-1.2874,0.0,-1.2873,-1.2955,-1.2979,0.0,-1.3271,-1.3417,0.0,0.0,0.0,-1.3925,0.0,0.0,0.0,-1.6035,-1.6853,-1.7219,-1.7427,0.0,0.0,0.0,0.0,0.0,0.0,0.0,0.0,0.0,0.0,0.0,0.0,0.0,-2.0006,-2.075,-2.1512,-2.2229,-2.2296,-2.2363,-2.2487,-2.25,-2.2794,-2.3426,-2.3448,-2.3692,-2.4208,-2.419,-2.419,-2.419,-2.4622,-2.4585,-2.4226,-2.5034,-2.5401,-2.5411,-2.5833,-2.6227,-2.6635,-2.7024,-2.7248,-2.7282,-2.707,-2.7372,-2.7938,-2.8137,-2.9058,-3.0405,-1.0636,-1.0712,-1.0838,-1.0965,-1.1341,-1.1416,-1.0889,-1.0914,-1.0788,-1.0261,-0.9795,-0.9453,-0.9322,-0.9806,-1.0191,-1.0348,-1.1243,-1.1877,-1.204,-1.2571,-1.2866,-1.2778,-1.2856,-1.2866,-1.2778,-1.2842,-1.2618,-1.1996,-1.2618,-1.2608,-1.203,-1.2608,-1.2986,-1.3165,-1.3493,-1.4137,-1.4974,-1.5411,-1.6261,-1.7231,-1.648,-1.6427,-1.6796,-1.6695,-1.6924,-1.7236,-1.7082,-1.6362,-1.5457,-1.5159,-1.4881,-1.4578,-1.4021,-1.3994,0.0,0.0,0.0,0.0,0.0,0.0,0.0,0.0,0.0,-1.5978,0.0,0.0,0.0,-1.738,-1.7607,0.0,0.0,0.0,0.0,0.0,0.0,0.0,0.0,0.0,0.0,0.0,0.0,0.0,0.0,-2.0145,-2.1292,-2.204,-2.2076,-2.2272,-2.2682,-2.2708,-2.3009,-2.3682,-2.3703,-2.3847,-2.4208,-2.419,-2.419,-2.419,-2.419,-2.419,-2.419,-2.419,-2.4548,-2.5172,-2.5172,-2.554,-2.6188,-2.6811,-2.6876,-2.6605,-2.7106,-2.7239,-2.7194,-2.7272,-2.8135,-2.9436,-1.0038,-1.0389,-1.099,-1.1591,-1.1266,-1.0889,-1.0813,-1.1291,-1.1665,-1.1591,-1.1867,-1.1843,-1.1247,-1.1274,-1.1618,-1.2404,-1.207,-1.2121,-1.2896,-1.2928,-1.2705,-1.2301,-1.2676,-1.2695,-1.2291,-1.2686,-1.2847,-1.2774,-1.2847,-1.2856,-1.2774,-1.2847,-1.3194,-1.3697,-1.3282,-1.4005,-1.5525,-1.557,-1.6263,-1.7319,-1.7699,-1.7857,-1.7862,-1.7382,-1.7157,-1.7064,-1.6578,-1.6309,-1.6204,0.0,-1.5895,-1.554,0.0,-1.6109,-1.5494,-1.6447,0.0,0.0,0.0,0.0,0.0,0.0,-1.6897,0.0,-1.7354,0.0,-1.738,-1.7681,0.0,0.0,0.0,0.0,0.0,0.0,0.0,0.0,0.0,0.0,0.0,0.0,0.0,0.0,0.0,-1.9642,-2.0471,-2.1275,-2.1326,-2.1723,-2.2647,-2.2708,-2.3009,-2.3682,-2.3703,-2.3847,-2.4208,-2.419,-2.419,-2.419,-2.419,-2.419,-2.419,-2.419,-2.4245,-2.4337,-2.4337,-2.4392,-2.4593,-2.6057,-2.6445,-2.6157,-2.6982,-2.7083,-2.6808,-2.7178,-2.7627,-2.8361,-1.0364,-1.0618,-1.1015,-1.169,-1.1241,-1.1074,-1.1891,-1.2115,-1.184,-1.077,-1.1377,-1.1911,-1.1854,-1.2205,-1.2704,-1.3325,-1.3221,-1.3183,-1.3332,-1.3053,-1.2803,-1.2617,-1.2783,-1.2803,-1.2617,-1.2807,-1.2905,-1.2905,-1.2905,-1.2905,-1.2905,-1.3262,-1.3572,-1.3858,-1.4221,-1.5034,-1.6143,-1.6369,-1.7159,-1.8263,-1.8477,-1.8746,-1.8977,-1.8441,-1.8378,-1.8585,-1.8346,-1.8013,-1.7708,0.0,-1.7381,0.0,0.0,0.0,0.0,-1.6987,0.0,0.0,0.0,0.0,0.0,0.0,0.0,0.0,-1.7576,0.0,-1.7926,0.0,0.0,0.0,0.0,0.0,0.0,0.0,-1.8155,0.0,0.0,0.0,0.0,0.0,0.0,0.0,0.0,0.0,0.0,0.0,-2.119,-2.1713,-2.2937,-2.2996,-2.33,-2.3976,-2.3996,-2.4064,-2.419,-2.419,-2.419,-2.419,-2.419,-2.419,-2.419,-2.419,-2.419,-2.419,-2.419,-2.4447,-2.4989,-2.6135,-2.6647,-2.6783,-2.7611,-2.7572,-2.7035,-2.6988,-2.747,-2.843,-1.0167,-1.0542,-1.0939,-1.1441,-1.0965,-1.0922,-1.2132,-1.233,-1.1877,-1.0693,-1.1529,-1.2349,-1.2677,-1.3456,-1.4165,-1.4754,-1.4779,-1.4616,-1.4307,-1.3711,-1.3319,-1.3243,-1.3178,-1.3092,-1.2972,-1.3082,-1.3065,-1.2905,-1.2905,-1.2968,-1.3152,-1.36,-1.4006,-1.439,-1.512,-1.5936,-1.6745,-1.7188,-1.7969,-1.8912,-1.9062,-1.935,-1.9642,-1.9071,-1.9189,-1.9678,-1.9498,-1.9106,-1.8732,-1.8912,-1.846,0.0,-1.759,-1.7485,-1.7402,0.0,0.0,0.0,-1.8499,0.0,0.0,0.0,0.0,0.0,0.0,0.0,0.0,0.0,0.0,0.0,0.0,0.0,-1.842,-1.7884,0.0,-1.8403,0.0,0.0,0.0,0.0,0.0,0.0,0.0,0.0,0.0,-2.1072,-2.1079,-2.1655,-2.3112,-2.3288,-2.3599,-2.418,-2.419,-2.419,-2.419,-2.419,-2.419,-2.419,-2.419,-2.419,-2.419,-2.419,-2.419,-2.419,-2.419,-2.4658,-2.5466,-2.6264,-2.6903,-2.7441,-2.8139,-2.8066,-2.7542,-2.7051,-2.7532,-2.8583,-0.8857,-0.9917,-1.0813,-1.0838,-1.0287,-1.0064,-1.0762,-1.14,-1.1951,-1.2356,-1.3338,-1.4096,-1.4293,-1.5314,-1.6348,-1.7227,-1.6768,-1.6384,-1.6299,-1.5195,-1.44,-1.407,-1.3883,-1.3558,-1.3107,-1.3548,-1.3481,-1.2905,-1.2905,-1.32,-1.3768,-1.3802,-1.4423,-1.5562,-1.5574,-1.6214,-1.7307,-1.7838,-1.839,-1.8949,-1.946,-1.969,-1.9633,0.0,-1.9121,-1.9618,-1.8957,0.0,0.0,-1.9453,-1.879,0.0,0.0,0.0,0.0,0.0,0.0,0.0,0.0,0.0,0.0,-1.9513,0.0,0.0,0.0,0.0,-1.8961,0.0,0.0,0.0,0.0,-1.8318,-1.7834,-1.78,-1.7817,0.0,0.0,0.0,0.0,0.0,0.0,0.0,0.0,0.0,0.0,-2.1072,-2.0781,-2.1319,-2.3088,-2.3511,-2.3837,-2.418,-2.419,-2.419,-2.419,-2.419,-2.419,-2.419,-2.419,-2.419,-2.419,-2.419,-2.419,-2.419,-2.419,-2.4658,-2.5466,-2.6264,-2.706,-2.7816,-2.8226,-2.8394,-2.8272,-2.7542,-2.7757,-2.8583,-0.9465,-0.9465,-0.9614,-1.0064,-0.9961,-1.0141,-1.1109,-1.2446,-1.3784,-1.5103,-1.6245,-1.7292,-1.8199,-1.9254,-1.9533,-1.8728,-1.8281,-1.7822,-1.7362,-1.6154,-1.5336,-1.5036,-1.5354,-1.5076,-1.4168,-1.4275,-1.4251,-1.4095,-1.3695,-1.3802,-1.4399,-1.4801,-1.5386,-1.613,-1.6466,-1.7242,-1.8357,-1.8465,-1.885,-1.9442,-1.9621,-1.9708,-1.9678,0.0,-1.9513,-1.9678,-1.9453,-1.9346,0.0,-1.9633,-1.9408,-1.9061,-1.9286,-1.8897,-1.8446,-1.8897,-1.8867,-1.8807,0.0,0.0,-1.9423,-1.9648,0.0,0.0,0.0,0.0,0.0,0.0,0.0,0.0,0.0,-1.8691,-1.8369,-1.7884,-1.78,-1.78,0.0,0.0,0.0,0.0,0.0,0.0,0.0,0.0,0.0,-1.9612,-2.0187,-2.1086,-2.2403,-2.3246,-2.3847,-2.418,-2.419,-2.419,-2.419,-2.419,-2.419,-2.419,-2.419,-2.419,-2.419,-2.419,-2.419,-2.419,-2.419,-2.4961,-2.6229,-2.6632,-2.7609,-2.8868,-2.9012,-2.89,-2.8585,-2.7946,-2.8504,-2.9832,-0.9788,-0.9263,-0.8929,-0.9361,-1.0087,-1.0915,-1.1728,-1.401,-1.603,-1.7156,-1.8689,-2.0036,-2.0972,-2.1565,-2.1419,-2.0171,-1.9899,-1.9507,-1.8701,-1.7587,-1.683,-1.6478,-1.6415,-1.5971,-1.5028,-1.4977,-1.4871,-1.4698,-1.4306,-1.4422,-1.5028,-1.541,-1.5993,-1.6739,-1.7229,-1.7983,-1.8902,-1.9016,-1.9318,-1.9708,-1.9708,-1.9708,0.0,0.0,-1.9708,-1.9708,0.0,-1.9708,-1.9708,-1.9708,-1.9543,-1.9331,-1.9331,-1.9046,-1.8792,-1.9211,-1.9211,-1.9151,-1.9588,-1.9708,0.0,-1.9708,-1.9708,0.0,-1.9151,0.0,-1.9604,0.0,0.0,0.0,0.0,-1.908,-1.8657,-1.7918,-1.78,-1.7816,0.0,-1.8239,0.0,0.0,0.0,0.0,0.0,0.0,-1.9007,-1.9658,-2.0396,-2.1311,0.0,0.0,-2.3986,-2.419,-2.419,-2.419,-2.419,-2.419,-2.419,-2.419,-2.419,-2.419,-2.419,-2.419,-2.419,-2.4218,-2.4579,-2.5485,-2.675,-2.7251,-2.8278,-2.9541,-2.986,-2.9746,-2.9317,-2.8414,-2.9073,-3.0669,-0.9795,-0.9285,-0.8884,-0.8971,-1.0709,-1.2252,-1.2687,-1.5908,-1.8414,-1.8674,-2.0664,-2.2191,-2.2571,-2.2503,-2.2139,-2.1541,-2.167,-2.1351,-2.0326,-1.9451,-1.8735,-1.823,-1.713,-1.6239,-1.5666,0.0,0.0,-1.4801,-1.4755,-1.5062,-1.5654,-1.5676,-1.6275,-1.7374,-1.7907,-1.8438,-1.8968,-1.9479,-1.9708,-1.9708,-1.9708,-1.9708,-1.9708,-1.9708,-1.9708,-1.9708,-1.9708,-1.9708,-1.9708,-1.9708,-1.9271,-1.8747,-1.8747,-1.8732,-1.8717,-1.8747,-1.9166,-1.9663,-1.9693,-1.9708,-1.9708,-1.9708,-1.9711,0.0,0.0,0.0,-2.0466,0.0,0.0,0.0,0.0,0.0,-1.8758,-1.7969,-1.7873,-1.7967,-1.8239,0.0,-1.8445,0.0,0.0,0.0,0.0,-1.9679,-2.0108,-2.1062,-2.1337,-2.1952,0.0,0.0,-2.419,-2.419,-2.419,-2.419,-2.419,-2.419,-2.419,-2.419,-2.419,-2.419,-2.419,-2.419,-2.4236,-2.432,-2.528,-2.6187,-2.7055,-2.8087,-2.8992,-2.9798,-3.0673,-3.0866,-3.0493,-2.9119,-2.9633,-3.1092,-0.984,-0.963,-0.9917,-1.136,-1.2037,-1.3248,-1.5746,-1.6698,-1.8533,-2.2432,-2.2773,-2.3397,-2.5317,-2.5448,-2.4718,-2.2951,-2.2937,-2.251,-2.1255,-2.0358,-1.9365,-1.8255,-1.8298,-1.7694,-1.6297,-1.6229,-1.6139,-1.6042,-1.5599,-1.5688,-1.6281,-1.6685,-1.7224,-1.7927,-1.8458,-1.8987,-1.9497,-1.9639,-1.9708,-1.9708,-1.9708,-1.9708,-1.9708,0.0,-1.9708,-1.9708,-1.9708,-1.9708,-1.9708,-1.9708,-1.9588,-1.9453,-1.9453,-1.9091,-1.8807,-1.9286,-1.9211,-1.9061,-1.9573,-1.9708,-1.9708,-1.9708,-1.9912,-2.0158,0.0,0.0,0.0,0.0,0.0,0.0,0.0,0.0,0.0,-1.8826,-1.8836,-1.9083,-1.9354,0.0,0.0,-2.0334,0.0,0.0,-1.8968,-1.9428,-1.9883,-2.0142,-2.1473,-2.2431,-2.2746,0.0,0.0,-2.419,-2.419,-2.419,-2.419,-2.419,-2.419,-2.419,-2.419,-2.419,-2.419,-2.419,-2.4607,-2.5335,-2.5583,-2.6601,-2.8114,-2.8544,-2.9193,-3.0007,-3.0879,-3.1316,-3.1496,-3.1513,-3.1788,-3.2281,-1.0274,-1.0861,-1.1821,-1.3116,-1.421,-1.5475,-1.7144,-1.8051,-1.98,-2.3352,-2.4089,-2.484,-2.6372,-2.6298,-2.5545,-2.4065,-2.3583,0.0,-2.1917,0.0,0.0,-1.8619,-1.8607,-1.7967,-1.6525,-1.6468,0.0,-1.65,-1.6173,-1.629,-1.6858,-1.7146,-1.7706,-1.8458,-1.8765,-1.9207,-1.9708,-1.9708,-1.9708,-1.9708,-1.9708,-1.9708,0.0,-1.9708,-1.9708,-1.9708,-1.9708,-1.9708,-1.9708,-1.9708,-1.9708,-1.9708,-1.9708,-1.9453,-1.9211,-1.9588,-1.942,-1.9211,-1.9603,-1.9836,-1.9947,-1.9947,-2.0296,-2.06,-2.06,-2.0813,-2.1102,0.0,-2.1597,-2.1518,0.0,0.0,0.0,-1.9759,-1.9886,-2.0181,0.0,0.0,0.0,0.0,-2.0769,0.0,-1.9871,-1.9925,-2.0208,-2.0763,-2.2032,-2.2851,0.0,0.0,0.0,-2.419,-2.4548,-2.4566,-2.419,-2.4548,-2.4548,-2.419,-2.419,-2.419,-2.419,-2.419,-2.4746,-2.5729,-2.6195,-2.7261,-2.8677,-2.9262,-2.9762,-3.0271,-3.1397,-3.2402,-3.3248,-3.3287,-3.2999,-3.2656,-1.0977,-1.2397,-1.3802,-1.4271,-1.6394,-1.8017,-1.7842,-1.9708,0.0,-2.3074,0.0,-2.6118,-2.6559,-2.6011,-2.5369,-2.485,-2.3885,-2.2995,-2.2246,-2.1681,-2.0639,-1.897,-1.8368,-1.7601,-1.6525,-1.65,-1.65,0.0,-1.65,-1.6774,-1.7312,-1.7374,-1.7947,-1.8893,-1.8968,-1.9262,-1.9708,-1.9708,-1.9708,-1.9708,-1.9708,-1.9708,-1.9708,-1.9708,-1.9708,-1.9708,-1.9708,-1.9708,-1.9708,-1.9708,-1.9708,-1.9708,-1.9708,-1.9708,-1.9708,-1.9708,-1.9729,-1.9782,-1.9782,-2.0087,-2.0399,-2.0399,-2.0732,-2.1071,-2.1071,-2.1134,-2.1276,-2.1628,-2.1688,-2.161,0.0,0.0,0.0,-2.0761,0.0,0.0,0.0,0.0,0.0,0.0,0.0,0.0,0.0,-2.0987,-2.0982,-2.2132,-2.2786,0.0,0.0,0.0,0.0,-2.419,-2.4879,-2.5007,-2.452,0.0,-2.5154,-2.4667,-2.4557,-2.4502,-2.4502,-2.4502,-2.5079,-2.6117,-2.7048,-2.8051,-2.9084,-3.0144,-3.0692,-3.1026,-3.224,-3.371,-3.5025,-3.4459,-3.3647,-3.2794,-1.2077,-1.3039,-1.4007,-1.4526,-1.6713,-1.8788,-1.9885,-2.1466,-2.3156,-2.4885,-2.5425,-2.6058,-2.7053,-2.6225,-2.5368,-2.4848,-2.4612,0.0,0.0,0.0,0.0,-1.8417,-1.7815,-1.7212,-1.6513,-1.65,-1.65,0.0,0.0,-1.6774,-1.7312,-1.7747,-1.8302,-1.893,-1.9369,-1.9603,-1.9708,-1.9708,0.0,-1.9708,-1.9708,-1.9708,-1.9708,-1.9708,-1.9708,-1.9708,-1.9708,-1.9708,-1.9708,-1.9708,-1.9708,-1.9708,-1.9708,-1.9708,-1.9708,-1.9708,-1.9929,-2.0177,-2.0177,-2.0532,-2.0878,-2.0878,-2.1197,-2.1491,-2.1491,-2.1779,-2.2092,-2.2149,-2.218,-2.2158,-2.2127,0.0,0.0,0.0,0.0,0.0,0.0,0.0,0.0,0.0,0.0,-2.2275,0.0,-2.2632,-2.2358,-2.282,-2.3555,0.0,0.0,0.0,0.0,0.0,-2.4337,0.0,0.0,0.0,-2.5999,-2.7163,-2.6502,-2.619,-2.619,-2.619,-2.685,-2.8018,-2.821,-2.8995,-3.0201,-3.1109,-3.2295,-3.3564,-3.38,-3.4397,-3.507,-3.4734,-3.4326,-3.3894,-1.3369,-1.4341,-1.5237,-1.5769,-1.8076,0.0,0.0,-2.325,-2.4785,-2.477,-2.5125,-2.5654,-2.6352,-2.5928,-2.536,-2.4843,-2.4249,-2.3221,-2.1594,-2.069,-1.961,-1.8267,-1.7677,-1.7254,-1.6934,-1.6909,-1.7055,-1.7333,0.0,-1.7605,-1.8145,-1.84,-1.8798,-1.9332,-1.9584,-1.9708,-1.9708,0.0,0.0,-1.9708,-1.9708,-1.9708,-1.9708,-1.9708,-1.9708,-1.9708,-1.9708,-1.9708,-1.9708,-1.9708,-1.9708,-1.9708,-1.9708,-1.9708,-1.9708,-1.9708,-1.9839,-1.9982,-1.9982,-2.0482,-2.0991,-2.0991,-2.1477,-2.1957,-2.1957,-2.2135,-2.2296,-2.2296,-2.2296,-2.2296,-2.2296,-2.2119,0.0,0.0,0.0,0.0,0.0,0.0,-2.4151,0.0,0.0,0.0,0.0,-2.3472,0.0,0.0,0.0,0.0,0.0,0.0,0.0,0.0,0.0,0.0,0.0,0.0,0.0,-2.7163,-2.6796,-2.6602,-2.6602,-2.6602,-2.7296,-2.8501,-2.8501,-2.9474,-3.1135,-3.1987,-3.3064,-3.4205,-3.4205,-3.4644,-3.5339,-3.5464,-3.5074,-3.4409,-1.5172,-1.6163,-1.7029,-1.7318,-1.9669,-2.1551,-2.1846,-2.4425,-2.5775,-2.4337,-2.5113,-2.5795,-2.5782,-2.5674,-2.5385,-2.4838,-2.3873,-2.2769,-2.1568,-2.0426,-1.9321,-1.8254,-1.7665,-1.7355,-1.7305,-1.7415,-1.7686,0.0,0.0,0.0,-1.8893,-1.9056,-1.932,-1.9708,-1.9708,0.0,0.0,0.0,-1.9708,-1.9708,-1.9708,-1.9708,-1.9708,-1.9708,-1.9708,-1.9708,-1.9708,-1.9708,-1.9708,-1.9708,-1.9708,-1.9708,-1.9708,-1.9708,-1.9708,-1.9708,-1.9764,-1.9836,-1.9836,-2.0465,-2.1118,-2.1118,-2.1721,-2.2296,-2.2296,-2.2296,-2.2296,-2.2296,-2.2296,-2.2296,-2.2296,-2.2477,0.0,0.0,0.0,0.0,0.0,0.0,0.0,0.0,0.0,0.0,-2.3947,0.0,0.0,0.0,0.0,0.0,-2.4094,0.0,0.0,0.0,0.0,-2.565,-2.6164,0.0,-2.7034,-2.7354,-2.7189,-2.7115,-2.7115,-2.7115,-2.7683,-2.869,-2.8732,-2.9969,-3.2025,-3.2833,-3.368,-3.4468,-3.4468,-3.4911,-3.5537,-3.5914,-3.5476,-3.4641,-1.792,-1.873,-1.9232,0.0,0.0,-2.2275,-2.1934,-2.4068,-2.5456,-2.4798,-2.6544,-2.7473,-2.6524,-2.5946,-2.5385,-2.4838,-2.4268,-2.3226,-2.1594,-2.0426,-1.9321,-1.8254,-1.7622,-1.7316,-1.7312,-1.7787,-1.8046,0.0,0.0,-1.8967,0.0,-1.9531,-1.9773,0.0,0.0,0.0,0.0,-1.9708,-1.9708,-1.9708,-1.9708,-1.9708,-1.9708,-1.9708,-1.9708,-1.9708,-1.9708,-1.9708,-1.9708,-1.9708,-1.9708,-1.9708,-1.9708,-1.9708,-1.9708,-1.9708,-1.9947,-2.0246,-2.0246,-2.0878,-2.1536,-2.1536,-2.1913,-2.2296,-2.2296,-2.2296,-2.2296,-2.2296,-2.2296,-2.2296,-2.2296,-2.2307,-2.2426,0.0,0.0,0.0,0.0,0.0,-2.3753,-2.3753,0.0,0.0,-2.3247,-2.2996,-2.3057,0.0,-2.4026,0.0,0.0,0.0,0.0,-2.4831,0.0,-2.6458,-2.8638,-2.8007,-2.8411,-2.9861,-2.9115,-2.8785,-2.8785,-2.8785,-2.8964,-2.9332,-2.9503,-3.0811,-3.2852,-3.3725,-3.4584,-3.5385,-3.5385,-3.5423,-3.5479,-3.5275,-3.4992,-3.4766,0.0,0.0,0.0,0.0,0.0,0.0,0.0,-2.4847,-2.5814,-2.4926,-2.6463,-2.7193,-2.6063,-2.5737,-2.5259,-2.4406,-2.3502,-2.256,-2.1556,-2.0502,-1.9542,-1.8719,-1.8478,-1.8344,-1.8263,-1.8477,-1.8727,0.0,0.0,0.0,0.0,0.0,0.0,0.0,0.0,-1.9708,-1.9708,-1.9708,-1.9708,-1.9708,-1.9708,-1.9708,-1.9708,-1.9708,-1.9708,-1.9708,-1.9708,-1.9708,-1.9708,-1.9708,-1.9708,-1.9708,-1.9708,-1.9708,-1.9708,-1.9708,-1.9803,-2.0,-2.0229,-2.0764,-2.1291,-2.1536,-2.1943,-2.2296,-2.2296,-2.2296,-2.2296,-2.2296,-2.2296,-2.2296,-2.2296,-2.2296,-2.2388,-2.266,0.0,0.0,0.0,0.0,0.0,-2.3403,0.0,-2.3057,-2.3177,-2.3081,-2.3395,-2.4356,0.0,0.0,0.0,0.0,0.0,-2.5173,0.0,-2.6329,-2.8264,-2.7952,-2.8374,-2.9482,-2.9152,-2.9005,-2.9005,-2.9005,-2.9505,-3.0406,-3.1128,-3.2286,-3.3757,-3.4622,-3.5192,-3.55,-3.55,-3.5808,-3.6262,-3.6688,-3.6527,-3.6249,-2.1542,0.0,-2.2282,0.0,-2.3722,-2.4316,-2.4664,-2.5582,-2.6007,-2.5358,-2.6335,-2.6776,-2.5937,-2.5561,-2.5059,-2.4305,-2.317,-2.2333,-2.1797,-2.077,-1.9893,-1.9297,-1.9127,0.0,-1.8907,-1.9043,-1.9332,-1.9708,-2.0378,0.0,0.0,0.0,0.0,0.0,-1.9708,-1.9708,-1.9708,-1.9708,-1.9708,-1.9708,-1.9708,-1.9708,-1.9708,-1.9708,-1.9708,-1.9708,-1.9708,-1.9708,-1.9708,-1.9708,-1.9708,-1.9708,-1.9708,-1.9708,-1.9708,-1.9708,-1.9708,-1.9782,-2.0177,-2.0633,-2.1103,-2.1491,-2.1943,-2.2296,-2.2296,-2.2296,-2.2296,-2.2296,-2.2296,-2.2296,-2.2296,-2.2296,-2.236,-2.255,0.0,0.0,0.0,-2.3075,0.0,-2.3189,-2.3038,-2.2965,-2.3063,-2.2989,-2.3291,0.0,0.0,0.0,0.0,0.0,0.0,0.0,0.0,0.0,-2.8136,-2.8154,-2.8558,-2.9354,-2.9354,-2.9354,-2.9354,-2.9354,-3.0035,-3.1308,-3.2365,-3.3303,-3.4162,-3.5114,-3.5635,-3.5846,-3.5846,-3.6291,-3.7015,-3.7735,-3.7573,-3.7118,-2.4759,-2.4508,-2.4655,-2.6165,-2.5085,-2.4563,-2.6229,-2.5997,-2.582,-2.6401,-2.649,-2.6499,-2.6487,-2.5473,-2.4788,-2.4775,-2.3747,-2.2899,-2.2414,-2.1263,-2.0375,0.0,0.0,-1.8893,-1.8893,-1.9424,-1.969,-1.9708,0.0,0.0,-1.9708,0.0,-1.9708,-1.9708,-1.9708,-1.9708,-1.9708,-1.9708,-1.9708,-1.9708,-1.9708,-1.9708,-1.9708,-1.9708,-1.9708,-1.9708,-1.9708,-1.9708,-1.9708,-1.9708,-1.9708,-1.9708,-1.9708,-1.9708,-1.9708,-1.9708,-1.9708,-1.9782,-2.0177,-2.0633,-2.1103,-2.1491,-2.1943,-2.2296,-2.2296,-2.2296,-2.2296,-2.2296,-2.2296,-2.2296,-2.2296,-2.2296,-2.2296,-2.231,0.0,0.0,0.0,-2.2755,0.0,-2.3183,-2.2673,-2.2429,-2.2764,-2.2511,0.0,0.0,0.0,0.0,0.0,0.0,0.0,-2.606,-2.6418,0.0,-2.8968,-2.8987,-2.939,-3.0191,-3.0191,-3.0191,-3.0191,-3.0191,-3.0761,-3.1853,-3.2908,-3.3543,-3.3881,-3.5026,-3.5962,-3.6692,-3.6692,-3.7025,-3.7525,-3.7874,-3.7452,-3.6857,-2.5961,-2.6478,-2.6898,-2.7032,-2.7195,-2.7159,-2.6582,-2.6635,-2.6553,-2.5966,-2.6724,-2.7128,-2.6693,-2.5548,-2.4474,0.0,-2.3436,-2.3035,0.0,-2.2602,-2.2245,-2.116,-2.093,-2.0596,-2.0133,-1.9841,-1.9708,-1.9708,0.0,0.0,0.0,-2.0378,-2.0139,-1.9708,-1.9708,-1.9708,-1.9708,-1.9708,-1.9708,-1.9708,-1.9708,-1.9708,-1.9708,-1.9708,-1.9708,-1.9708,-1.9708,-1.9708,-1.9708,-1.9708,-1.9708,-1.9708,-1.9708,-1.9708,-1.9708,-1.9708,-1.9892,-2.021,-2.0665,-2.1086,-2.1522,-2.1974,-2.2194,-2.2296,-2.2296,-2.2296,-2.2296,-2.2296,-2.2296,-2.2296,-2.2296,-2.2296,-2.2296,-2.2296,-2.2374,0.0,-2.2426,0.0,-2.2764,-2.2848,-2.3087,-2.32,-2.3075,-2.2982,0.0,0.0,0.0,0.0,0.0,0.0,0.0,0.0,-2.7083,0.0,-2.9794,-2.9824,-3.0228,-3.1029,-3.1029,-3.1029,-3.1029,-3.1029,-3.1899,-3.3417,-3.3231,-3.4024,-3.5488,-3.5305,-3.5376,-3.5613,-3.5613,-3.5936,-3.649,-3.7138,-3.7445,-3.764,-2.7369,-2.7766,-2.812,-2.82,-2.8264,-2.8197,-2.7953,-2.7816,-2.7592,-2.7213,-2.7771,-2.794,-2.7337,-2.6319,0.0,-2.4363,-2.4197,-2.3892,-2.3213,-2.3466,-2.3175,-2.2112,-2.1821,-2.1395,-2.0703,-2.0543,0.0,-1.9708,-2.0124,-2.0318,-2.0318,-2.0318,-2.0094,-1.9708,-1.9708,-1.9708,-1.9708,-1.9708,-1.9708,-1.9708,-1.9708,-1.9708,-1.9708,-1.9708,-1.9708,-1.9708,-1.9708,-1.9708,-1.9708,-1.9708,-1.9708,-1.9708,-1.9708,-1.9708,-1.9708,-1.9708,-1.9982,-2.0399,-2.0878,-2.1291,-2.1703,-2.218,-2.2296,-2.2296,-2.2296,-2.2296,-2.2296,-2.2296,-2.2296,-2.2296,-2.2296,-2.2296,-2.2296,-2.2296,-2.2296,-2.2296,-2.2296,0.0,-2.2776,0.0,0.0,0.0,0.0,-2.3271,-2.3365,0.0,0.0,0.0,0.0,0.0,0.0,-2.6565,-2.7383,-2.8576,-3.0173,-3.021,-3.076,-3.1843,-3.1843,-3.2008,-3.2296,-3.199,-3.2821,-3.4469,-3.4103,-3.4716,-3.5965,-3.5562,-3.54,-3.5391,-3.5391,-3.5918,-3.6731,-3.737,-3.7841,-3.8252,-2.8849,-2.8582,-2.8545,0.0,-2.8535,0.0,-2.9907,-2.9319,-2.8932,-2.9704,-2.9375,-2.8893,-2.8358,-2.7774,-2.7161,-2.6506,0.0,0.0,0.0,-2.4028,-2.34,-2.2862,-2.2164,-2.1455,-2.0778,-2.138,-2.1085,-1.9768,-1.9723,-1.9708,-1.9708,-1.9708,-1.9708,-1.9708,-1.9708,-1.9708,-1.9708,-1.9753,-1.9753,-1.9708,-1.9753,-1.9753,-1.9708,-1.9708,-1.9708,-1.9708,-1.9708,-1.9708,-1.9708,-1.9708,-1.9708,-1.9708,-1.9708,-1.9708,-1.9708,-1.9708,-1.9982,-2.0399,-2.0878,-2.1291,-2.1703,-2.218,-2.2296,-2.2296,-2.2296,-2.2296,-2.2296,-2.2296,-2.2296,-2.2296,-2.2296,-2.2296,-2.2296,-2.2296,-2.2296,-2.231,-2.2338,-2.2628,-2.2925,0.0,0.0,0.0,-2.3703,-2.3479,-2.3194,0.0,0.0,0.0,0.0,0.0,-2.5999,-2.673,-2.7603,-2.8796,-3.0356,-3.0375,-3.117,-3.2766,-3.2766,-3.3201,-3.3954,-3.3201,-3.3665,-3.511,-3.5421,-3.5572,-3.5602,-3.5852,-3.5964,-3.5958,-3.5901,-3.6625,-3.7733,-3.811,-3.8337,-3.8386,0.0,0.0,-2.9358,-2.9138,-2.9757,-3.0138,-2.9724,-2.9989,-3.0178,-2.9988,-2.9978,-2.9738,-2.9124,-2.945,-2.9456,-2.8838,-2.724,-2.6181,-2.6052,-2.5458,-2.4817,-2.4171,-2.3056,-2.2164,-2.1485,-2.162,-2.1291,-2.0449,-1.9944,-1.9708,-1.9708,-1.9708,-1.9708,-1.9708,-1.9708,-1.9708,-1.9738,-2.0243,-2.0168,-1.9753,-2.0258,-2.0154,-1.9708,-1.9708,-1.9708,-1.9708,-1.9708,-1.9708,-1.9708,-1.9708,-1.9708,-1.9708,-1.9708,-1.9708,-1.9708,-1.9708,-1.9982,-2.0399,-2.0878,-2.1291,-2.1703,-2.218,-2.2296,-2.2296,-2.2296,-2.2296,-2.2296,-2.2296,-2.2296,-2.2296,-2.2296,-2.2296,-2.2296,-2.2296,-2.2296,-2.2391,-2.2655,-2.2938,-2.3218,0.0,-2.4342,-2.4663,-2.4129,-2.4328,-2.4453,0.0,0.0,0.0,-2.5661,-2.726,-2.8235,-2.8436,-2.9806,-3.1017,-3.2014,-3.2032,-3.2839,-3.4435,-3.4435,-3.4876,-3.5697,-3.5514,-3.5624,-3.5991,-3.609,-3.6231,-3.641,-3.6485,-3.6503,-3.6459,-3.5836,-3.5621,-3.5782,-3.6505,-3.6404,-3.6046,-2.9453,-2.9616,-2.9757,-2.9599,-3.0492,-3.1192,-3.1137,-3.1545,-3.1688,-3.1194,-3.1238,-3.1057,-3.0397,-3.0432,-3.0492,-3.0477,-2.8618,-2.7319,-2.7037,-2.6115,-2.5292,-2.4634,-2.364,-2.2823,-2.2179,-2.2428,-2.2099,-2.1171,-2.0483,-1.9989,-1.9708,-1.9708,-1.9708,-1.9708,-1.9708,-1.9708,-1.9723,-2.0094,-2.0034,-1.9768,-2.0438,-2.0483,-2.0154,-2.0154,-2.0154,-2.0124,-1.9813,-1.9708,-1.9708,-1.9708,-1.9708,-1.9708,-1.9708,-1.9708,-1.9708,-1.9708,-1.9982,-2.0399,-2.0878,-2.1291,-2.1703,-2.218,-2.2296,-2.2296,-2.2296,-2.2296,-2.2296,-2.2296,-2.2296,-2.2296,-2.2296,-2.2296,-2.2296,-2.2296,-2.2296,-2.2402,-2.2721,-2.3014,-2.3459,-2.4165,-2.4936,-2.5374,-2.5309,-2.5523,-2.5601,-2.5459,-2.5934,0.0,-2.7164,-2.904,-2.9769,-2.9023,-3.0558,-3.1788,-3.2583,-3.3335,-3.4142,-3.5004,-3.5389,-3.5844,-3.6303,-3.6303,-3.6486,-3.685,-3.685,-3.6932,-3.7063,-3.7063,-3.6841,-3.6472,-3.6041,-3.5754,-3.5646,-3.6138,-3.6009,-3.5734,-2.9287,-2.9655,-3.0135,-3.0275,-3.0859,-3.1678,-3.2654,-3.3031,-3.3007,-3.2542,-3.2512,-3.2228,-3.157,-3.0972,-3.0896,-3.1451,-2.9819,-2.8502,-2.7944,-2.6542,-2.551,-2.4933,-2.4156,-2.346,-2.2853,-2.3041,-2.2682,-2.1695,-2.1036,-2.0423,-1.9839,-1.9962,-1.9947,-1.9857,-2.0038,-1.996,-1.9723,-2.0098,-2.0095,-1.9932,-2.0692,-2.0946,-2.0838,-2.0838,-2.0778,-2.0613,-2.0049,-1.9798,-1.9708,-1.9708,-1.9708,-1.9708,-1.9708,-1.9708,-1.9708,-1.9708,-1.9982,-2.0399,-2.0878,-2.1354,-2.1794,-2.2194,-2.2296,-2.2296,-2.2296,-2.2296,-2.2296,-2.2296,-2.2296,-2.2296,-2.2296,-2.2296,-2.233,-2.2448,-2.2364,-2.2436,-2.2833,0.0,-2.3703,-2.4777,-2.5368,-2.5928,-2.6547,-2.6722,-2.6662,-2.6383,-2.7371,-2.8198,-2.8735,-3.0545,-3.0944,-2.9592,-3.0999,-3.2155,-3.2949,-3.4454,-3.5261,-3.5389,-3.6138,-3.6541,-3.6652,-3.6652,-3.6978,-3.7511,-3.7662,-3.7673,-3.7562,-3.7763,-3.7409,-3.6782,-3.6653,-3.6592,-3.655,-3.655,-3.6434,-3.6321,-3.0587,-3.088,-3.1017,-3.005,-3.1053,-3.1842,-3.1533,-3.2599,-3.3212,-3.2587,-3.2512,-3.2228,-3.157,-3.1406,-3.1391,-3.1496,-3.0238,-2.9412,-2.9307,-2.7485,-2.6393,-2.6288,-2.5098,-2.4126,-2.3475,-2.1949,-2.1335,-2.1695,-2.1036,-2.0643,-2.0572,-2.1126,-2.1081,-2.0591,-2.1559,-2.114,-1.9849,-2.1945,-2.1942,-2.0643,-2.1874,-2.2059,-2.1545,-2.1545,-2.1201,-2.0688,-2.0569,-2.0183,-1.9708,-1.9708,-1.9708,-1.9708,-1.9708,-1.9708,-1.9708,-1.9708,-1.9982,-2.0399,-2.0878,-2.1584,-2.2209,-2.2282,-2.2296,-2.2296,-2.2296,-2.2296,-2.2296,-2.2296,-2.2296,-2.2296,-2.2296,-2.2296,-2.2499,-2.3122,-2.2716,-2.264,-2.358,0.0,-2.4067,-2.4809,-2.6091,-2.6835,-2.6617,-2.7218,-2.7592,-2.753,-2.8322,-2.914,-2.9893,-3.1506,-3.2289,-3.2051,-3.2944,-3.3807,-3.4619,-3.5624,-3.6431,-3.7125,-3.7254,-3.7661,-3.834,-3.834,-3.801,-3.7544,-3.8465,-3.8473,-3.7923,-3.8877,-3.9194,-3.9018,-3.8341,-3.7891,-3.7655,-3.7655,-3.7082,-3.6395,-3.0361,-3.0569,-3.0822,-3.0586,-3.1062,-3.1685,-3.2333,-3.3046,-3.326,-3.2602,-3.2512,-3.2228,-3.157,-3.1511,-3.1511,-3.1511,-3.0342,-2.9606,-2.9606,-2.7735,-2.6587,-2.6587,-2.5674,-2.4814,-2.4141,-2.2921,-2.2084,-2.1695,-2.1739,-2.141,-2.0703,-2.1395,-2.1672,-2.1644,-2.218,-2.211,-2.1635,-2.2512,-2.2389,-2.1683,-2.242,-2.2508,-2.2239,-2.2239,-2.2059,-2.1724,-2.1365,-2.1036,-2.0767,-2.0767,-2.0528,-2.0243,-2.0243,-1.9989,-1.9729,-1.9947,-2.033,-2.0764,-2.1213,-2.1811,-2.2296,-2.2296,-2.2296,-2.2296,-2.2296,-2.2296,-2.2398,-2.2818,-2.2885,-2.2885,-2.2885,-2.2885,-2.3004,-2.3342,-2.2784,0.0,-2.4289,-2.4157,-2.4535,-2.6258,-2.6894,-2.7627,-2.8747,-2.8809,-2.9035,-2.9684,-2.988,-3.0407,-3.1445,-3.2197,-3.2803,-3.3238,-3.4032,-3.4619,-3.5004,-3.6285,-3.7125,-3.7511,-3.7951,-3.834,-3.8707,-3.8707,-3.8505,-3.8187,-3.8818,-3.8888,-3.8598,-3.93,-3.9599,-3.9561,-3.9195,-3.87,-3.8151,-3.7978,-3.7312,-3.6601,-3.0329,-3.0524,-3.0924,-3.1226,-3.1135,-3.1505,-3.2824,-3.317,-3.3036,-3.2377,-3.2392,-3.2228,-3.157,-3.1511,-3.1436,-3.1271,-3.0253,-2.9547,-2.9397,-2.7794,-2.6811,-2.6811,-2.6033,-2.5202,-2.4395,-2.3729,-2.2879,-2.1838,-2.2541,-2.2314,-2.1291,-2.2132,-2.2624,-2.2817,-2.3104,-2.3213,-2.319,-2.3096,-2.2883,-2.2635,-2.2838,-2.2912,-2.2912,-2.2912,-2.2823,-2.2628,-2.2119,-2.1829,-2.1695,-2.1695,-2.1323,-2.0809,-2.0726,-2.0376,-2.005,-2.0229,-2.0826,-2.1423,-2.157,-2.2076,-2.2564,-2.2564,-2.2682,-2.2818,-2.2818,-2.2818,-2.297,-2.3528,-2.3661,-2.3661,-2.3661,-2.3661,-2.3714,-2.3883,0.0,-2.3427,-2.5158,-2.4895,-2.5386,-2.7672,-2.7812,-2.8537,-3.0588,-3.0242,-3.031,-3.1323,-3.1278,-3.162,-3.2551,-3.2949,-3.3518,-3.4357,-3.4968,-3.5389,-3.5573,-3.7037,-3.7786,-3.7786,-3.8395,-3.8707,-3.8707,-3.8707,-3.8707,-3.8719,-3.9068,-3.9212,-3.9238,-3.9637,-3.981,-3.981,-3.981,-3.9399,-3.8764,-3.8421,-3.7866,-3.7309,-3.1634,-3.1901,-3.2154,-3.1573,-3.1469,-3.1484,-3.1616,-3.2168,-3.2318,-3.166,-3.2108,-3.2228,-3.157,-3.1511,-3.1241,-3.0642,-2.9968,-2.9352,-2.8712,-2.7959,-2.7525,-2.7525,-2.6288,-2.5001,-2.3699,-2.3092,-2.2591,-2.2274,-2.2999,-2.3202,-2.2964,-2.4305,-2.463,-2.4115,-2.5248,-2.4792,-2.3272,-2.4481,-2.4353,-2.3347,-2.3483,-2.3535,-2.3535,-2.3535,-2.3197,-2.2688,-2.2643,-2.2239,-2.1695,-2.1695,-2.1489,-2.119,-2.0824,-2.0795,-2.0829,-2.0416,-2.1374,-2.2436,-2.1778,-2.2441,-2.3325,-2.3325,-2.3831,-2.4338,-2.4338,-2.4338,-2.4355,-2.4406,-2.4423,-2.4423,-2.4423,-2.4423,-2.4643,-2.5338,0.0,0.0,-2.6369,-2.6538,-2.6959,-2.8208,-2.8931,-2.9723,-3.0707,-3.0746,-3.0908,-3.1372,-3.2056,-3.2502,-3.2601,-3.4014,-3.5224,-3.6083,-3.6174,-3.656,-3.7309,-3.8175,-3.8615,-3.8615,-3.867,-3.8707,-3.8707,-3.8707,-3.8707,-3.8735,-3.9314,-3.9564,-3.9611,-4.0193,-4.043,-4.043,-4.043,-4.0247,-3.9927,-3.9603,-3.9233,-3.8891,-3.16,-3.1705,-3.1795,-3.154,-3.1511,-3.1511,-3.1511,-3.172,-3.1795,-3.154,-3.172,-3.178,-3.1525,-3.1511,-3.1227,-3.0567,-2.9939,-2.9337,-2.8637,-2.7974,-2.7405,-2.7001,-2.5704,-2.4739,-2.4231,-2.3595,-2.3177,-2.2976,-2.3677,-2.3939,-2.3795,-2.4753,-2.5228,-2.5334,-2.5809,-2.5771,-2.5361,-2.526,-2.4946,-2.4453,-2.3857,-2.3595,-2.3595,-2.3595,-2.3445,-2.3251,-2.3251,-2.3086,-2.2877,-2.2877,-2.228,-2.1565,-2.166,-2.1518,-2.1472,-2.2293,-2.2815,-2.3167,-2.3351,-2.3727,-2.4085,-2.4085,-2.4288,-2.4491,-2.4491,-2.4491,-2.4762,-2.5675,-2.5862,-2.5998,-2.6471,-2.6556,-2.6624,-2.6911,0.0,-2.6403,-2.791,-2.7706,-2.7894,-2.9293,-2.9489,-3.0004,-3.1299,-3.1422,-3.1927,-3.3179,-3.371,-3.4238,-3.4862,-3.5477,-3.6193,-3.7015,-3.7052,-3.7199,-3.7492,-3.8303,-3.8707,-3.8707,-3.9203,-3.9184,-3.8726,-3.9221,-3.9166,-3.8735,-3.9339,-3.9599,-3.9645,-4.0257,-4.0496,-4.0496,-4.0496,-4.0449,-4.0285,-3.9778,-3.9529,-3.9346,-3.1511,-3.1511,-3.1511,-3.1511,-3.1511,-3.1511,-3.1511,-3.1511,-3.1511,-3.1511,-3.1511,-3.1421,-3.1212,-3.1182,-3.0838,-2.9983,-2.952,-2.8981,-2.8323,-2.766,-2.7091,-2.6617,-2.5525,-2.489,-2.4858,-2.4185,-2.3841,-2.3831,-2.4562,-2.4814,-2.4664,-2.5346,-2.5872,-2.6227,-2.6227,-2.6401,-2.6657,-2.5817,-2.5449,-2.5354,-2.4287,-2.3858,-2.3837,-2.3659,-2.3595,-2.3595,-2.3595,-2.3595,-2.3595,-2.3595,-2.2981,-2.2238,-2.2385,-2.2232,-2.2285,-2.3671,-2.4088,-2.4205,-2.4711,-2.5169,-2.5439,-2.4965,-2.5015,-2.5185,-2.5185,-2.5371,-2.5812,-2.6843,-2.7249,-2.7571,-2.8095,-2.8197,-2.8197,-2.8197,-2.7757,-2.7876,-2.9162,-2.8873,-2.899,-3.0294,-3.0199,-3.0487,-3.1685,-3.203,-3.2721,-3.4049,-3.4514,-3.5255,-3.6358,-3.634,-3.678,-3.7826,-3.7878,-3.8006,-3.8245,-3.8799,-3.9203,-3.946,-4.001,-3.9992,-3.9478,-4.0029,-3.9974,-3.9488,-4.0113,-4.0241,-4.003,-4.065,-4.0746,-4.0496,-4.0496,-4.0457,-4.0302,-3.9789,-3.9541,-3.9371,-3.1511,-3.1511,-3.1511,-3.1511,-3.1511,-3.1511,-3.1511,-3.1511,-3.1511,-3.1511,-3.1511,-3.1241,-3.0582,-3.0507,-2.9998,-2.8727,-2.8607,-2.8308,-2.7645,-2.6986,-2.6626,-2.6626,-2.5959,-2.5546,-2.541,-2.4761,-2.4543,-2.4822,-2.5598,-2.5861,-2.5625,-2.6353,-2.6691,-2.6691,-2.6691,-2.6691,-2.6674,-2.6209,-2.6013,-2.5906,-2.4851,-2.441,-2.4348,-2.3815,-2.3595,-2.3595,-2.3595,-2.3595,-2.3595,-2.3595,-2.3461,-2.3236,-2.2817,-2.2891,-2.3278,-2.4241,-2.5033,-2.5609,-2.5625,-2.6691,-2.7469,-2.5981,-2.6167,-2.6708,-2.6708,-2.7266,-2.7824,-2.7824,-2.845,-2.901,-2.9027,-2.9027,-2.9027,-2.9027,-2.9027,-2.9281,-3.0023,-3.0125,-3.0378,-3.1106,-3.1207,-3.1368,-3.177,-3.2534,-3.3188,-3.3582,-3.4306,-3.5296,-3.6653,-3.6483,-3.7055,-3.867,-3.8726,-3.9111,-3.9916,-3.9916,-4.0304,-4.1095,-4.1113,-4.1113,-4.1095,-4.1113,-4.1113,-4.1144,-4.1817,-4.1612,-4.0856,-4.1532,-4.1296,-4.0516,-4.0516,-4.0358,-4.009,-3.975,-3.9396,-3.9077,-3.1511,-3.1511,-3.1511,-3.1511,-3.1511,-3.1511,-3.1511,-3.1511,-3.1511,-3.1511,-3.1511,-3.1421,-3.1212,-3.0791,-3.0178,-2.9355,-2.8861,-2.8499,-2.8259,-2.8038,-2.8106,-2.8559,-2.6576,-2.5638,-2.6032,-2.5334,-2.5185,-2.5631,-2.588,-2.6128,-2.637,-2.659,-2.6691,-2.6691,-2.6691,-2.6691,-2.6674,-2.6209,-2.6013,-2.5943,-2.524,-2.4969,-2.4894,-2.4369,-2.4158,-2.4116,-2.3745,-2.3595,-2.3595,-2.3595,-2.3282,-2.2919,-2.3136,-2.3338,-2.3799,-2.516,-2.595,-2.6488,-2.6995,-2.7892,-2.8399,-2.7384,-2.7723,-2.8316,-2.8316,-2.8485,-2.8789,-2.9313,-2.96,-2.9922,-3.0446,-3.055,-3.055,-3.055,-3.055,-3.0615,-3.0835,-3.0869,-3.0954,-3.1173,-3.1667,-3.2032,-3.2137,-3.3315,-3.4274,-3.4774,-3.6132,-3.7281,-3.805,-3.8572,-3.9038,-3.9533,-4.0102,-4.0781,-4.157,-4.102,-4.0857,-4.1113,-4.168,-4.1662,-4.1113,-4.168,-4.1627,-4.1109,-4.1556,-4.1734,-4.1743,-4.2138,-4.2295,-4.2299,-4.201,-4.1857,-4.1726,-4.1192,-4.0546,-3.9979,-3.1511,-3.1511,-3.1511,-3.1511,-3.1511,-3.1511,-3.1511,-3.1511,-3.1511,-3.1511,-3.1511,-3.1316,-3.0793,-3.0387,-2.9774,-2.8903,-2.8671,-2.8549,-2.8494,-2.8709,-2.9127,-2.9739,-2.7924,-2.707,-2.7437,-2.6464,-2.6188,-2.6713,-2.6429,-2.6419,-2.6691,-2.6691,-2.6691,-2.6691,-2.6691,-2.6691,-2.6674,-2.6401,-2.6279,-2.6244,-2.5726,-2.5521,-2.5465,-2.4914,-2.4732,-2.4657,-2.4348,-2.4225,-2.4225,-2.4225,-2.4034,-2.3863,-2.4426,-2.4678,-2.4989,-2.614,-2.6836,-2.7354,-2.7788,-2.8658,-2.9313,-2.8821,-2.8856,-2.8993,-2.8993,-2.923,-2.955,-3.0023,-3.0565,-3.1106,-3.1565,-3.1867,-3.207,-3.207,-3.207,-3.207,-3.207,-3.207,-3.207,-3.207,-3.2459,-3.273,-3.273,-3.3795,-3.4849,-3.5685,-3.6908,-3.7969,-3.8804,-3.9527,-4.0047,-4.0359,-4.1167,-4.1809,-4.2304,-4.2139,-4.2047,-4.2066,-4.2543,-4.2525,-4.2066,-4.2543,-4.2506,-4.2064,-4.2387,-4.2557,-4.2592,-4.2878,-4.2947,-4.2832,-4.2592,-4.2343,-4.2107,-4.1735,-4.1181,-4.0651,-3.1511,-3.1511,-3.1511,-3.1511,-3.1511,-3.1511,-3.1511,-3.1511,-3.1511,-3.1511,-3.1451,-3.0957,-2.9816,-2.9592,-2.9052,-2.7884,-2.8348,-2.8721,-2.8753,-2.9284,-2.9858,-3.0455,-2.9766,-2.9386,-2.9386,-2.7916,-2.7361,-2.7807,-2.7063,-2.6725,-2.6793,-2.6793,-2.6826,-2.6911,-2.6911,-2.6911,-2.6911,-2.6911,-2.686,-2.6759,-2.6411,-2.6183,-2.6013,-2.5549,-2.5326,-2.5278,-2.5221,-2.5234,-2.5298,-2.5304,-2.5365,-2.5531,-2.6147,-2.6355,-2.6488,-2.6988,-2.7586,-2.8115,-2.8115,-2.9107,-3.0116,-3.0116,-2.9698,-2.9281,-2.9213,-2.977,-3.0311,-3.0311,-3.141,-3.2395,-3.2395,-3.2949,-3.3406,-3.3406,-3.3406,-3.3406,-3.3406,-3.3406,-3.3406,-3.3406,-3.3457,-3.3508,-3.3508,-3.4283,-3.5271,-3.6489,-3.7138,-3.797,-3.9118,-3.978,-4.0451,-4.1168,-4.1992,-4.2415,-4.2415,-4.313,-4.3515,-4.3515,-4.3515,-4.3515,-4.3515,-4.3515,-4.3513,-4.3546,-4.3852,-4.3745,-4.3448,-4.3715,-4.3371,-4.268,-4.2648,-4.229,-4.1808,-4.1779,-4.1539,-4.1205,-3.1511,-3.1511,-3.1511,-3.1511,-3.1511,-3.1511,-3.1511,-3.1511,-3.1511,-3.1511,-3.1032,-3.0612,-3.0342,-2.9415,-2.8906,-2.9157,-2.9751,-3.0351,-3.0807,-3.0924,-3.1241,-3.1836,-3.115,-3.078,-3.078,-2.8708,-2.7701,-2.7807,-2.7063,-2.6996,-2.7553,-2.7553,-2.7909,-2.8502,-2.8502,-2.8502,-2.8502,-2.8502,-2.8129,-2.7621,-2.8141,-2.7634,-2.6555,-2.6658,-2.6325,-2.5762,-2.5354,-2.5573,-2.6074,-2.6183,-2.5911,-2.5567,-2.5741,-2.6054,-2.6421,-2.6532,-2.7373,-2.8276,-2.8276,-2.9254,-3.0245,-3.0245,-3.0925,-3.143,-3.0835,-3.1295,-3.1819,-3.1819,-3.2527,-3.3169,-3.3169,-3.3288,-3.3406,-3.3406,-3.3406,-3.3406,-3.3406,-3.3406,-3.3406,-3.3406,-3.3914,-3.4252,-3.4252,-3.5878,-3.7193,-3.7837,-3.8969,-3.966,-3.9719,-4.1026,-4.1864,-4.2029,-4.2818,-4.3239,-4.3239,-4.3423,-4.3515,-4.3515,-4.3515,-4.3515,-4.3515,-4.3515,-4.3646,-4.3881,-4.3693,-4.3881,-4.4303,-4.4069,-4.4038,-4.4121,-4.3801,-4.359,-4.3449,-4.3176,-4.2645,-4.2047,-3.1511,-3.1511,-3.1511,-3.1511,-3.1511,-3.1511,-3.1511,-3.1511,-3.1391,-3.1062,-3.0731,-3.0268,-2.9654,-2.8996,-2.8742,-2.9086,-2.9995,-3.083,-3.1454,-3.2027,-3.2358,-3.229,-3.1938,-3.1546,-3.1207,-2.9702,-2.872,-2.8383,-2.7977,-2.7807,-2.7807,-2.8179,-2.8602,-2.8993,-2.8993,-2.8993,-2.8993,-2.8993,-2.8773,-2.8416,-2.884,-2.8519,-2.7773,-2.7541,-2.7182,-2.6781,-2.6132,-2.6387,-2.7052,-2.7219,-2.7285,-2.729,-2.7049,-2.7179,-2.735,-2.7062,-2.786,-2.888,-2.888,-2.9824,-3.0894,-3.1221,-3.1823,-3.224,-3.1807,-3.231,-3.2814,-3.2814,-3.3406,-3.3931,-3.3931,-3.4218,-3.4433,-3.4433,-3.4433,-3.4433,-3.4433,-3.4433,-3.4433,-3.4433,-3.4793,-3.528,-3.5925,-3.6968,-3.8061,-3.9165,-3.9895,-4.0526,-4.1022,-4.1846,-4.2488,-4.2855,-4.3277,-4.3515,-4.3515,-4.3515,-4.3515,-4.3515,-4.3515,-4.3515,-4.3515,-4.3679,-4.3833,-4.4001,-4.402,-4.4337,-4.4812,-4.4428,-4.4419,-4.4553,-4.4146,-4.3893,-4.3742,-4.3563,-4.3222,-4.2873,-3.1511,-3.1511,-3.1511,-3.1511,-3.1511,-3.1511,-3.1511,-3.1511,-3.1301,-3.0746,-3.0567,-3.0058,-2.8891,-2.8667,-2.8652,-2.8757,-2.9846,-3.0839,-3.1644,-3.2445,-3.2736,-3.2332,-3.2083,-3.1719,-3.1207,-3.0598,-2.9922,-2.9196,-2.9061,-2.8721,-2.8213,-2.8873,-2.9264,-2.9382,-2.9382,-2.9382,-2.9382,-2.9382,-2.9297,-2.9213,-2.9331,-2.9213,-2.8942,-2.8398,-2.8111,-2.7908,-2.7165,-2.7298,-2.7914,-2.8331,-2.8812,-2.9174,-2.8777,-2.8583,-2.8391,-2.791,-2.8505,-2.935,-2.935,-3.0288,-3.1381,-3.1945,-3.2321,-3.2568,-3.253,-3.3073,-3.3592,-3.3592,-3.4167,-3.4726,-3.4861,-3.5284,-3.565,-3.5769,-3.5684,-3.56,-3.56,-3.56,-3.56,-3.56,-3.56,-3.6145,-3.7512,-3.7839,-3.8617,-4.0235,-4.0655,-4.1268,-4.2251,-4.2433,-4.28,-4.3478,-4.3515,-4.3515,-4.3515,-4.3515,-4.3515,-4.3515,-4.3515,-4.3531,-4.3597,-4.3881,-4.4058,-4.4204,-4.4487,-4.4763,-4.4977,-4.4644,-4.446,-4.4378,-4.4046,-4.374,-4.3515,-4.3515,-4.3515,-4.3515,-3.1511,-3.1511,-3.1511,-3.1511,-3.1511,-3.1511,-3.1511,-3.1511,-3.1466,-3.1376,-3.0866,-3.0238,-2.952,-2.8951,-2.8831,-2.9427,-3.0145,-3.1134,-3.2376,-3.1477,-3.1346,-3.2347,-3.1224,-3.0779,-3.119,-3.1106,-3.0683,-2.9956,-2.9314,-2.9262,-2.9785,-2.9905,-3.0294,-3.0886,-3.0886,-3.0886,-3.0886,-3.0886,-3.0531,-3.0023,-3.0649,-3.0144,-2.9061,-2.96,-2.9397,-2.8739,-2.7943,-2.7823,-2.8259,-2.9552,-2.9707,-2.9367,-2.9307,-2.8919,-2.8487,-2.8391,-2.853,-2.8707,-2.8707,-2.9653,-3.0643,-3.0729,-3.2047,-3.3357,-3.3327,-3.3863,-3.4336,-3.4336,-3.4945,-3.5673,-3.6372,-3.5994,-3.5842,-3.6502,-3.6062,-3.56,-3.56,-3.56,-3.56,-3.56,-3.56,-3.6203,-3.7719,-3.8746,-3.9671,-4.0509,-4.2122,-4.284,-4.2341,-4.2947,-4.3404,-4.3515,-4.3515,-4.3515,-4.3515,-4.3515,-4.3515,-4.3515,-4.3515,-4.3646,-4.3924,-4.3986,-4.4359,-4.4943,-4.4695,-4.4637,-4.4631,-4.4233,-4.3912,-4.3647,-4.358,-4.3548,-4.3515,-4.3515,-4.3515,-4.3515,-3.1511,-3.1511,-3.1511,-3.1511,-3.1511,-3.1376,-3.0987,-3.1256,-3.1241,-3.0537,-3.0477,-3.0268,-2.9681,-2.9352,-2.94,-3.0043,-3.0717,-3.1697,-3.3077,-3.2884,-3.2818,-3.2944,-3.2352,-3.1758,-3.1207,-3.119,-3.1038,-3.0717,-3.0378,-3.0176,-3.0125,-3.0531,-3.0886,-3.119,-3.119,-3.119,-3.119,-3.119,-3.1004,-3.0734,-3.1072,-3.0801,-3.0228,-3.0142,-2.9905,-2.9499,-2.8738,-2.8794,-2.9326,-2.9978,-3.0285,-3.0351,-3.0016,-2.9998,-2.9982,-2.9262,-2.9658,-3.019,-2.9763,-3.0353,-3.1153,-3.1554,-3.2631,-3.3657,-3.4043,-3.4971,-3.5797,-3.5797,-3.569,-3.5859,-3.666,-3.6146,-3.5853,-3.6677,-3.6129,-3.5752,-3.6214,-3.6265,-3.6417,-3.6857,-3.6867,-3.7558,-3.9294,-3.9919,-4.0768,-4.2118,-4.3013,-4.3332,-4.2983,-4.3296,-4.3515,-4.3515,-4.3515,-4.3515,-4.3515,-4.3515,-4.3515,-4.3515,-4.3515,-4.3679,-4.4016,-4.4233,-4.4612,-4.5096,-4.514,-4.5044,-4.4861,-4.4501,-4.4121,-4.3756,-4.3563,-4.3515,-4.3515,-4.3515,-4.3515,-4.3515]},{"header":{"parameterUnit":"m.s-1","parameterCategory":1,"la1":30.6,"la2":28.766,"lo1":-90.7593,"lo2":-88.6598,"dy":0.0162,"dx":0.0183,"nx":116,"ny":114,"refTime":"2023-09-01T06:00:00:Z","depth":0,"parameterNumber":3,"parameterNumberName":"V-component_of_WINDS"},"data":[0.0,0.0,0.0,0.0,0.0,0.0,0.0,0.0,0.0,0.0,0.0,0.0,0.0,0.0,0.0,0.0,0.0,0.0,0.0,0.0,0.0,0.0,0.0,0.0,0.0,0.0,0.0,0.0,0.0,0.0,0.0,0.0,0.0,0.0,0.0,0.0,0.0,0.0,0.0,0.0,0.0,0.0,0.0,0.0,0.0,0.0,0.0,0.0,0.0,0.0,0.0,0.0,0.0,0.0,0.0,0.0,0.0,0.0,0.0,0.0,0.0,0.0,0.0,0.0,0.0,0.0,0.0,0.0,0.0,0.0,0.0,0.0,0.0,0.0,0.0,0.0,0.0,0.0,0.0,0.0,0.0,0.0,0.0,0.0,0.0,0.0,0.0,0.0,0.0,0.0,0.0,0.0,0.0,0.0,0.0,0.0,0.0,0.0,0.0,0.0,0.0,0.0,0.0,0.0,0.0,0.0,0.0,0.0,0.0,0.0,0.0,0.0,0.0,0.0,0.0,0.0,0.0,0.0,0.0,0.0,0.0,0.0,0.0,0.0,0.0,0.0,0.0,0.0,0.0,0.0,0.0,0.0,0.0,0.0,0.0,0.0,0.0,0.0,0.0,0.0,0.0,0.0,0.0,0.0,0.0,0.0,0.0,0.0,0.0,0.0,0.0,0.0,0.0,0.0,0.0,0.0,0.0,0.0,0.0,0.0,0.0,0.0,0.0,0.0,0.0,0.0,0.0,0.0,0.0,0.0,0.0,0.0,0.0,0.0,0.0,0.0,0.0,0.0,0.0,0.0,0.0,0.0,0.0,0.0,0.0,0.0,0.0,0.0,0.0,0.0,0.0,0.0,0.0,0.0,0.0,0.0,0.0,0.0,0.0,0.0,0.0,0.0,0.0,0.0,0.0,0.0,0.0,0.0,0.0,0.0,0.0,0.0,0.0,0.0,0.0,0.0,0.0,0.0,0.0,0.0,0.0,0.0,0.0,0.0,0.0,0.0,0.0,0.0,0.0,0.0,0.0,0.0,0.0,0.0,0.0,0.0,0.0,0.0,0.0,0.0,0.0,0.0,0.0,0.0,0.0,0.0,0.0,0.0,0.0,0.0,0.0,0.0,0.0,0.0,0.0,0.0,0.0,0.0,0.0,0.0,0.0,0.0,0.0,0.0,0.0,0.0,0.0,0.0,0.0,0.0,0.0,0.0,0.0,0.0,0.0,0.0,0.0,0.0,0.0,0.0,0.0,0.0,0.0,0.0,0.0,0.0,0.0,0.0,0.0,0.0,0.0,0.0,0.0,0.0,0.0,0.0,0.0,0.0,0.0,0.0,0.0,0.0,0.0,0.0,0.0,0.0,0.0,0.0,0.0,0.0,0.0,0.0,0.0,0.0,0.0,0.0,0.0,0.0,0.0,0.0,0.0,0.0,0.0,0.0,0.0,0.0,0.0,0.0,0.0,0.0,0.0,0.0,0.0,0.0,0.0,0.0,0.0,0.0,0.0,0.0,0.0,0.0,0.0,0.0,0.0,0.0,0.0,0.0,0.0,0.0,0.0,0.0,0.0,0.0,0.0,0.0,0.0,0.0,0.0,0.0,0.0,0.0,0.0,0.0,0.0,0.0,0.0,0.0,0.0,0.0,0.0,0.0,0.0,0.0,0.0,0.0,0.0,0.0,0.0,0.0,0.0,0.0,0.0,0.0,0.0,0.0,0.0,0.0,0.0,0.0,0.0,0.0,0.0,0.0,0.0,0.0,0.0,0.0,0.0,0.0,0.0,0.0,0.0,0.0,0.0,0.0,0.0,0.0,0.0,0.0,0.0,0.0,0.0,0.0,0.0,0.0,0.0,0.0,0.0,0.0,0.0,0.0,0.0,0.0,0.0,0.0,0.0,0.0,0.0,0.0,0.0,0.0,0.0,0.0,0.0,0.0,0.0,0.0,0.0,0.0,0.0,0.0,0.0,0.0,0.0,0.0,0.0,0.0,0.0,0.0,0.0,0.0,0.0,0.0,0.0,0.0,0.0,0.0,0.0,0.0,0.0,0.0,0.0,0.0,0.0,0.0,0.0,0.0,0.0,0.0,0.0,0.0,0.0,0.0,0.0,0.0,0.0,0.0,0.0,0.0,0.0,0.0,0.0,0.0,0.0,0.0,0.0,0.0,0.0,0.0,0.0,0.0,0.0,0.0,0.0,0.0,0.0,0.0,0.0,0.0,0.0,0.0,0.0,0.0,0.0,0.0,0.0,0.0,0.0,0.0,0.0,0.0,0.0,0.0,0.0,0.0,0.0,0.0,0.0,0.0,0.0,0.0,0.0,0.0,0.0,0.0,0.0,0.0,0.0,0.0,0.0,0.0,0.0,0.0,0.0,0.0,0.0,0.0,0.0,0.0,0.0,0.0,0.0,0.0,0.0,0.0,0.0,0.0,0.0,0.0,0.0,0.0,0.0,0.0,0.0,0.0,0.0,0.0,0.0,0.0,0.0,0.0,0.0,0.0,0.0,0.0,0.0,0.0,0.0,0.0,0.0,0.0,0.0,0.0,0.0,0.0,0.0,0.0,0.0,0.0,0.0,0.0,0.0,0.0,0.0,0.0,0.0,0.0,0.0,0.0,0.0,0.0,0.0,0.0,0.0,0.0,0.0,0.0,0.0,0.0,0.0,0.0,0.0,0.0,0.0,0.0,0.0,0.0,0.0,0.0,0.0,0.0,0.0,0.0,0.0,0.0,0.0,0.0,0.0,0.0,0.0,0.0,0.0,0.0,0.0,0.0,0.0,0.0,0.0,0.0,0.0,0.0,0.0,0.0,0.0,0.0,0.0,0.0,0.0,0.0,0.0,0.0,0.0,0.0,0.0,0.0,0.0,0.0,0.0,0.0,0.0,0.0,0.0,0.0,0.0,0.0,0.0,0.0,0.0,0.0,0.0,0.0,0.0,0.0,0.0,0.0,0.0,0.0,0.0,0.0,0.0,0.0,0.0,0.0,0.0,0.0,0.0,0.0,0.0,0.0,0.0,0.0,0.0,0.0,0.0,0.0,0.0,0.0,0.0,0.0,0.0,0.0,0.0,0.0,0.0,0.0,0.0,0.0,0.0,0.0,0.0,0.0,0.0,0.0,0.0,0.0,0.0,0.0,0.0,0.0,0.0,0.0,0.0,0.0,0.0,0.0,0.0,0.0,0.0,0.0,0.0,0.0,0.0,0.0,0.0,0.0,0.0,0.0,0.0,0.0,0.0,0.0,0.0,0.0,0.0,0.0,0.0,0.0,0.0,0.0,0.0,0.0,0.0,0.0,0.0,0.0,0.0,0.0,0.0,0.0,0.0,0.0,0.0,0.0,0.0,0.0,0.0,0.0,0.0,0.0,0.0,0.0,0.0,0.0,0.0,0.0,0.0,0.0,0.0,0.0,0.0,0.0,0.0,0.0,0.0,0.0,0.0,0.0,0.0,0.0,0.0,0.0,0.0,0.0,0.0,0.0,0.0,0.0,0.0,0.0,0.0,0.0,0.0,0.0,0.0,0.0,0.0,0.0,0.0,0.0,0.0,0.0,0.0,0.0,0.0,0.0,0.0,0.0,0.0,0.0,0.0,0.0,0.0,0.0,0.0,0.0,0.0,0.0,0.0,0.0,0.0,0.0,0.0,0.0,0.0,0.0,0.0,0.0,0.0,0.0,0.0,0.0,0.0,0.0,0.0,0.0,0.0,0.0,0.0,0.0,0.0,0.0,0.0,0.0,0.0,0.0,0.0,0.0,0.0,0.0,0.0,0.0,0.0,0.0,0.0,0.0,0.0,0.0,0.0,0.0,0.0,0.0,0.0,0.0,0.0,0.0,0.0,0.0,0.0,0.0,0.0,0.0,0.0,0.0,0.0,0.0,0.0,0.0,0.0,0.0,0.0,0.0,0.0,0.0,0.0,0.0,0.0,0.0,0.0,0.0,0.0,0.0,0.0,0.0,0.0,0.0,0.0,0.0,0.0,0.0,0.0,0.0,0.0,0.0,0.0,0.0,0.0,0.0,0.0,0.0,0.0,0.0,0.0,0.0,0.0,0.0,0.0,0.0,0.0,0.0,0.0,0.0,0.0,0.0,0.0,0.0,0.0,0.0,0.0,0.0,0.0,0.0,0.0,0.0,0.0,0.0,0.0,0.0,0.0,0.0,0.0,0.0,0.0,0.0,0.0,0.0,0.0,0.0,0.0,0.0,0.0,0.0,0.0,0.0,0.0,0.0,0.0,0.0,0.0,0.0,0.0,0.0,0.0,0.0,0.0,0.0,0.0,0.0,0.0,0.0,0.0,0.0,0.0,0.0,0.0,0.0,0.0,0.0,0.0,0.0,0.0,0.0,0.0,0.0,0.0,0.0,0.0,0.0,0.0,0.0,0.0,0.0,0.0,0.0,0.0,0.0,0.0,0.0,0.0,0.0,0.0,0.0,0.0,0.0,0.0,0.0,0.0,0.0,0.0,0.0,0.0,0.0,0.0,0.0,0.0,0.0,0.0,0.0,0.0,0.0,0.0,0.0,0.0,0.0,0.0,0.0,0.0,0.0,0.0,0.0,0.0,0.0,0.0,0.0,0.0,0.0,0.0,0.0,0.0,0.0,0.0,0.0,0.0,0.0,0.0,0.0,0.0,0.0,0.0,0.0,0.0,0.0,0.0,0.0,0.0,0.0,0.0,0.0,0.0,0.0,0.0,0.0,0.0,0.0,0.0,0.0,0.0,0.0,0.0,0.0,0.0,0.0,0.0,0.0,0.0,0.0,0.0,0.0,0.0,0.0,0.0,0.0,0.0,0.0,0.0,0.0,0.0,0.0,0.0,0.0,0.0,0.0,0.0,0.0,0.0,0.0,0.0,0.0,0.0,0.0,0.0,0.0,0.0,0.0,0.0,0.0,0.0,0.0,0.0,0.0,0.0,0.0,0.0,0.0,0.0,0.0,0.0,0.0,0.0,0.0,0.0,0.0,0.0,0.0,0.0,0.0,0.0,0.0,0.0,0.0,0.0,0.0,0.0,0.0,0.0,0.0,0.0,0.0,0.0,0.0,0.0,0.0,0.0,0.0,0.0,0.0,0.0,0.0,0.0,0.0,0.0,0.0,0.0,0.0,0.0,0.0,0.0,0.0,0.0,0.0,0.0,0.0,0.0,0.0,0.0,0.0,0.0,0.0,0.0,0.0,0.0,0.0,0.0,0.0,0.0,0.0,0.0,0.0,0.0,0.0,0.0,0.0,0.0,0.0,0.0,0.0,0.0,0.0,0.0,0.0,0.0,0.0,0.0,0.0,0.0,0.0,0.0,0.0,0.0,0.0,0.0,0.0,0.0,0.0,0.0,0.0,0.0,0.0,0.0,0.0,0.0,0.0,0.0,0.0,0.0,0.0,0.0,0.0,0.0,0.0,0.0,0.0,0.0,0.0,0.0,0.0,0.0,0.0,0.0,0.0,0.0,0.0,0.0,0.0,0.0,0.0,0.0,0.0,0.0,0.0,0.0,0.0,0.0,0.0,0.0,0.0,0.0,0.0,0.0,0.0,0.0,0.0,0.0,0.0,0.0,0.0,0.0,0.0,0.0,0.0,0.0,0.0,0.0,0.0,0.0,0.0,0.0,0.0,0.0,0.0,0.0,0.0,0.0,0.0,0.0,0.0,0.0,0.0,0.0,0.0,0.0,0.0,0.0,0.0,0.0,0.0,0.0,0.0,0.0,0.0,0.0,0.0,0.0,0.0,0.0,0.0,0.0,0.0,0.0,0.0,0.0,0.0,0.0,0.0,0.0,0.0,0.0,0.0,0.0,0.0,0.0,0.0,0.0,0.0,0.0,0.0,0.0,0.0,0.0,0.0,0.0,0.0,0.0,0.0,0.0,0.0,0.0,0.0,0.0,0.0,0.0,0.0,0.0,0.0,0.0,0.0,0.0,0.0,0.0,0.0,0.0,0.0,0.0,0.0,0.0,0.0,0.0,0.0,0.0,0.0,0.0,0.0,0.0,0.0,0.0,0.0,0.0,0.0,0.0,0.0,0.0,0.0,0.0,0.0,0.0,0.0,0.0,0.0,0.0,0.0,0.0,0.0,0.0,0.0,0.0,0.0,0.0,0.0,0.0,0.0,2.8588,0.0,0.0,0.0,0.0,0.0,0.0,0.0,0.0,0.0,0.0,0.0,0.0,0.0,0.0,0.0,0.0,0.0,0.0,0.0,0.0,0.0,0.0,0.0,0.0,0.0,0.0,0.0,0.0,0.0,0.0,0.0,0.0,0.0,0.0,0.0,0.0,0.0,0.0,2.9574,2.9574,2.9971,3.0736,3.3456,3.3487,3.1306,0.0,0.0,0.0,0.0,0.0,0.0,0.0,0.0,0.0,0.0,0.0,0.0,0.0,0.0,0.0,0.0,0.0,0.0,0.0,0.0,0.0,0.0,0.0,0.0,0.0,0.0,0.0,0.0,0.0,0.0,0.0,0.0,0.0,0.0,0.0,0.0,0.0,0.0,0.0,0.0,0.0,0.0,0.0,0.0,0.0,0.0,0.0,0.0,0.0,0.0,0.0,0.0,0.0,0.0,0.0,0.0,0.0,0.0,0.0,0.0,0.0,0.0,0.0,0.0,0.0,0.0,0.0,0.0,0.0,0.0,0.0,2.8753,0.0,0.0,0.0,0.0,0.0,0.0,0.0,0.0,0.0,0.0,0.0,0.0,0.0,0.0,0.0,0.0,0.0,0.0,0.0,0.0,0.0,0.0,0.0,2.9173,2.9453,2.9896,2.9814,2.9887,0.0,0.0,0.0,0.0,0.0,0.0,0.0,2.9145,2.9335,2.9989,3.0265,3.1568,3.3839,3.576,3.4169,2.9839,3.2873,0.0,0.0,0.0,0.0,0.0,0.0,0.0,0.0,0.0,0.0,0.0,0.0,0.0,0.0,0.0,0.0,0.0,0.0,0.0,0.0,0.0,0.0,0.0,0.0,0.0,0.0,0.0,0.0,0.0,0.0,0.0,0.0,0.0,0.0,0.0,0.0,0.0,0.0,0.0,0.0,0.0,0.0,0.0,0.0,0.0,0.0,0.0,0.0,0.0,0.0,0.0,0.0,0.0,0.0,0.0,0.0,0.0,0.0,0.0,0.0,0.0,0.0,0.0,3.9117,3.9683,3.9635,3.9686,3.9217,3.8173,3.5231,3.2479,2.9941,0.0,0.0,0.0,0.0,0.0,0.0,0.0,0.0,0.0,0.0,0.0,0.0,0.0,0.0,0.0,0.0,0.0,0.0,0.0,0.0,0.0,0.0,2.9828,3.0502,3.0808,3.0961,3.1161,3.1463,0.0,0.0,0.0,0.0,0.0,2.9402,2.9145,2.906,2.9152,3.0558,3.2131,3.3839,3.5844,3.5962,3.4535,3.5474,3.6782,3.8111,0.0,0.0,0.0,0.0,0.0,0.0,0.0,0.0,0.0,0.0,0.0,0.0,0.0,0.0,0.0,0.0,0.0,0.0,0.0,0.0,0.0,0.0,0.0,0.0,0.0,0.0,0.0,0.0,0.0,0.0,0.0,0.0,0.0,0.0,0.0,0.0,0.0,0.0,0.0,0.0,0.0,2.8549,2.7972,0.0,0.0,0.0,0.0,0.0,0.0,0.0,0.0,0.0,0.0,0.0,0.0,0.0,3.8672,3.791,4.0398,4.1314,4.0703,4.2973,4.4108,4.414,4.4141,4.3672,4.2773,4.1504,0.0,3.2501,3.0057,0.0,0.0,0.0,0.0,0.0,0.0,0.0,0.0,0.0,0.0,0.0,0.0,0.0,0.0,0.0,0.0,0.0,0.0,0.0,0.0,0.0,3.1182,3.2406,3.3235,3.4696,3.4864,3.3212,3.3107,0.0,0.0,0.0,2.9748,2.9748,2.9504,3.0099,3.1532,3.4339,3.6335,3.7553,3.9608,4.0448,4.0239,4.0443,3.9414,3.7504,3.6687,0.0,0.0,0.0,0.0,0.0,0.0,0.0,0.0,0.0,0.0,0.0,0.0,0.0,0.0,0.0,0.0,0.0,0.0,0.0,0.0,0.0,0.0,0.0,0.0,0.0,0.0,0.0,0.0,0.0,0.0,0.0,0.0,0.0,0.0,0.0,0.0,0.0,0.0,0.0,2.9333,3.0598,2.885,3.0974,3.1753,0.0,0.0,0.0,0.0,0.0,0.0,0.0,0.0,0.0,3.8685,4.0878,4.1855,4.1465,4.4001,4.5114,4.4824,4.6383,4.7165,4.7187,4.668,4.6209,4.5708,4.4302,4.1746,3.8263,3.4744,3.2477,3.1037,0.0,0.0,0.0,0.0,2.7281,2.7678,0.0,0.0,0.0,0.0,0.0,0.0,0.0,0.0,0.0,0.0,0.0,0.0,3.1075,3.2714,3.4339,3.5931,3.787,3.7904,3.5346,3.4968,3.3692,3.1154,3.0373,3.0006,3.0006,3.0438,3.2014,3.4784,3.8,4.0093,4.1196,4.3157,4.417,4.4324,4.4572,4.231,3.8305,3.8134,3.646,3.391,0.0,0.0,0.0,0.0,0.0,0.0,0.0,0.0,0.0,0.0,0.0,0.0,0.0,0.0,0.0,0.0,0.0,0.0,0.0,0.0,0.0,0.0,0.0,0.0,0.0,0.0,0.0,0.0,0.0,0.0,0.0,0.0,0.0,0.0,0.0,0.0,0.0,3.1,3.218,2.9236,3.2675,3.4159,0.0,0.0,0.0,0.0,0.0,0.0,3.9088,4.0848,4.2001,4.245,4.4506,4.5524,4.5309,4.7216,4.815,4.817,4.8861,4.9294,4.947,4.8632,4.8061,4.7633,4.5994,4.4333,4.2501,3.8468,3.5107,3.2353,3.095,3.0066,2.9437,2.8452,2.8591,2.9169,0.0,0.0,0.0,0.0,0.0,0.0,0.0,0.0,0.0,0.0,0.0,2.9412,3.2721,3.4235,3.5989,3.8485,3.9068,3.8865,3.7873,3.4814,3.2949,3.2776,3.0992,3.0006,3.0006,3.2158,3.4925,3.8242,3.997,4.1597,4.3184,4.4885,4.5485,4.519,4.6336,4.5814,4.383,3.9875,3.7698,3.6625,3.3709,0.0,0.0,0.0,0.0,0.0,0.0,0.0,0.0,0.0,0.0,0.0,0.0,0.0,0.0,0.0,0.0,0.0,0.0,0.0,0.0,0.0,0.0,0.0,0.0,0.0,0.0,0.0,0.0,0.0,0.0,0.0,0.0,0.0,0.0,0.0,0.0,0.0,0.0,2.8559,3.3951,0.0,0.0,0.0,0.0,3.8142,3.9743,4.1824,4.4472,4.6269,4.7969,4.9629,5.0411,5.0464,4.9681,4.9699,4.9698,4.9683,4.9864,5.0347,5.1052,5.0386,4.9545,4.8567,4.7208,4.5248,4.2819,3.9356,3.6634,3.4406,3.1929,3.0455,2.9476,2.7655,2.7965,2.8967,0.0,0.0,0.0,0.0,0.0,0.0,0.0,0.0,2.9189,2.9702,3.0483,3.2027,3.4706,3.7301,3.9584,4.1438,4.2676,4.2285,3.9765,3.745,3.5699,3.4615,3.2832,3.2626,3.4283,3.5124,3.7217,4.0623,4.2356,4.4057,4.5671,4.5814,4.6345,4.7185,4.7104,4.6746,4.5949,4.2767,4.0032,3.7589,3.5069,3.3067,0.0,0.0,0.0,0.0,0.0,0.0,0.0,0.0,0.0,0.0,0.0,0.0,0.0,0.0,0.0,0.0,0.0,0.0,0.0,0.0,0.0,0.0,0.0,0.0,0.0,0.0,0.0,0.0,0.0,0.0,0.0,0.0,0.0,0.0,0.0,0.0,0.0,3.3847,3.757,0.0,3.623,3.7349,3.8994,4.0808,4.3018,4.5229,4.7383,4.9648,5.113,5.1655,5.2457,5.2422,5.1479,5.1439,5.1142,5.0641,5.0735,5.0928,5.1167,5.0428,4.9405,4.8165,4.6684,4.4652,4.2226,4.0291,3.8056,3.5557,3.2155,3.0438,2.9733,2.8612,2.8703,2.9303,0.0,0.0,0.0,0.0,0.0,0.0,0.0,0.0,2.8877,2.9684,3.1262,3.3302,3.5982,3.9022,4.1609,4.3444,4.4451,4.3789,4.0969,3.875,3.6949,3.5558,3.4385,3.4834,3.7084,3.7867,3.9629,4.2476,4.413,4.5356,4.6199,4.6417,4.6909,4.7647,4.7555,4.7498,4.737,4.5361,4.2449,3.8997,3.6772,3.5133,3.3739,0.0,0.0,0.0,0.0,0.0,0.0,0.0,0.0,0.0,0.0,0.0,0.0,0.0,0.0,0.0,0.0,0.0,0.0,0.0,0.0,0.0,0.0,0.0,0.0,0.0,0.0,0.0,0.0,0.0,0.0,0.0,0.0,0.0,0.0,0.0,3.7828,3.7504,4.0458,4.1725,3.974,4.0631,4.2114,4.4059,4.6551,4.8743,5.0462,5.2709,5.3926,5.3883,5.3783,5.3413,5.2748,5.2078,5.1528,5.102,5.1117,5.118,5.1186,5.0657,4.9554,4.8033,4.684,4.4752,4.2065,4.0352,3.8379,3.6094,3.2542,3.0201,2.8662,2.802,2.8296,2.9188,0.0,0.0,0.0,0.0,0.0,0.0,0.0,2.778,2.8117,2.8968,3.0685,3.3125,3.6515,3.9283,4.1902,4.4398,4.406,4.3035,4.1415,3.8394,3.6346,3.5615,3.5596,3.6423,3.8127,4.0233,4.2129,4.3825,4.5168,4.5407,4.4699,4.6729,4.7248,4.6525,4.7721,4.8288,4.8251,4.7443,4.4856,4.1091,3.8845,3.7648,3.6801,0.0,0.0,0.0,0.0,0.0,0.0,0.0,0.0,0.0,0.0,0.0,0.0,0.0,0.0,0.0,0.0,0.0,0.0,0.0,0.0,0.0,0.0,0.0,0.0,0.0,0.0,0.0,0.0,0.0,0.0,0.0,0.0,0.0,3.4096,3.7712,3.9873,3.906,4.2362,4.4073,4.2488,4.4519,4.6485,4.7859,5.029,5.2336,5.3749,5.5435,5.6438,5.6562,5.4668,5.3643,5.3633,5.1741,5.0831,5.0942,5.105,5.1141,5.1191,5.1182,5.0121,4.8279,4.7713,4.5609,4.2366,3.9532,3.7571,3.6091,3.3138,2.9642,2.6225,2.5746,2.6702,2.8682,0.0,0.0,0.0,0.0,0.0,0.0,0.0,2.742,2.8503,3.0485,3.3248,3.5927,3.8275,4.1283,4.3627,4.4862,4.3145,4.1896,4.1679,3.8001,3.6269,3.7276,3.7911,3.9487,4.2154,4.1617,4.2319,4.4379,4.5631,4.6115,4.5929,4.6827,4.7463,4.7758,4.7518,4.7736,4.8251,4.7443,4.6452,4.5185,4.2103,4.0409,3.9455,0.0,0.0,0.0,0.0,0.0,0.0,0.0,0.0,0.0,0.0,0.0,0.0,0.0,0.0,0.0,0.0,0.0,0.0,0.0,0.0,0.0,0.0,0.0,0.0,0.0,0.0,0.0,0.0,0.0,0.0,0.0,0.0,3.6731,3.7495,3.885,4.0549,4.2688,4.3812,4.4748,4.5602,4.621,4.7271,4.901,5.1221,5.2953,5.4026,5.4952,5.5652,5.6087,5.5173,5.4591,5.4393,5.3333,5.2498,5.1917,5.1402,5.115,5.1111,5.0833,4.9873,4.8372,4.695,4.4728,4.1975,4.0281,3.8338,3.5922,3.0987,2.7857,2.6054,2.5308,2.7272,3.0487,0.0,0.0,0.0,0.0,0.0,0.0,0.0,2.6853,2.8146,3.013,3.3844,3.6734,3.7854,4.0874,4.269,4.2434,4.0856,3.951,3.868,3.6764,3.6593,3.8697,3.9852,4.1575,4.399,4.3321,4.3723,4.535,4.6248,4.6513,4.6198,4.7151,4.7663,4.7791,4.7663,4.7846,4.8269,4.7791,4.759,4.7407,4.5249,4.3787,4.2574,3.9552,3.8011,3.7192,3.5369,3.4818,3.4694,3.2891,0.0,0.0,0.0,0.0,0.0,0.0,0.0,0.0,0.0,0.0,0.0,0.0,0.0,0.0,0.0,0.0,0.0,0.0,0.0,0.0,0.0,0.0,0.0,0.0,3.7238,3.91,4.0363,4.1052,4.2401,4.4988,4.5177,4.5644,4.7028,4.6831,4.7141,4.8434,5.0239,5.1776,5.2875,5.3693,5.4652,5.5777,5.4936,5.4429,5.4316,5.3482,5.264,5.1834,5.1386,5.115,5.1141,5.0997,5.0258,0.0,4.8163,4.6291,4.3728,4.2356,4.0608,0.0,0.0,0.0,0.0,0.0,2.7688,3.1082,0.0,0.0,0.0,0.0,0.0,0.0,0.0,2.6283,2.7415,2.8853,3.313,3.6052,3.6009,3.8817,4.0136,3.8732,3.8011,3.6758,3.4657,3.5627,3.7486,4.0159,4.164,4.31,4.458,4.5088,4.5664,4.6343,4.6947,4.6856,4.6214,4.7829,4.8159,4.7406,4.8141,4.8398,4.8306,4.8306,4.8306,4.8252,4.7916,4.7049,4.5654,4.2454,4.1537,4.1599,3.835,3.6859,3.6299,3.527,0.0,0.0,0.0,0.0,0.0,0.0,0.0,0.0,0.0,0.0,0.0,0.0,0.0,0.0,0.0,0.0,0.0,0.0,0.0,0.0,0.0,0.0,0.0,0.0,3.8987,4.0193,4.2541,4.3587,4.4631,4.6075,4.615,4.6413,4.7209,4.6687,4.6518,4.7036,4.8336,4.9658,5.0942,0.0,0.0,0.0,0.0,5.3535,5.3829,5.2916,5.2074,5.1327,5.1269,5.1253,5.1307,5.1439,5.1051,5.0296,5.0416,4.9058,4.6636,4.5205,4.3552,4.1395,3.5646,3.0936,2.7323,2.6679,2.8288,3.121,0.0,0.0,0.0,0.0,0.0,0.0,0.0,2.6465,2.7465,2.9037,3.2374,3.4524,3.4311,3.6615,3.8177,3.8138,3.6795,3.6123,3.6513,3.7954,3.9922,4.2448,4.4113,4.5303,4.6016,4.6105,4.6096,4.5991,4.7389,4.7994,4.7884,4.9536,4.9884,4.9114,4.928,4.8948,4.8306,4.8306,4.8306,4.8288,4.8217,4.7844,4.7071,4.4693,4.3601,4.2993,4.0386,4.0439,4.1308,3.8447,3.8163,3.8601,3.6311,3.4179,0.0,0.0,0.0,0.0,0.0,0.0,0.0,0.0,0.0,0.0,0.0,0.0,0.0,0.0,0.0,0.0,0.0,0.0,0.0,3.9265,4.0762,4.2057,4.3194,4.42,4.4918,4.5228,4.5337,4.5701,4.6523,4.6039,4.6202,4.7465,4.8127,4.8868,4.9786,5.0279,5.1275,5.2911,5.243,5.2723,5.3942,5.3546,5.2922,5.209,0.0,0.0,5.191,5.1622,5.1716,5.2036,5.1284,4.9948,4.8214,4.7441,4.5219,4.1678,3.5271,3.1101,2.8634,2.8569,3.0339,3.2914,0.0,0.0,0.0,0.0,0.0,0.0,0.0,2.636,2.7558,2.8573,3.1556,3.3493,3.3227,3.4651,3.5391,3.4747,3.3938,3.442,3.6742,3.8661,4.1059,4.4059,4.5221,4.6294,4.733,4.696,4.7057,4.77,4.8526,4.915,4.9572,5.0417,5.0582,5.0196,5.0196,4.9738,4.8948,4.8948,4.8691,4.8306,4.8306,4.7942,4.7271,4.5938,4.4907,4.3933,4.2278,4.2085,4.2286,4.0234,3.9531,3.9206,3.753,3.5644,3.3887,0.0,0.0,0.0,0.0,0.0,0.0,0.0,0.0,0.0,0.0,0.0,0.0,0.0,0.0,3.52,0.0,0.0,4.0078,4.1991,4.3067,4.3797,4.4179,4.4739,4.5079,4.4996,4.5225,4.552,4.5905,4.5407,4.535,4.6092,4.6963,4.7789,4.8611,4.8901,4.9818,5.1501,5.084,5.1171,5.2679,5.2563,5.2219,5.1695,5.1842,5.1865,5.1822,5.1975,5.2471,5.3187,5.2992,5.196,5.034,4.8792,4.6522,4.3622,3.9218,3.5138,3.1626,3.0882,3.1775,3.3516,0.0,0.0,0.0,0.0,0.0,0.0,0.0,2.6145,2.7383,2.7697,3.0474,3.2262,3.1825,3.265,3.2693,3.1354,3.1624,3.3288,3.663,3.9054,4.1846,4.5203,4.6007,4.6966,4.8269,4.7663,4.8049,4.9517,4.9719,5.0233,5.1041,5.1187,5.1187,5.1041,5.1041,5.0582,4.9811,4.9528,4.9065,4.8533,4.8105,4.7534,4.6899,4.6212,4.5438,4.4562,4.3401,4.2354,4.1486,4.1059,3.965,3.8066,3.7947,3.6703,3.4977,3.3406,3.2292,0.0,0.0,0.0,0.0,0.0,0.0,0.0,0.0,3.4469,3.5,3.6257,3.6832,3.7839,4.0168,4.1387,4.2655,4.4635,4.4977,4.5055,4.5178,4.5098,4.5039,4.5086,4.5332,4.5459,4.5346,4.4896,4.4564,4.4557,4.555,4.6426,4.7022,4.7331,4.8145,4.9657,4.915,4.9455,5.0741,5.115,5.1249,5.1075,5.1438,5.1695,5.1839,5.2519,5.327,5.4078,5.4504,5.3843,5.2307,5.0026,4.8015,4.6145,4.4095,4.018,3.5521,3.3655,3.32,3.37,0.0,0.0,0.0,0.0,0.0,0.0,0.0,0.0,2.6428,2.6412,2.8689,2.9964,2.8985,3.0274,3.1069,3.0711,3.2416,3.4642,3.7239,4.0317,4.3166,4.5717,4.7242,4.8122,4.8306,4.8214,4.8636,4.9592,5.0306,5.1077,5.1867,5.2601,5.2546,5.1867,5.1867,5.1408,5.0578,4.9262,4.9025,4.9374,4.74,4.6559,4.6317,4.4907,4.4687,4.4841,4.2594,4.1004,4.0049,4.0685,3.9307,3.7699,3.9834,3.8381,3.5723,3.4814,3.2933,3.1314,3.2005,3.3312,3.4852,3.6272,3.609,3.6648,0.0,4.0482,3.9624,4.0307,4.2154,4.355,4.3166,4.4342,4.5443,4.5718,4.5341,4.5233,4.5894,4.5059,4.4644,4.5267,4.5441,4.5294,4.4748,4.4654,4.4539,4.4351,4.4481,4.4516,4.4413,4.4942,4.5413,4.5721,4.7169,4.8117,4.8481,5.0245,5.1065,5.0934,5.168,5.2383,5.3025,5.3473,5.4141,5.4956,5.4776,5.4219,5.3333,5.1852,5.0249,4.8567,4.7006,4.3993,4.0182,3.7207,3.5096,3.3912,0.0,0.0,0.0,0.0,0.0,0.0,0.0,0.0,0.0,2.6212,2.8015,2.908,2.8468,2.9363,2.9989,2.9915,3.1869,3.4156,3.6648,3.9808,4.2892,4.5773,4.7003,4.8067,4.904,4.8563,4.9187,5.1006,5.0857,5.1463,5.2711,5.3041,5.3023,5.2711,5.2711,5.2252,5.1422,5.0395,4.9834,4.955,4.7797,4.6542,4.5529,4.4023,4.2271,4.0556,4.0215,3.9194,0.0,3.8181,3.7527,3.6856,3.7904,3.672,3.4787,3.3978,3.3469,3.3466,3.4958,3.5417,3.5957,3.805,3.8789,3.9546,4.1528,4.1789,4.1666,4.1923,4.3433,4.4617,4.4268,4.4839,4.5667,0.0,4.6257,4.6039,4.635,4.5295,4.4421,4.4268,4.3868,4.389,4.4541,4.4615,4.4342,4.3765,4.4463,4.469,4.4077,4.4314,4.4463,4.4512,4.484,4.5437,4.634,4.8135,4.9177,4.9519,5.1039,5.1693,5.162,5.3114,5.4499,5.5713,5.5091,5.4688,5.439,5.3327,5.1823,5.0026,4.8243,4.4798,4.0584,3.8443,3.6072,3.3897,0.0,0.0,0.0,0.0,0.0,0.0,0.0,0.0,0.0,0.0,2.7262,2.8215,2.8264,2.8849,2.9195,2.9138,3.1117,3.3403,3.5789,3.8982,4.2121,4.5112,4.6415,4.7755,4.9225,4.8857,4.9658,5.1691,5.1328,5.1747,5.2915,5.3103,5.3185,5.3185,5.3185,5.2773,5.1959,5.1053,5.0187,4.9305,4.7498,4.5943,4.4491,4.2391,3.9477,3.6647,3.756,3.6514,3.4722,3.4909,3.467,3.4433,3.5107,3.444,3.3429,3.3222,3.3862,3.4877,3.6048,3.6495,3.7146,3.9291,4.0816,4.1839,4.2054,4.2875,4.3516,4.33,4.4379,4.5278,4.5076,4.5147,4.5687,4.7071,4.6878,4.663,4.688,4.5569,4.4395,4.3809,4.2878,4.2726,4.387,4.3972,4.3771,4.3287,4.3981,4.4302,4.3989,4.3605,4.345,4.3639,4.3169,4.3419,4.448,4.6103,4.7399,4.8271,4.9958,5.0728,5.0641,5.2403,5.3981,5.5322,5.4879,5.4819,5.4996,5.4328,5.2806,5.0659,4.8372,4.4389,3.9691,3.7624,3.5337,3.3171,0.0,0.0,0.0,0.0,0.0,0.0,0.0,0.0,0.0,0.0,0.0,0.0,0.0,2.846,2.8711,2.8452,3.0512,3.274,3.4908,3.812,4.102,4.3478,4.5847,4.748,4.8324,4.9132,5.0005,5.0926,5.1633,5.2032,5.2159,5.2853,5.3185,5.3185,5.3185,5.2791,5.1999,5.0624,4.9583,4.8674,4.5828,4.4196,4.3068,3.9427,3.6621,3.4619,3.4918,3.2611,2.9668,3.1146,3.0617,2.9734,3.2072,3.2248,3.1842,3.3187,3.411,3.4535,3.3741,3.5824,3.8585,4.0017,4.159,4.2957,4.3739,4.5064,4.5866,4.5091,4.6055,4.6782,4.6012,4.5865,4.6191,4.7135,4.6804,4.6709,4.7548,4.5911,4.4598,4.4581,4.3227,4.2303,0.0,4.2354,4.2584,4.3078,4.2411,4.2525,4.3634,4.2288,4.1783,4.2413,4.2677,4.2812,4.2863,4.4658,4.6243,4.7632,4.8534,4.9712,5.1083,5.149,5.2239,5.3228,5.3853,5.4423,5.4897,5.4749,5.308,5.0311,4.731,4.3057,3.8104,3.4368,3.2253,3.1426,0.0,0.0,0.0,0.0,0.0,0.0,0.0,0.0,0.0,0.0,0.0,0.0,0.0,0.0,0.0,0.0,2.9392,3.0575,3.3475,3.5538,3.7991,4.0981,4.3424,4.559,4.7461,4.7792,4.8673,5.0168,4.988,4.9807,4.9984,5.0217,5.0353,5.0371,5.0862,5.0933,5.0635,4.9679,4.9416,4.9273,4.5369,4.3656,4.2885,3.8152,3.4387,3.1517,0.0,2.9675,2.8045,2.8841,2.8418,2.7798,2.9107,2.9337,2.9712,3.2764,3.3248,3.3605,3.7363,3.9181,4.0632,4.3147,4.415,4.4627,4.4921,4.527,4.5178,4.3861,4.3769,4.3557,4.245,4.2277,4.2659,4.3673,4.5008,4.6203,4.6988,4.6503,4.5483,4.3978,4.2912,0.0,0.0,0.0,0.0,4.2495,4.212,4.2048,4.2379,4.1319,4.0831,4.1055,4.115,4.141,4.1849,4.3513,4.4824,4.576,4.6134,4.7243,4.8977,4.8681,4.9241,5.0549,5.2272,5.3178,5.3435,5.3392,5.1323,4.7972,4.5582,4.0742,3.4898,3.3188,3.1526,3.0149,0.0,0.0,0.0,0.0,0.0,0.0,0.0,0.0,0.0,0.0,0.0,0.0,0.0,0.0,0.0,0.0,0.0,2.9025,3.195,3.3117,3.4908,3.7588,3.9932,4.2006,4.3852,4.4035,4.4816,4.6297,4.6298,4.6387,4.6564,4.7559,4.8013,4.8049,4.877,4.8965,4.8671,4.8006,4.7222,4.621,4.3093,4.1035,3.9369,3.5211,3.1982,0.0,2.8553,2.7538,2.6769,2.7291,2.7156,2.6894,2.7629,2.8782,3.0367,3.2858,3.3967,3.5467,4.0439,4.2213,4.3224,4.5721,4.6507,4.6437,4.5658,4.5345,4.4643,4.2554,4.1724,4.0944,3.9554,3.8896,3.9236,4.1337,4.2756,4.4252,4.6138,4.5923,4.5145,4.3978,4.2912,4.1914,0.0,0.0,0.0,4.1871,4.1931,4.2061,4.2194,4.1359,4.097,4.1213,4.0701,4.0711,4.1407,4.2496,4.3676,4.4924,4.5279,4.5806,4.6532,4.6347,4.6762,4.7655,4.9351,5.0375,5.0858,5.0464,4.8207,4.4727,4.2139,3.741,3.1992,3.1126,3.0172,2.9277,0.0,0.0,0.0,0.0,0.0,0.0,0.0,0.0,0.0,0.0,0.0,0.0,0.0,0.0,0.0,0.0,0.0,0.0,3.0346,3.0995,3.1984,3.355,3.5645,3.7158,3.7972,3.8367,3.8984,3.9844,4.123,4.1927,4.1997,4.4614,4.5856,4.5892,4.6627,4.6565,4.5882,4.5356,4.3159,3.991,3.9056,3.6609,3.3241,3.0939,2.9604,2.8775,2.7284,2.6234,2.5711,2.6488,2.6826,2.7046,2.7756,3.0461,3.344,3.3592,3.6231,3.9774,4.2814,4.4765,4.6325,4.7788,4.8549,4.8314,4.5944,4.5264,4.4245,4.1197,3.9931,3.8906,3.7305,3.5972,3.6322,4.007,4.0285,4.1343,4.5213,4.4536,4.391,0.0,0.0,0.0,0.0,0.0,0.0,4.1441,0.0,4.2552,4.3199,4.2338,4.21,4.2679,4.1295,4.083,4.1467,4.1668,4.2888,4.5005,4.5697,4.5282,4.3958,4.4513,4.4669,4.4536,4.5188,4.6155,4.7174,4.6145,4.3888,4.0721,3.7276,3.3378,2.9543,2.833,2.8308,2.8889,0.0,0.0,0.0,0.0,0.0,0.0,0.0,0.0,0.0,0.0,0.0,0.0,0.0,0.0,0.0,0.0,0.0,0.0,2.8871,2.9397,3.0051,3.1072,3.3684,3.5494,3.6288,3.6698,3.7086,3.7477,3.7854,3.7773,3.7325,3.8028,3.836,3.8394,3.9173,3.9422,3.9232,3.9102,3.8809,3.8244,3.5808,3.4751,3.4312,3.0932,2.9197,2.844,2.7491,2.6477,2.5812,2.708,2.8653,3.0091,3.0277,3.1749,3.3846,3.6096,3.8599,4.152,4.5627,4.8273,5.0091,5.0955,5.0453,4.9003,4.6186,4.4126,4.1927,3.9007,3.6736,3.4889,3.3582,3.4364,3.5763,3.7541,4.0457,0.0,4.6138,4.6667,0.0,4.6278,4.5872,4.5213,4.4124,4.4502,0.0,0.0,4.3286,4.357,4.482,4.4041,4.334,4.2807,4.2402,4.2154,4.2141,4.2634,4.3181,4.3754,4.3495,4.2916,4.2077,4.1582,4.1044,4.0627,4.1709,4.2379,4.2663,4.2379,3.9991,3.6283,3.427,3.1412,2.833,2.8015,2.9051,3.047,0.0,0.0,0.0,0.0,0.0,0.0,0.0,0.0,0.0,0.0,0.0,0.0,0.0,0.0,0.0,0.0,0.0,0.0,0.0,2.7367,2.7787,2.8583,3.0348,3.1508,3.1956,3.2051,3.2129,3.2197,3.2546,3.2662,3.2629,3.3399,3.3768,3.3783,3.4415,3.4901,3.521,3.5121,3.4942,0.0,0.0,3.2237,3.1708,2.9596,2.8528,2.8124,2.7702,2.7667,2.7998,2.9336,3.0835,3.2341,3.3339,3.4878,3.6924,3.9952,4.2168,4.4495,4.8305,5.1009,5.2684,5.2379,5.1584,4.9785,4.5705,4.2784,3.9886,3.6162,3.3681,3.1863,3.0869,3.1378,3.2801,0.0,0.0,0.0,4.5263,4.6194,4.6667,0.0,4.7005,0.0,4.5664,4.594,4.6143,0.0,4.5307,4.5057,4.5571,4.534,4.4649,4.3406,4.3301,4.2947,4.2396,4.3015,4.329,4.329,4.2671,4.1805,4.0683,3.9879,3.8919,3.7866,0.0,3.889,3.8802,3.7808,3.5728,3.2919,3.0906,2.8993,2.7455,2.8088,2.9226,3.0493,0.0,0.0,0.0,0.0,0.0,0.0,0.0,0.0,0.0,0.0,0.0,0.0,0.0,0.0,0.0,0.0,0.0,0.0,0.0,0.0,2.576,2.6547,2.6987,2.7253,2.7361,2.693,2.6682,2.6609,2.7144,2.7745,2.8381,2.9874,3.0592,3.0718,3.1077,3.1673,3.2404,3.2295,3.1461,3.0265,3.0615,2.964,2.7968,0.0,2.7968,2.795,2.7926,2.8938,3.0541,3.202,3.3249,3.4523,3.6711,3.8911,4.128,4.4192,4.6007,4.7746,5.0684,5.3013,5.4232,5.2805,5.2011,5.0159,4.4749,4.125,3.7832,3.3211,3.0957,2.9567,2.884,2.8383,2.9534,3.3905,0.0,3.7963,4.3878,4.4654,4.5365,4.7483,4.7276,4.6938,4.6938,4.7022,4.7361,4.799,4.7355,4.6667,4.6177,4.6466,4.588,4.4243,4.3883,4.3318,4.253,4.3045,4.329,4.329,4.2539,4.1332,3.978,3.8818,3.7521,3.6013,3.5854,0.0,3.5641,3.3466,3.1852,3.0437,2.7822,2.6746,2.6827,2.811,2.9086,2.9875,0.0,0.0,0.0,0.0,0.0,0.0,0.0,0.0,0.0,0.0,2.575,2.5577,0.0,0.0,0.0,0.0,0.0,0.0,0.0,0.0,0.0,2.6547,2.6987,2.7505,2.8173,2.7215,2.6678,2.6678,2.6139,2.5963,2.6073,2.61,2.644,2.7018,2.7141,2.7627,2.8337,2.8651,2.8614,2.8364,2.8438,2.8403,2.8316,2.8316,0.0,0.0,2.7992,2.8288,2.9298,3.2586,3.5642,3.8311,3.9935,4.1982,4.4293,4.665,4.7953,4.9274,5.2286,5.381,5.4368,5.3454,5.1304,4.8224,4.3594,3.9269,3.5161,3.1322,2.9305,2.7959,2.7232,2.8518,3.0923,3.4636,3.6522,3.9336,4.4517,4.4879,4.5207,0.0,4.7428,4.7733,4.7733,4.8274,0.0,0.0,0.0,4.776,4.8396,4.7764,4.6588,4.4736,4.3823,4.3307,4.3165,4.3245,4.329,4.3275,4.1766,4.0615,3.9726,3.7263,3.5732,3.4897,3.4024,0.0,3.3543,3.2091,3.0573,2.9003,2.7132,2.6388,2.647,2.7269,2.8792,3.0469,0.0,0.0,0.0,0.0,0.0,0.0,0.0,2.5981,2.6442,2.7736,2.7544,2.7101,2.6659,2.5827,2.5532,0.0,0.0,0.0,0.0,0.0,0.0,0.0,2.6272,2.6545,2.6832,2.6307,2.5816,2.5408,0.0,2.4734,2.4551,2.4606,2.4743,2.4959,2.5429,2.6033,2.6742,2.6907,2.7186,2.7544,2.7761,2.7936,2.8124,0.0,0.0,0.0,2.829,2.8888,3.0155,3.2187,3.5086,3.8313,4.0898,4.2984,4.4933,4.7168,4.8321,4.9484,5.216,5.3725,5.43,5.3108,5.055,4.6962,4.1969,3.7446,3.3115,2.8922,2.7317,2.6421,2.5692,2.708,2.9287,3.216,3.3649,3.6344,4.186,4.2413,4.3261,4.5906,4.7225,4.7889,4.7889,4.8578,4.8798,0.0,0.0,4.7803,4.8257,4.6934,4.5722,4.4849,4.381,4.329,4.329,4.329,4.329,4.3275,4.1255,3.9828,3.8896,3.6291,3.4648,3.3839,3.3313,0.0,3.2008,3.0765,2.9455,2.8001,2.6057,2.5653,2.6309,2.7048,2.8149,2.9409,0.0,0.0,0.0,0.0,0.0,0.0,0.0,2.6486,2.714,2.8646,2.8838,2.8338,2.7024,2.6269,2.5579,0.0,0.0,0.0,0.0,0.0,0.0,0.0,0.0,0.0,0.0,0.0,0.0,2.4523,2.431,0.0,0.0,0.0,0.0,0.0,2.4844,2.5654,2.6542,2.6233,2.6585,0.0,0.0,2.7798,0.0,0.0,0.0,0.0,0.0,2.942,3.0718,3.1429,3.3478,3.6247,3.9205,4.1865,4.4304,4.624,4.7737,4.926,5.1413,5.3048,5.3753,5.2205,4.9152,4.5192,4.0095,3.5597,3.1305,2.6968,2.583,2.5372,2.4643,2.5591,2.725,2.9649,3.0694,3.3215,3.9003,3.9968,4.1356,4.4807,4.6667,0.0,4.7682,4.8307,0.0,0.0,0.0,0.0,4.6792,4.5376,4.4483,4.431,4.3618,4.329,4.329,4.329,4.323,4.3065,4.0622,3.8934,3.7896,3.5459,3.3911,3.3124,3.3124,0.0,0.0,2.9909,2.868,2.74,2.5249,2.4955,2.5816,2.6497,2.7281,2.8148,0.0,0.0,0.0,0.0,0.0,0.0,0.0,2.6096,2.6948,2.7895,2.8011,2.7953,2.7799,2.7717,2.6932,0.0,0.0,0.0,0.0,0.0,0.0,0.0,0.0,0.0,0.0,0.0,0.0,2.5559,2.4653,0.0,0.0,0.0,0.0,0.0,0.0,2.6076,2.7671,2.6571,0.0,0.0,0.0,0.0,0.0,0.0,0.0,0.0,0.0,2.8815,2.8923,3.068,3.1707,3.238,3.3144,3.754,4.2605,4.3525,4.6159,4.9125,5.0615,5.1765,5.216,5.0667,4.652,4.1784,3.7925,3.3583,2.9488,2.6301,2.5625,2.5372,2.4643,2.5152,2.6618,2.9378,3.0601,3.2988,3.8113,3.9556,4.0958,4.3325,0.0,0.0,4.6887,4.7408,0.0,0.0,0.0,0.0,4.4184,4.3982,4.3497,4.264,4.3054,4.329,4.329,4.329,4.303,4.2447,3.967,3.7978,3.7206,3.4478,3.3197,3.3124,3.3124,0.0,0.0,2.9909,2.868,2.74,2.5249,2.446,2.4582,2.4927,2.6029,2.7466,0.0,0.0,0.0,0.0,0.0,0.0,2.6,2.639,2.7082,2.8434,2.9083,2.9217,2.8684,2.8626,2.7648,2.5213,0.0,0.0,0.0,0.0,0.0,0.0,0.0,0.0,0.0,0.0,2.4971,2.4971,2.446,0.0,0.0,0.0,0.0,0.0,0.0,2.56,2.6419,2.5674,0.0,0.0,0.0,0.0,0.0,0.0,0.0,0.0,0.0,0.0,2.9121,2.9174,2.9779,3.0326,2.9403,3.1845,3.5616,3.8601,4.2092,4.544,4.7754,4.964,5.0625,4.9154,4.4857,4.0121,3.684,3.2072,2.7636,2.5113,2.4196,2.363,2.2897,2.3597,2.4925,2.6951,2.7198,2.8965,3.412,3.478,3.64,4.0882,4.2997,0.0,0.0,0.0,0.0,0.0,0.0,0.0,4.1778,4.2522,4.2954,4.2925,4.3155,4.329,4.329,4.294,4.2307,4.1404,3.8839,3.714,3.6152,3.4054,3.3124,3.3081,3.2283,0.0,0.0,2.8808,2.7579,2.6338,2.4943,2.4414,2.4444,2.4712,2.5243,2.5922,0.0,0.0,0.0,0.0,0.0,2.5157,2.6072,2.6428,2.7024,2.8203,2.9121,2.9344,2.8482,2.839,2.7503,2.5341,2.5105,0.0,0.0,0.0,0.0,0.0,0.0,0.0,0.0,0.0,2.4682,2.4849,2.4644,2.4431,0.0,0.0,2.4529,2.4046,0.0,0.0,0.0,0.0,0.0,0.0,0.0,0.0,0.0,0.0,0.0,0.0,0.0,0.0,0.0,0.0,0.0,2.883,2.7263,2.7936,3.0094,3.4073,3.8183,4.197,4.4375,4.6891,4.8443,4.6925,4.2828,3.8297,3.5161,3.0506,2.6318,2.4315,2.3258,2.258,2.2192,2.283,2.3799,2.5067,2.5202,2.6759,3.1328,3.209,3.3981,3.8877,0.0,4.298,0.0,0.0,0.0,0.0,0.0,0.0,4.1418,4.1663,4.1983,4.2408,4.2991,4.32,4.3045,4.2292,4.1449,4.0484,3.7934,3.625,3.5257,3.3777,3.3124,3.3068,3.2152,0.0,0.0,2.8634,2.7316,2.5919,2.4847,2.4346,2.4232,2.429,2.45,2.4914,0.0,0.0,0.0,0.0,0.0,0.0,2.5158,2.6058,2.6621,2.6621,2.7371,2.7609,2.6815,2.673,2.6384,2.5578,2.5368,0.0,0.0,0.0,0.0,0.0,0.0,0.0,0.0,0.0,2.508,2.5698,2.5493,2.5393,2.5383,2.5792,2.538,2.427,0.0,0.0,0.0,0.0,0.0,0.0,0.0,0.0,0.0,0.0,0.0,0.0,0.0,0.0,0.0,0.0,0.0,0.0,0.0,2.6696,2.7526,3.0497,3.5098,3.9508,4.0805,4.3396,4.5382,4.3815,4.0104,3.5937,3.2512,2.8807,2.5687,2.4216,2.3258,2.2855,2.3302,2.3393,2.3644,2.4389,2.5743,2.774,3.0768,3.3085,3.5334,0.0,0.0,4.1813,4.3274,0.0,0.0,0.0,0.0,0.0,4.3686,4.1628,4.0427,4.0427,4.2288,4.3015,4.2425,4.1339,4.0469,3.9794,3.6947,3.5315,3.4677,3.3598,3.3124,0.0,0.0,0.0,0.0,2.9852,2.8396,2.6716,2.5033,2.416,2.374,2.3301,2.3833,2.4787,0.0,0.0,0.0,0.0,0.0,0.0,0.0,2.5178,2.5712,2.5712,2.652,2.6983,2.6726,2.675,2.6678,2.6412,2.576,0.0,0.0,0.0,0.0,0.0,0.0,0.0,0.0,0.0,2.5149,2.5901,2.5579,2.5686,2.6198,2.5542,2.5049,2.4676,2.3814,2.3744,0.0,0.0,0.0,0.0,0.0,0.0,0.0,0.0,0.0,0.0,0.0,0.0,0.0,0.0,0.0,0.0,0.0,0.0,0.0,2.6977,3.0885,3.4808,3.5629,3.7277,3.8439,3.6941,3.3753,3.0569,2.8998,2.5682,2.2819,2.2355,2.1873,2.1584,2.1742,2.2249,2.3224,2.4966,2.5642,2.7012,3.0023,0.0,0.0,3.7516,4.1157,4.3324,0.0,0.0,0.0,0.0,0.0,0.0,4.0819,4.0551,4.0816,4.1752,4.1908,4.1908,4.1737,4.0203,3.8978,3.7994,3.5086,3.3215,3.2253,3.1122,3.0553,0.0,0.0,0.0,0.0,2.6956,2.5965,2.5115,2.4287,2.3906,2.374,2.3257,2.3343,2.3637,0.0,0.0,0.0,0.0,0.0,0.0,0.0,2.4774,2.5308,2.5308,2.5817,2.6184,2.6239,2.627,2.6337,2.6376,2.5809,0.0,0.0,0.0,0.0,0.0,0.0,0.0,2.5198,2.4974,2.539,2.6445,2.6522,2.6766,2.7165,2.678,2.6002,2.4865,2.4162,2.3829,0.0,0.0,0.0,0.0,0.0,0.0,2.6109,0.0,0.0,0.0,0.0,0.0,0.0,0.0,0.0,0.0,0.0,0.0,0.0,0.0,2.7288,2.9759,3.104,3.2629,3.366,3.2439,3.0121,2.7798,2.6636,2.4086,2.1945,2.1945,2.1568,2.1373,2.1821,2.1978,2.2643,2.4461,2.4873,2.5967,2.882,0.0,0.0,3.7838,0.0,0.0,0.0,0.0,0.0,0.0,0.0,0.0,3.982,3.9948,4.0516,4.1632,4.1512,4.1098,4.0436,3.8927,3.7674,3.6579,3.359,3.1855,3.1178,2.9943,2.9407,0.0,0.0,0.0,0.0,2.611,2.5279,2.4746,2.3596,2.3033,2.2763,2.2,2.1721,2.1819,0.0,0.0,0.0,0.0,0.0,0.0,0.0,2.4774,2.5288,2.5212,2.5274,2.5331,2.5393,2.5474,2.5558,2.5683,0.0,0.0,0.0,0.0,0.0,0.0,0.0,0.0,2.5028,2.501,2.5722,2.722,2.8142,2.8486,2.8324,2.9203,2.8005,2.5157,2.5103,2.4697,2.4082,2.4598,2.4884,2.5004,2.5004,2.4923,0.0,0.0,0.0,0.0,0.0,0.0,0.0,0.0,0.0,0.0,0.0,0.0,0.0,0.0,0.0,0.0,0.0,2.912,3.0463,2.9736,2.8431,2.6892,2.5161,2.3621,0.0,2.2584,2.2058,2.1981,2.3205,2.248,2.2112,2.3485,2.3945,2.5029,0.0,3.0768,0.0,0.0,4.1008,0.0,0.0,0.0,0.0,0.0,0.0,0.0,4.0424,3.9775,3.9709,4.0307,4.0838,4.0303,3.8688,3.7534,3.6388,3.5292,3.2288,3.085,3.084,2.9625,2.902,0.0,0.0,0.0,0.0,2.6747,2.5803,2.5068,2.2817,2.1644,2.1025,1.9898,1.9497,1.967,0.0,0.0,0.0,0.0,0.0,0.0,0.0,0.0,0.0,0.0,2.4967,2.5155,2.4571,2.5157,2.5595,0.0,0.0,0.0,0.0,0.0,0.0,0.0,0.0,0.0,2.5224,2.5082,2.58,2.7433,2.8828,2.9777,3.0339,3.1204,3.0207,2.7631,2.7003,2.5951,2.4621,2.4858,2.4974,2.5004,2.5004,2.4923,0.0,0.0,0.0,0.0,2.441,2.4879,0.0,0.0,0.0,0.0,0.0,0.0,0.0,0.0,2.3257,2.2941,2.3513,0.0,2.505,2.4308,2.3587,2.294,0.0,2.1889,2.1392,2.1392,2.1498,2.2054,2.3502,2.301,2.3323,2.6286,2.653,2.7304,3.0017,0.0,0.0,3.9497,4.169,0.0,0.0,0.0,0.0,0.0,0.0,4.1376,4.0662,3.9849,3.9448,3.9649,3.8591,3.7847,3.7414,3.5528,3.4017,3.281,2.918,2.7617,2.785,2.631,2.5568,0.0,0.0,0.0,2.4956,2.4541,2.3588,2.2267,2.1706,2.0843,1.9898,1.9579,1.9497,1.9542,0.0,0.0,0.0,0.0,0.0,0.0,0.0,0.0,0.0,0.0,0.0,0.0,0.0,0.0,0.0,0.0,0.0,0.0,0.0,0.0,0.0,0.0,0.0,2.5308,2.5308,2.5179,2.6156,2.8224,2.9464,3.0636,3.1756,3.2251,3.1061,2.8434,2.691,2.5732,2.4897,2.4968,2.5046,2.5141,2.5034,0.0,0.0,0.0,0.0,0.0,2.419,2.4493,0.0,2.5283,2.5035,2.4646,0.0,0.0,0.0,0.0,2.2798,2.245,2.2335,2.2835,2.3291,2.2902,2.2608,2.2443,2.2443,2.1998,2.16,2.16,2.1781,2.2278,2.346,2.3106,2.357,2.6337,2.6982,0.0,0.0,0.0,3.8604,4.0288,0.0,0.0,0.0,0.0,0.0,0.0,0.0,4.0658,3.9761,3.8512,3.7832,3.7832,3.6597,3.6023,3.6269,3.3857,3.209,3.0928,2.7788,2.6399,2.655,2.5101,2.4414,0.0,0.0,0.0,2.2983,2.273,2.177,2.044,1.9852,1.9268,1.8588,1.8033,1.7801,1.7894,0.0,0.0,0.0,0.0,0.0,0.0,0.0,0.0,0.0,0.0,0.0,0.0,0.0,0.0,0.0,0.0,0.0,0.0,0.0,0.0,0.0,0.0,2.5308,2.5308,2.5308,2.5308,2.6423,2.8723,3.0111,3.1385,3.2498,3.309,3.1667,2.8499,2.6123,2.5063,2.504,2.504,2.5146,2.5274,2.5088,0.0,0.0,0.0,0.0,0.0,0.0,0.0,0.0,2.4989,2.4768,2.4251,2.4621,0.0,0.0,0.0,0.0,0.0,2.2508,2.3116,2.3721,2.3323,2.3308,2.3359,2.3257,2.275,2.2296,2.2296,2.2381,2.2719,2.3579,2.3444,2.385,0.0,0.0,0.0,3.4361,3.6355,3.8234,4.073,0.0,0.0,0.0,0.0,0.0,0.0,0.0,3.9702,3.8822,3.7148,3.6149,3.6006,3.4678,3.4172,3.464,3.2198,3.0339,2.9082,2.6867,2.5871,2.5899,2.473,2.4081,2.3915,0.0,0.0,2.1578,2.1176,2.0305,1.9131,1.8095,1.7598,1.7271,1.6197,1.5784,1.5967,0.0,0.0,0.0,0.0,0.0,0.0,0.0,0.0,0.0,0.0,0.0,0.0,0.0,0.0,0.0,0.0,0.0,0.0,0.0,0.0,0.0,2.5308,2.5308,2.5308,2.5308,2.5308,2.5846,2.6986,3.0801,3.2411,3.1995,3.495,3.3749,2.897,2.6468,2.532,2.5259,2.5259,2.5269,2.5274,2.5088,0.0,0.0,0.0,0.0,0.0,0.0,0.0,0.0,2.4337,2.43,2.4169,2.3951,0.0,0.0,0.0,0.0,0.0,2.3075,2.4346,2.5178,2.3008,2.2936,2.3241,2.2615,2.2381,2.2296,2.2296,2.2801,2.3646,2.5017,2.5397,2.6157,0.0,0.0,3.3613,0.0,0.0,3.9757,0.0,0.0,0.0,0.0,0.0,0.0,0.0,0.0,4.0485,3.9733,3.7981,3.6709,3.6006,3.2809,3.1176,3.1266,2.9939,2.8184,2.6075,2.4402,2.3782,2.4172,2.3585,2.2736,2.1752,0.0,2.0987,1.9899,1.9786,1.9093,1.7963,1.7777,1.7037,1.6062,1.5872,1.5784,1.5832,0.0,0.0,0.0,0.0,0.0,0.0,0.0,0.0,0.0,0.0,0.0,0.0,0.0,0.0,0.0,0.0,0.0,0.0,0.0,0.0,2.5308,2.5308,2.5308,2.5308,2.5308,2.6212,2.7351,2.8654,3.1579,3.3058,3.3151,3.2943,3.1086,2.7887,2.6172,2.5379,2.535,2.5317,2.5308,2.5274,0.0,0.0,0.0,0.0,0.0,0.0,0.0,0.0,0.0,0.0,2.419,2.4199,2.4145,0.0,0.0,0.0,0.0,0.0,2.3276,2.4141,2.4863,2.3724,2.4327,2.5084,2.4746,2.4052,2.3596,2.4002,2.4357,2.4797,2.5474,0.0,2.8585,3.1492,0.0,3.5346,3.7601,3.8481,0.0,0.0,0.0,0.0,0.0,0.0,0.0,0.0,0.0,0.0,3.939,3.7296,3.5574,3.436,3.1269,2.8944,2.7552,2.6737,2.5933,2.5069,2.3727,2.3198,2.3428,2.3188,2.2818,2.2262,0.0,2.0621,1.9451,1.8818,1.777,1.6662,1.6662,1.6339,1.5784,1.5784,1.5784,1.5784,0.0,0.0,0.0,0.0,0.0,0.0,0.0,0.0,0.0,0.0,0.0,0.0,0.0,0.0,0.0,0.0,0.0,0.0,0.0,2.4975,2.5322,2.5308,2.5317,2.5414,2.5596,2.6909,2.8313,2.9808,3.1707,3.3028,3.3684,3.0516,2.8277,2.687,2.5879,2.5411,2.5406,2.5326,2.5308,2.5274,0.0,0.0,0.0,0.0,0.0,0.0,0.0,0.0,0.0,0.0,0.0,0.0,0.0,0.0,0.0,2.4192,2.4081,2.3966,2.3559,2.3999,2.4567,2.4514,2.5328,2.6289,2.6883,2.6051,2.5445,2.6584,2.686,2.681,2.6454,2.796,0.0,3.3694,3.5013,3.614,3.7686,0.0,0.0,0.0,0.0,0.0,0.0,0.0,0.0,0.0,0.0,0.0,3.8908,3.6576,3.4539,3.2945,2.9904,2.7215,2.5043,2.4211,2.3971,2.4259,2.3457,2.3091,2.3091,2.3091,2.296,2.2633,2.1391,2.0215,1.9001,1.777,1.6669,1.5784,1.5784,1.5784,1.5784,1.5784,1.5784,1.5784,0.0,0.0,0.0,0.0,0.0,0.0,0.0,0.0,0.0,0.0,0.0,0.0,0.0,0.0,0.0,0.0,0.0,0.0,0.0,2.5324,2.5375,2.5293,2.5354,2.5749,2.6486,2.664,2.7159,2.8082,3.0622,3.1978,3.2111,2.9502,2.7787,2.6851,2.5905,2.5468,2.5406,2.5326,2.5308,2.5274,2.5088,0.0,0.0,0.0,0.0,0.0,0.0,0.0,0.0,0.0,0.0,0.0,0.0,0.0,2.4503,2.4468,2.4321,2.419,2.4151,2.475,2.53,2.4879,2.4622,2.5085,2.7457,2.7472,2.7659,2.9953,3.0618,3.0378,2.901,2.9448,3.0784,3.3102,3.467,3.614,0.0,0.0,0.0,0.0,0.0,0.0,0.0,0.0,0.0,0.0,0.0,0.0,3.8935,3.6663,3.4622,3.2948,2.8733,2.599,2.4993,2.3412,2.2647,2.2686,2.2949,2.3091,2.3091,2.3091,2.2492,2.1346,2.0169,1.8956,1.7731,1.648,1.5879,1.5784,1.5784,1.5784,1.5784,1.5784,1.5784,1.5784,0.0,0.0,0.0,0.0,0.0,0.0,0.0,0.0,0.0,0.0,0.0,0.0,0.0,0.0,0.0,0.0,0.0,0.0,0.0,2.5342,2.5357,2.5367,2.5357,2.5721,2.6582,2.7121,2.7563,2.7895,2.9433,2.9955,2.9473,2.8006,2.689,2.6069,2.5673,2.5498,2.5465,2.5387,2.5339,2.5274,2.5088,2.4968,0.0,0.0,0.0,0.0,0.0,0.0,0.0,0.0,2.4321,2.4528,2.4647,2.4685,2.4685,2.4685,2.4534,2.4357,2.4237,2.5171,2.6027,2.5339,2.5823,2.6989,2.8959,2.936,2.973,3.1168,3.2722,3.3485,3.2471,0.0,3.1512,3.3728,3.4945,0.0,0.0,0.0,0.0,0.0,0.0,0.0,0.0,0.0,0.0,0.0,0.0,0.0,0.0,3.6573,3.4627,3.2524,2.8722,2.5876,2.4074,2.25,2.1678,2.1687,2.2643,2.3091,2.3047,2.2306,2.1712,2.1203,1.9222,1.8011,1.7271,1.6056,1.5558,1.5558,1.5558,1.5558,1.5558,1.5558,1.5558,1.5585,0.0,0.0,0.0,0.0,0.0,0.0,0.0,0.0,0.0,0.0,0.0,0.0,0.0,0.0,0.0,0.0,0.0,0.0,2.5375,2.5352,2.5346,2.5409,2.5359,2.5619,2.6212,2.6775,2.7351,2.7895,2.8222,2.8103,2.7562,2.6735,2.6216,2.5969,2.5625,2.5613,2.5857,2.5511,2.5344,2.5274,2.5088,2.5004,0.0,0.0,0.0,0.0,0.0,0.0,0.0,0.0,2.4321,2.4528,2.4662,2.4708,2.4708,2.4708,2.4551,2.4375,2.4237,2.4937,2.5607,2.5293,2.6329,2.8098,3.0606,3.1313,3.1985,3.391,3.4708,3.4831,3.4133,0.0,0.0,0.0,0.0,0.0,0.0,0.0,0.0,0.0,0.0,0.0,0.0,0.0,0.0,0.0,0.0,0.0,0.0,3.5019,3.3079,3.094,2.7749,2.5015,2.2853,2.1732,2.119,2.121,2.1991,2.2345,2.2311,2.1603,2.1051,2.0482,1.8422,1.7371,1.6974,1.5842,1.5451,1.5531,1.5531,1.5478,1.5404,1.5504,1.5418,1.5304,0.0,0.0,0.0,0.0,0.0,0.0,0.0,0.0,0.0,0.0,0.0,0.0,0.0,0.0,0.0,0.0,0.0,0.0,2.5308,2.5359,2.5402,2.539,2.539,2.5406,2.5398,2.533,2.6159,2.7876,2.7005,2.6622,2.6672,2.5801,2.589,2.6757,2.5816,2.589,2.6629,2.5707,2.5308,2.5279,2.5088,2.4991,2.4942,0.0,0.0,0.0,0.0,0.0,0.0,0.0,2.4321,2.4503,2.4503,2.4503,2.4503,2.4503,2.4357,2.419,2.419,2.3966,2.3909,2.4617,2.5793,2.7907,3.23,3.3301,3.446,3.8656,3.6742,3.4142,3.3532,3.2222,0.0,3.2175,0.0,0.0,0.0,0.0,0.0,0.0,0.0,0.0,0.0,0.0,0.0,0.0,0.0,0.0,0.0,3.175,2.9773,2.8038,2.5373,2.3143,2.1392,2.1231,2.114,2.116,2.0813,2.0663,2.0725,2.1112,2.0447,1.9004,1.7739,1.7011,1.6698,1.5752,1.5558,1.5771,1.5771,1.5645,1.5424,1.5712,1.5451,1.5042,0.0,0.0,0.0,0.0,0.0,0.0,0.0,0.0,0.0,0.0,0.0,0.0,0.0,0.0,0.0,0.0,0.0,0.0,2.5367,2.5348,2.5342,2.5398,2.535,2.5326,2.5321,2.537,2.5603,2.6077,2.5808,2.5693,2.5707,2.5456,2.5502,2.5793,2.552,2.5545,2.5774,2.5484,2.5375,2.536,2.5312,2.5306,2.5328,0.0,0.0,0.0,0.0,0.0,0.0,0.0,0.0,0.0,2.4503,2.4503,2.4503,2.4503,2.4357,2.419,2.419,2.4937,2.5789,2.6016,2.8482,3.1411,3.3521,3.3491,3.4137,3.8108,3.7283,3.5804,3.56,3.4786,0.0,0.0,0.0,0.0,0.0,0.0,0.0,0.0,0.0,0.0,0.0,0.0,0.0,0.0,0.0,0.0,0.0,3.0263,2.8554,2.7278,2.4159,2.1787,2.0299,1.89,1.8276,1.8444,1.869,1.9356,2.031,1.9015,1.8058,1.7391,1.6179,1.5482,1.5161,1.4869,1.483,1.491,1.491,1.4856,1.479,1.4877,1.4803,1.4696,0.0,0.0,0.0,0.0,0.0,0.0,0.0,0.0,0.0,0.0,2.1293,2.2216,0.0,0.0,0.0,0.0,0.0,0.0,0.0,2.5327,2.5344,2.5431,2.5342,2.5313,2.5344,2.5387,2.5391,2.5372,2.535,2.5321,2.5308,2.5308,2.5505,2.5865,2.5517,2.5556,2.5869,2.5542,2.5406,2.539,2.5431,2.5454,2.5479,0.0,0.0,0.0,0.0,0.0,0.0,0.0,0.0,0.0,2.4384,2.4384,2.4384,2.4384,2.4294,2.419,2.419,2.5445,2.688,2.7395,3.0031,3.283,3.399,3.5168,3.6594,3.8682,3.7731,3.6422,3.619,3.5046,0.0,0.0,0.0,0.0,0.0,0.0,0.0,0.0,0.0,0.0,0.0,0.0,0.0,0.0,0.0,0.0,0.0,2.7269,2.5784,2.4569,2.195,1.9988,1.8766,1.7386,1.6782,1.6936,1.7049,1.7408,1.8016,1.7372,1.6618,1.5842,1.5,1.4576,1.4522,1.4522,1.4589,1.4696,1.4696,1.4623,1.4536,1.4656,1.4549,1.4389,0.0,0.0,0.0,0.0,0.0,0.0,0.0,0.0,0.0,0.0,2.1767,2.281,0.0,0.0,0.0,0.0,0.0,0.0,0.0,0.0,2.535,2.5485,2.5367,2.533,2.5409,2.5402,2.5425,2.5484,2.5425,2.5371,2.5303,2.5293,2.5712,2.6447,2.5654,2.5731,2.6433,2.5712,2.5394,2.5401,2.5471,2.5503,2.552,2.5434,0.0,0.0,0.0,0.0,0.0,0.0,0.0,0.0,2.4237,2.4247,2.4247,2.4247,2.4247,2.4247,2.4247,2.5588,2.7298,2.8603,3.0918,3.317,3.4373,3.7684,4.0288,3.9567,0.0,3.6402,3.5717,3.3939,0.0,0.0,0.0,0.0,0.0,0.0,0.0,0.0,0.0,0.0,0.0,0.0,0.0,0.0,0.0,0.0,0.0,2.3498,2.2201,2.0784,1.9125,1.7852,1.7018,1.6378,1.6073,1.6114,1.5677,1.5179,1.4691,1.6005,1.582,1.4469,1.4175,1.4195,1.4399,1.4469,1.4623,1.4894,1.4914,1.4716,1.4516,1.4827,1.4593,1.4122,0.0,0.0,0.0,0.0,0.0,0.0,0.0,0.0,0.0,0.0,0.0,0.0,0.0,0.0,0.0,0.0,0.0,0.0,0.0,0.0,2.5313,2.5348,2.5317,2.5326,2.5398,2.5398,2.5413,2.5421,2.5354,2.5348,2.5376,2.5317,2.5404,2.5577,2.5385,2.5404,2.5568,2.5441,2.5431,2.5473,2.5552,2.5606,2.5637,2.5511,2.546,0.0,0.0,0.0,0.0,0.0,0.0,0.0,2.4486,2.4534,2.467,2.467,2.467,2.467,2.467,2.5764,2.7279,2.8827,3.2834,3.6702,3.786,3.8504,3.8441,3.6828,3.6952,3.7003,3.5818,3.5137,0.0,0.0,0.0,0.0,0.0,0.0,0.0,0.0,0.0,0.0,0.0,0.0,0.0,0.0,0.0,0.0,2.3853,2.2075,2.0576,1.9521,1.7461,1.61,1.5493,1.4201,1.3673,0.0,1.3798,1.3679,1.359,1.455,1.4708,1.4162,1.3868,1.3733,1.3806,1.4088,1.4082,1.3913,1.4182,1.4235,1.4188,1.4249,1.4195,1.4095,0.0,0.0,0.0,0.0,0.0,0.0,0.0,0.0,0.0,0.0,0.0,0.0,0.0,0.0,0.0,0.0,0.0,0.0,0.0,0.0,2.5308,2.5308,2.5363,2.5402,2.5406,2.5402,2.5424,2.5456,2.5342,2.5322,2.535,2.5322,2.5308,2.5308,2.5308,2.5308,2.5293,2.5379,2.5415,2.5462,2.5533,2.5567,2.5598,2.5498,2.5453,2.5431,2.5212,0.0,0.0,0.0,0.0,0.0,0.0,0.0,2.4804,2.4804,2.4804,2.4804,2.4804,2.5997,2.7882,3.0562,3.3906,3.6707,3.7295,3.697,3.6132,3.4661,3.5296,3.5698,3.4283,0.0,0.0,0.0,0.0,0.0,0.0,0.0,0.0,0.0,0.0,0.0,0.0,0.0,0.0,0.0,0.0,2.2303,2.2174,2.0474,1.9097,1.8214,1.6481,1.5303,1.4759,1.3534,1.2882,1.2779,1.2919,1.3066,1.3227,1.3681,1.3814,1.3661,1.3467,1.34,1.3407,1.3607,1.3661,1.36,1.3661,1.3841,1.4068,1.3928,1.3968,1.3997,0.0,0.0,0.0,0.0,0.0,0.0,0.0,0.0,0.0,0.0,0.0,0.0,0.0,0.0,0.0,0.0,0.0,0.0,0.0,0.0,0.0,2.5308,2.5413,2.5444,2.5387,2.5376,2.5417,2.5474,2.535,2.5385,2.5519,2.5365,2.5308,2.5308,2.5308,2.5308,2.5293,2.5375,2.5402,2.5409,2.5463,2.5491,2.5484,2.5437,2.5402,2.5387,2.5312,2.5179,2.504,2.5016,0.0,0.0,0.0,0.0,2.4895,2.4895,2.4895,2.4895,2.4895,2.6204,2.8432,3.1987,3.3855,3.486,3.4935,3.4434,3.3618,3.2453,3.3128,3.3508,0.0,0.0,0.0,0.0,0.0,0.0,0.0,0.0,0.0,0.0,0.0,0.0,0.0,0.0,0.0,0.0,0.0,2.052,2.0144,1.8754,1.7639,1.69,1.557,1.4687,1.4327,1.3313,1.2579,1.2151,1.2435,1.2717,1.2979,1.2979,1.306,1.3206,1.3153,1.3133,1.3133,1.3186,1.332,1.3427,1.328,1.354,1.3981,1.3693,1.3793,1.3913,0.0,0.0,0.0,0.0,0.0,0.0,0.0,0.0,0.0,0.0,2.1873,2.2963,0.0,0.0,0.0,0.0,0.0,0.0,2.5398,0.0,0.0,2.5308,2.5322,2.5312,2.5313,2.5313,2.5322,2.534,2.5303,2.5692,2.6409,2.5654,2.5308,2.5308,2.5308,2.5308,2.5293,2.5364,2.539,2.5417,2.5463,2.5491,2.5484,2.5425,2.539,2.5395,2.5317,2.5274,2.5224,2.5052,2.5094,0.0,0.0,0.0,2.5233,2.5233,2.5233,2.5233,2.5233,2.6357,2.8108,3.0537,3.168,3.23,3.2653,0.0,3.1288,0.0,3.0425,0.0,0.0,0.0,0.0,0.0,0.0,0.0,0.0,0.0,0.0,0.0,0.0,0.0,0.0,0.0,0.0,0.0,2.0762,1.9361,1.8234,1.6938,1.6047,1.5654,1.3999,1.326,1.3549,1.2282,1.1606,1.1509,1.1583,1.1757,1.208,1.208,1.2478,1.32,1.2965,1.2844,1.2864,1.31,1.3073,1.2931,1.312,1.3373,1.366,1.362,1.3793,1.3913,0.0,0.0,0.0,0.0,0.0,0.0,0.0,0.0,0.0,0.0,0.0,2.258,0.0,0.0,0.0,2.5411,2.5447,2.5411,2.5342,2.5322,2.5308,2.5308,2.5308,2.5308,2.5308,2.5198,2.5122,2.5122,2.5122,2.5332,2.5702,2.5931,2.6288,2.6755,2.6755,2.642,2.583,2.5364,2.5182,2.5187,2.5201,2.5297,2.5383,2.5354,2.5333,2.5339,2.517,2.5208,2.5269,2.5077,2.5122,2.5279,2.5203,0.0,0.0,0.0,2.5219,2.5026,2.458,2.5346,2.6574,2.79,2.8825,2.9561,3.0206,2.9992,2.9198,2.7557,0.0,0.0,0.0,0.0,0.0,0.0,0.0,0.0,0.0,0.0,0.0,0.0,0.0,0.0,0.0,0.0,0.0,0.0,1.8981,1.7565,1.6937,1.5745,1.5051,1.5067,1.4323,1.3751,1.3402,1.2831,1.2147,1.1389,1.1389,1.1496,1.1623,1.1623,1.1931,1.2458,1.2522,1.2536,1.2549,1.2645,1.2757,1.2777,1.2712,1.3086,1.3586,1.342,1.3694,1.3828,0.0,0.0,0.0,0.0,0.0,0.0,0.0,0.0,0.0,0.0,0.0,0.0,0.0,0.0,0.0,0.0,2.5425,2.5375,2.5265,2.5208,2.5165,2.5165,2.5165,2.5165,2.5165,2.5024,2.4943,2.4943,2.4943,2.5057,2.5273,2.6347,2.7165,2.7731,2.7574,2.6933,2.592,2.5247,2.4943,2.4924,2.4702,2.4845,2.5127,2.4697,2.4793,2.5116,2.4745,2.487,2.5154,2.5028,2.5099,2.5219,2.5219,2.5219,0.0,0.0,0.0,2.4772,2.396,2.4459,2.531,2.5748,2.6526,2.74,0.0,0.0,2.7351,0.0,0.0,0.0,0.0,0.0,0.0,0.0,0.0,0.0,0.0,0.0,0.0,0.0,0.0,0.0,0.0,0.0,0.0,0.0,1.7323,1.5983,1.5766,1.4733,1.4301,1.4627,1.4319,1.3797,1.3024,1.2718,1.2131,1.1316,1.1243,1.1243,1.1282,1.1282,1.1436,1.1705,1.2031,1.2231,1.2305,1.2305,1.2432,1.265,1.2385,1.2759,1.3387,1.3173,1.342,1.3535,0.0,0.0,0.0,0.0,0.0,0.0,0.0,0.0,0.0,0.0,0.0,0.0,2.4099,2.4946,2.5452,2.5486,2.5486,2.5386,2.512,2.4936,2.4832,2.4832,2.4832,0.0,2.4832,2.4818,2.4818,2.4818,2.4818,2.5196,2.5978,2.7049,2.7468,2.7297,2.6669,2.5894,2.5056,2.4869,2.4818,2.4743,2.3919,2.4077,2.4643,2.3057,2.3435,2.4719,2.3888,2.4114,2.4835,2.4955,2.501,2.5016,2.5016,2.5016,2.4986,0.0,0.0,0.0,2.3745,2.4252,2.4999,2.4898,2.5469,2.6247,0.0,0.0,0.0,0.0,0.0,0.0,0.0,0.0,0.0,0.0,0.0,0.0,0.0,0.0,0.0,0.0,0.0,0.0,0.0,0.0,0.0,0.0,1.6126,1.5035,1.4521,1.3892,1.3737,1.4124,1.3026,1.227,1.1977,1.0827,1.051,1.1009,1.0767,1.078,1.1015,1.1015,1.1022,1.1069,1.1678,1.2087,1.2305,1.2305,1.2311,1.2325,1.2311,1.2536,1.2831,1.2811,1.3012,1.2968,0.0,0.0,0.0,0.0,0.0,0.0,0.0,0.0,0.0,0.0,0.0,0.0,0.0,2.4485,2.4488,2.5115,2.5104,2.5,2.4905,2.4836,2.4804,2.4804,2.4804,2.4804,2.4804,2.467,2.4599,2.4599,2.4599,2.4757,2.5065,2.6091,2.6264,2.5751,2.6693,2.6519,2.5408,2.4845,2.4599,2.4551,2.3708,2.3603,2.3905,2.3307,2.3439,2.3978,2.4091,2.443,2.479,2.4712,2.4759,2.4864,2.4864,2.4864,2.4849,2.4662,2.4551,2.4249,2.326,2.3335,2.3588,2.3008,2.3154,2.3446,2.3487,2.3105,2.2508,0.0,0.0,0.0,0.0,0.0,0.0,0.0,0.0,0.0,0.0,0.0,0.0,0.0,0.0,0.0,0.0,0.0,0.0,0.0,0.0,1.4047,1.3469,1.3244,1.3301,1.3695,1.3301,1.2679,1.1922,1.0516,1.004,1.0428,1.0327,1.0428,1.0747,1.0747,1.0847,1.1002,1.1216,1.147,1.1757,1.1944,1.2413,1.2892,1.2481,1.2889,1.3644,1.3006,1.2985,1.2982,0.0,0.0,0.0,0.0,0.0,0.0,0.0,0.0,0.0,2.3343,0.0,0.0,0.0,0.0,2.4209,2.4873,2.4792,2.47,2.47,2.4631,2.454,2.4429,2.4532,2.454,2.4429,2.4408,2.4401,2.4401,2.4401,2.4401,2.441,2.5039,2.5067,2.4655,2.5734,2.5882,2.5256,2.4649,2.4401,2.4327,2.3511,2.3417,2.3682,2.3146,2.3259,2.3715,2.3634,2.3843,2.4134,2.3772,2.3699,2.3821,2.4185,2.4448,2.4567,2.4435,2.4255,2.3897,2.2931,2.2731,2.2589,2.1748,2.1661,2.1698,2.1452,0.0,2.0567,0.0,0.0,0.0,0.0,0.0,0.0,0.0,0.0,0.0,0.0,0.0,0.0,0.0,0.0,0.0,0.0,0.0,0.0,0.0,0.0,0.0,1.2929,1.2905,1.3032,1.3291,1.2843,1.2314,1.1713,1.0243,0.9679,0.9973,0.9973,1.0127,1.0445,1.0445,1.0606,1.0881,1.0881,1.1069,1.145,1.2088,1.2741,1.3262,1.2905,1.33,1.3926,1.2969,1.2726,1.2758,0.0,0.0,0.0,0.0,0.0,0.0,0.0,0.0,2.1412,2.2355,0.0,0.0,0.0,0.0,0.0,2.4782,2.4599,2.4495,2.4495,2.4303,2.4036,2.3714,2.4006,2.4016,2.3692,2.4006,2.418,2.418,2.4208,2.419,2.418,2.4061,2.4052,2.4161,2.3682,2.3863,2.4434,2.4257,2.417,2.4097,2.3299,2.3446,2.3969,2.2392,2.2786,2.3942,2.2409,2.2354,2.2895,2.2242,2.1888,2.1914,2.2986,2.371,2.418,2.4208,2.3937,2.3501,0.0,0.0,0.0,2.1187,0.0,0.0,2.0955,0.0,0.0,0.0,0.0,0.0,0.0,0.0,0.0,0.0,0.0,0.0,0.0,0.0,0.0,0.0,0.0,0.0,0.0,0.0,0.0,0.0,1.3238,1.2905,1.2905,1.2905,1.2881,1.2881,1.1509,1.0961,1.1235,0.9891,0.9351,0.9695,0.9708,0.9833,1.0077,1.012,1.0281,1.0579,1.0586,1.0914,1.1457,1.2749,1.3264,1.3337,1.3588,1.3723,1.3622,1.2689,1.2291,1.219,0.0,0.0,0.0,0.0,0.0,2.2153,2.3036,2.296,2.3129,0.0,0.0,0.0,2.4393,2.4538,2.451,2.4375,2.4321,2.4275,2.4275,2.3998,2.3795,2.3703,2.3555,2.3426,2.3346,2.3671,2.3837,2.3837,2.4084,2.4084,2.3837,2.3801,2.3667,2.3471,2.3345,2.3216,2.3146,2.3379,2.3488,2.3417,2.2597,2.2407,2.2561,2.2111,2.2373,2.3001,2.3138,2.3093,2.296,2.2793,2.2539,2.2432,2.3318,2.3707,2.3886,2.4141,2.3628,2.2857,2.2369,0.0,0.0,0.0,0.0,0.0,0.0,0.0,0.0,0.0,0.0,0.0,0.0,0.0,0.0,0.0,0.0,0.0,0.0,0.0,0.0,0.0,0.0,0.0,0.0,0.0,0.0,0.0,1.2992,1.2905,1.2905,1.2905,1.2666,1.2129,1.1275,1.0608,1.0228,0.9337,0.9044,0.9337,0.9579,0.9726,0.982,1.0278,1.0399,1.0247,1.0499,1.068,1.0919,1.2047,1.2889,1.355,1.3745,1.4032,1.4142,1.3217,1.2618,1.2274,0.0,0.0,0.0,0.0,0.0,2.2658,2.3646,2.3384,2.3312,0.0,0.0,0.0,2.4508,2.4454,2.4339,2.4209,2.4074,2.3996,2.3996,2.3682,2.3426,2.33,2.3224,2.3129,2.2996,2.3323,2.3555,2.3703,2.3764,2.3746,2.3692,2.3414,2.3247,2.3177,2.2945,2.2652,2.2399,2.2487,2.2574,2.2581,2.1875,2.1591,2.1591,2.1591,2.1709,2.1953,2.2533,2.256,2.2316,2.2141,2.2178,2.23,2.2349,2.2885,2.3533,2.3742,2.3259,2.2503,2.1657,2.119,2.0538,1.8875,0.0,0.0,1.7091,1.6223,0.0,0.0,0.0,0.0,0.0,0.0,0.0,0.0,0.0,0.0,0.0,0.0,0.0,0.0,0.0,0.0,0.0,1.3307,1.3286,1.2929,1.2905,1.2905,1.2905,1.2905,1.2559,1.1814,1.1141,1.0491,0.9814,0.9133,0.8865,0.9038,0.9232,0.9379,0.9512,0.9853,1.0047,1.0097,1.0301,1.0479,1.0694,1.2013,1.2956,1.3673,1.4258,1.4405,1.4227,1.3264,1.2607,1.2124,0.0,0.0,2.2281,2.2951,2.2823,2.297,2.3984,2.3256,2.2694,0.0,2.3079,2.3354,2.4078,2.418,2.419,2.419,2.3896,2.3703,2.3703,2.3357,2.3009,2.2721,2.2947,2.2947,2.266,2.2972,2.33,2.3588,2.3335,2.3335,2.3577,2.2984,2.2835,2.3075,2.2548,2.2186,2.1955,2.1655,2.1573,2.1618,2.1177,2.0991,2.0991,2.0919,2.0963,2.1083,2.1229,2.1248,2.115,2.0673,2.1013,2.1516,2.0732,2.1545,2.2823,2.2993,2.2773,2.2177,2.0844,2.0176,1.9466,1.77,1.6856,0.0,1.5981,1.4977,1.383,0.0,0.0,0.0,0.0,0.0,0.0,0.0,0.0,0.0,0.0,0.0,0.0,0.0,0.0,0.0,1.224,1.2578,1.2856,1.2905,1.2905,1.2905,1.2905,1.2905,1.2535,1.1715,1.1116,1.044,0.9684,0.9113,0.8804,0.8804,0.8838,0.8944,0.9164,0.9231,0.9524,0.999,1.0053,1.0214,1.0618,1.2165,1.3096,1.3662,1.4861,1.4827,1.4057,1.3114,1.2425,1.1965,0.0,2.3841,2.371,2.3583,2.3508,2.3533,2.3749,2.3385,2.3171,2.3518,2.356,2.3614,2.3777,2.4026,2.419,2.419,2.3896,2.3703,2.3703,2.3129,2.2772,2.2708,2.2554,2.244,2.2374,2.2652,2.2835,2.2898,2.3105,2.3093,2.2898,2.2759,2.2612,2.2467,2.2349,2.1899,2.1212,2.115,2.0732,2.0183,2.0767,2.1,2.0936,2.0398,2.0703,2.133,2.085,2.0404,1.9891,1.9076,1.907,1.9549,2.026,2.0364,2.0471,2.1765,2.1606,2.0908,2.0453,1.975,1.8799,1.7464,1.5948,0.0,1.4204,1.3408,1.2511,0.0,0.0,0.0,0.0,0.0,0.0,0.0,0.0,0.0,0.0,0.0,0.0,0.0,0.0,0.0,1.2174,1.2281,1.25,1.2876,1.2905,1.2905,1.2905,1.2905,1.2304,1.104,1.0864,1.0218,0.9008,0.8857,0.8804,0.8811,0.9018,0.9038,0.8911,0.9385,0.9526,0.9397,0.9666,0.9829,0.9955,1.1152,1.2229,1.3269,1.4773,1.5044,1.4477,1.3589,1.2976,1.2472,2.3703,2.3703,2.3649,2.3488,2.3311,2.3247,2.3426,2.3311,2.3323,2.366,2.3855,2.3937,2.3937,2.3937,2.3937,2.3937,2.35,2.32,2.32,2.2755,2.25,2.25,2.2374,2.2296,2.2296,2.244,2.2577,2.2708,2.273,2.273,2.2695,2.2563,2.2136,2.1468,2.1807,2.1296,2.0225,2.0523,2.0126,1.9325,1.9687,1.9702,1.9406,1.9071,1.9101,1.9348,1.9566,1.9437,1.9023,1.8186,1.8429,0.0,1.8951,1.9297,1.9796,0.0,1.9861,1.9431,0.0,0.0,0.0,1.6743,0.0,0.0,0.0,1.25,1.1583,1.1102,1.081,0.0,0.0,0.0,0.0,0.0,0.0,0.0,0.0,0.0,0.0,0.0,0.0,0.0,1.1521,1.195,1.2389,1.2866,1.2905,1.2749,1.2369,1.2344,1.1708,1.0338,1.0287,0.9814,0.8811,0.8804,0.8804,0.8804,0.8931,0.8918,0.8818,0.9112,0.9245,0.9217,0.9371,0.9546,0.9793,1.085,1.1883,1.294,1.428,1.4669,1.4389,1.3952,1.3243,1.2439,2.3271,2.3236,2.3177,2.3117,2.2935,2.2898,2.3153,2.3141,2.32,2.3459,2.3869,2.4153,2.4205,2.397,2.3936,2.4231,2.3309,2.2816,2.3128,2.262,2.2229,2.2076,2.2212,2.2229,2.2076,2.2243,2.2415,2.2621,2.2415,2.2398,2.2625,2.2398,2.1773,2.0815,2.1231,2.0714,1.9603,1.9858,1.9551,1.8887,1.8669,1.8324,1.7933,1.7786,1.7487,1.7236,1.804,1.8251,1.8058,1.7438,1.7853,1.8451,1.7548,1.8115,0.0,0.0,0.0,0.0,0.0,0.0,0.0,0.0,0.0,1.392,0.0,0.0,0.0,1.0886,1.0553,0.0,0.0,0.0,0.0,0.0,0.0,0.0,0.0,0.0,0.0,0.0,0.0,0.0,0.0,1.1631,1.2262,1.2725,1.2778,1.2473,1.1839,1.1789,1.1191,0.984,0.9788,0.9484,0.8811,0.8804,0.8804,0.8804,0.8804,0.8804,0.8804,0.8804,0.8904,0.9131,0.9131,0.9264,0.9596,1.0595,1.1512,1.2406,1.37,1.4293,1.4421,1.4273,1.342,1.2381,2.3577,2.3403,2.3105,2.281,2.2972,2.3153,2.3189,2.296,2.2772,2.281,2.348,2.4016,2.4258,2.4245,2.4774,2.6153,2.4077,2.3284,2.4642,2.3204,2.2006,2.136,2.1955,2.1989,2.1343,2.1972,2.2307,2.2349,2.2307,2.2324,2.2349,2.2307,2.2013,2.1449,2.0949,2.052,2.0141,1.9184,1.8833,1.8859,1.8368,1.8132,1.8018,1.742,1.7232,1.7214,1.676,1.656,1.6525,0.0,1.6035,1.5918,0.0,1.6536,1.6045,1.7106,0.0,0.0,0.0,0.0,0.0,0.0,1.456,0.0,1.2666,0.0,1.0886,1.0467,0.0,0.0,0.0,0.0,0.0,0.0,0.0,0.0,0.0,0.0,0.0,0.0,0.0,0.0,0.0,1.1369,1.1848,1.2252,1.2281,1.2135,1.1821,1.1789,1.1191,0.984,0.9788,0.9484,0.8811,0.8804,0.8804,0.8804,0.8804,0.8804,0.8804,0.8804,0.8824,0.8858,0.8858,0.8878,0.8951,0.9613,1.035,1.1306,1.3379,1.4628,1.5167,1.4451,1.3662,1.2888,2.3414,2.33,2.3093,2.2759,2.2984,2.3087,2.2721,2.3089,2.3363,2.3295,2.3786,2.4353,2.4922,2.4817,2.5136,2.6223,2.4735,2.3844,2.4052,2.2954,2.2175,2.1854,2.2141,2.2175,2.1854,2.2127,2.2296,2.2296,2.2296,2.2296,2.2296,2.2017,2.1459,2.0643,1.9845,1.9286,1.8859,1.814,1.7885,1.7947,1.7727,1.7442,1.7162,1.7196,1.7063,1.6808,1.6519,1.6219,1.5944,0.0,1.5926,0.0,0.0,0.0,0.0,1.6261,0.0,0.0,0.0,0.0,0.0,0.0,0.0,0.0,1.3154,0.0,1.1448,0.0,0.0,0.0,0.0,0.0,0.0,0.0,1.0508,0.0,0.0,0.0,0.0,0.0,0.0,0.0,0.0,0.0,0.0,0.0,1.2203,1.1912,1.1249,1.1216,1.0618,0.9263,0.9211,0.9087,0.8804,0.8804,0.8804,0.8804,0.8804,0.8804,0.8804,0.8804,0.8804,0.8804,0.8804,0.8898,0.9064,0.9512,1.0262,1.1231,1.2366,1.3597,1.4717,1.4844,1.4568,1.402,2.3522,2.3335,2.3129,2.2885,2.3117,2.3159,2.2638,2.3129,2.3628,2.3738,2.4103,2.4768,2.5848,2.5848,2.6157,2.7104,2.5792,2.4689,2.4168,2.3046,2.2166,2.1663,2.1931,2.2005,2.1804,2.1989,2.218,2.2296,2.2296,2.2237,2.2106,2.1764,2.1061,2.0036,1.9094,1.8495,1.8114,1.7338,1.7127,1.7291,1.7126,1.6858,1.6518,1.6762,1.6717,1.6475,1.6325,1.6032,1.5718,1.5869,1.5977,0.0,1.5665,1.5987,1.6334,0.0,0.0,0.0,1.5661,0.0,0.0,0.0,0.0,0.0,0.0,0.0,0.0,0.0,0.0,0.0,0.0,0.0,1.0635,1.0352,0.0,1.0625,0.0,0.0,0.0,0.0,0.0,0.0,0.0,0.0,0.0,1.2135,1.1926,1.1484,1.0839,1.0644,0.9987,0.8831,0.8804,0.8804,0.8804,0.8804,0.8804,0.8804,0.8804,0.8804,0.8804,0.8804,0.8804,0.8804,0.8804,0.8944,0.9237,0.9559,1.0193,1.1017,1.1584,1.2496,1.3657,1.4688,1.4988,1.48,2.417,2.3649,2.3189,2.3177,2.3448,2.3566,2.3212,2.2928,2.302,2.38,2.425,2.5169,2.6952,2.7486,2.8315,2.9837,2.7498,2.5966,2.602,2.3852,2.1807,2.0047,2.1025,2.1282,2.0574,2.1266,2.1838,2.2296,2.2296,2.2077,2.1612,2.1613,2.1133,2.0235,1.9105,1.8694,1.8764,1.7039,1.6704,1.725,1.6731,1.6522,1.6437,0.0,1.6045,1.6425,1.5906,0.0,0.0,1.6287,1.5801,0.0,0.0,0.0,0.0,0.0,0.0,0.0,0.0,0.0,0.0,1.6337,0.0,0.0,0.0,0.0,1.3032,0.0,0.0,0.0,0.0,1.0576,1.0322,1.0303,1.0312,0.0,0.0,0.0,0.0,0.0,0.0,0.0,0.0,0.0,0.0,1.2135,1.1254,1.0687,1.0797,1.0192,0.951,0.8831,0.8804,0.8804,0.8804,0.8804,0.8804,0.8804,0.8804,0.8804,0.8804,0.8804,0.8804,0.8804,0.8804,0.8944,0.9237,0.9559,0.9883,1.0262,1.1368,1.1834,1.2074,1.3657,1.4526,1.48,2.3876,2.3876,2.3795,2.3566,2.361,2.3746,2.3891,2.3908,2.4426,2.5898,2.6444,2.7472,2.9553,2.9508,2.9582,3.019,2.8834,2.7248,2.5559,2.4581,2.3225,2.1374,2.2081,2.1988,2.0858,2.1773,2.1998,2.1447,2.1705,2.1613,2.1197,2.0894,2.0418,1.9786,1.8368,1.7777,1.7766,1.6445,1.6242,1.6752,1.6573,1.65,1.6475,0.0,1.6337,1.6475,1.6287,1.6233,0.0,1.6437,1.6249,1.5994,1.6183,1.5856,1.5512,1.5856,1.5831,1.5781,0.0,0.0,1.6262,1.645,0.0,0.0,0.0,0.0,0.0,0.0,0.0,0.0,0.0,1.0791,1.0605,1.0352,1.0303,1.0303,0.0,0.0,0.0,0.0,0.0,0.0,0.0,0.0,0.0,1.1266,1.0875,1.0542,1.0417,1.0017,0.9484,0.8831,0.8804,0.8804,0.8804,0.8804,0.8804,0.8804,0.8804,0.8804,0.8804,0.8804,0.8804,0.8804,0.8804,0.9085,0.9482,0.904,0.9138,0.9624,0.999,1.0483,1.1152,1.281,1.3825,1.4309,2.3703,2.3976,2.4123,2.3917,2.4129,2.4302,2.4181,2.5016,2.6095,2.7257,2.8103,2.922,3.0946,3.0798,3.0519,3.0331,2.9432,2.7924,2.574,2.5,2.3813,2.1967,2.2234,2.1881,2.078,2.1439,2.1536,2.0991,2.126,2.1181,2.0732,2.0449,1.9971,1.9299,1.8116,1.748,1.7244,1.6349,1.6174,1.65,1.65,1.65,0.0,0.0,1.65,1.65,0.0,1.65,1.65,1.65,1.6362,1.622,1.622,1.5982,1.5768,1.612,1.612,1.607,1.64,1.65,0.0,1.65,1.65,0.0,1.607,0.0,1.4941,0.0,0.0,0.0,0.0,1.1016,1.0771,1.0371,1.0303,1.0235,0.0,0.9419,0.0,0.0,0.0,0.0,0.0,0.0,0.9974,1.1264,1.0477,1.0079,0.0,0.0,0.9237,0.8804,0.8804,0.8804,0.8804,0.8804,0.8804,0.8804,0.8804,0.8804,0.8804,0.8804,0.8804,0.8785,0.8584,0.8775,0.9178,0.8397,0.8376,0.8856,0.888,0.945,1.0418,1.1988,1.302,1.3614,2.3721,2.403,2.4327,2.4316,2.4926,2.5121,2.4178,2.6215,2.7887,2.7948,2.9307,3.0543,3.1281,3.1475,3.1254,3.048,2.9352,2.8078,2.655,2.5178,2.3606,2.1774,2.1488,2.102,2.0278,0.0,0.0,2.0942,2.0975,2.0731,2.0263,2.0246,1.9743,1.8836,1.8302,1.7767,1.7229,1.671,1.65,1.65,1.65,1.65,1.65,1.65,1.65,1.65,1.65,1.65,1.65,1.65,1.617,1.5731,1.5731,1.5718,1.5706,1.5731,1.6082,1.6463,1.6488,1.65,1.65,1.65,1.6466,0.0,0.0,0.0,1.5387,0.0,0.0,0.0,0.0,0.0,1.083,1.04,1.0293,1.0088,0.9545,0.0,0.9272,0.0,0.0,0.0,0.0,0.9281,1.0053,1.1916,0.9978,0.9318,0.0,0.0,0.8804,0.8804,0.8804,0.8804,0.8804,0.8804,0.8804,0.8804,0.8804,0.8804,0.8804,0.8804,0.8791,0.8732,0.8153,0.8069,0.8304,0.769,0.7633,0.7949,0.8076,0.8778,0.9871,1.1287,1.2161,1.272,2.3829,2.4923,2.6005,2.6049,2.5095,2.4721,2.5948,2.7586,2.909,3.0246,3.2599,3.4043,3.3673,3.377,3.2951,3.0736,3.0233,2.8812,2.6015,2.5882,2.4675,2.1804,2.2099,2.156,1.9902,2.0632,2.0703,2.0032,2.033,2.0261,1.9839,1.9449,1.892,1.8283,1.7747,1.7209,1.6689,1.6552,1.65,1.65,1.65,1.65,1.65,0.0,1.65,1.65,1.65,1.65,1.65,1.65,1.64,1.6287,1.6287,1.6019,1.5781,1.6183,1.612,1.5994,1.6387,1.65,1.65,1.65,1.616,1.582,0.0,0.0,0.0,0.0,0.0,0.0,0.0,0.0,0.0,1.0869,1.0334,0.9828,0.9283,0.0,0.0,0.9401,0.0,0.0,0.882,0.9034,0.9351,0.9851,0.9393,0.9234,0.9597,0.0,0.0,0.8804,0.8804,0.8804,0.8804,0.8804,0.8804,0.8804,0.8804,0.8804,0.8804,0.8804,0.8563,0.811,0.7974,0.7848,0.7665,0.6853,0.674,0.7031,0.7164,0.8318,1.0006,1.1353,1.1964,1.215,2.4728,2.6303,2.7764,2.8127,2.7591,2.7352,2.8183,2.9529,3.0783,3.1703,3.3461,3.4268,3.3303,3.2988,3.2114,3.0322,2.9582,0.0,2.6177,0.0,0.0,2.2239,2.2224,2.146,1.9738,2.0291,0.0,1.9708,1.9927,1.9806,1.935,1.9043,1.8496,1.7747,1.7422,1.6993,1.65,1.65,1.65,1.65,1.65,1.65,0.0,1.65,1.65,1.65,1.65,1.65,1.65,1.65,1.65,1.65,1.65,1.6287,1.612,1.64,1.6296,1.612,1.6412,1.6315,1.6117,1.6117,1.5644,1.5208,1.5208,1.4949,1.4537,0.0,1.3792,1.3478,0.0,0.0,0.0,1.0925,1.0187,0.9545,0.0,0.0,0.0,0.0,0.9004,0.0,0.8718,0.8741,0.8971,0.9544,0.9126,0.903,0.0,0.0,0.0,0.8804,0.8904,0.8911,0.8804,0.8904,0.8904,0.8804,0.8804,0.8804,0.8804,0.8804,0.846,0.7897,0.7635,0.7305,0.6885,0.6153,0.5954,0.6193,0.6817,0.7854,0.9181,1.0816,1.1605,1.1926,2.6339,2.8174,2.9682,3.0174,3.1078,3.1523,3.0903,3.1926,0.0,3.265,0.0,3.328,3.1792,3.1206,3.0571,2.9681,2.8528,2.7465,2.6512,2.5839,2.4597,2.2658,2.1939,2.0976,1.9738,1.9708,1.9708,0.0,1.9708,1.9424,1.8893,1.8836,1.8263,1.7312,1.7229,1.693,1.65,1.65,1.65,1.65,1.65,1.65,1.65,1.65,1.65,1.65,1.65,1.65,1.65,1.65,1.65,1.65,1.65,1.65,1.65,1.65,1.6445,1.638,1.638,1.5942,1.5477,1.5477,1.5028,1.4583,1.4583,1.4525,1.4317,1.3779,1.3684,1.3405,0.0,0.0,0.0,1.075,0.0,0.0,0.0,0.0,0.0,0.0,0.0,0.0,0.0,0.8586,0.8853,0.9883,0.9033,0.0,0.0,0.0,0.0,0.8804,0.9024,0.9071,0.8925,0.0,0.9124,0.8978,0.8938,0.8918,0.8918,0.8918,0.8513,0.7829,0.7343,0.6734,0.605,0.5621,0.5446,0.5576,0.6706,0.7396,0.8046,0.9922,1.1095,1.1774,2.8801,3.0812,3.2118,3.1241,3.2979,3.4514,3.4617,3.4858,3.4655,3.363,3.5075,3.5216,3.26,3.2821,3.218,2.9811,2.9397,0.0,0.0,0.0,0.0,2.1949,2.1231,2.0513,1.9723,1.9708,1.9708,0.0,0.0,1.9424,1.8893,1.8458,1.7907,1.7271,1.6837,1.6595,1.65,1.65,0.0,1.65,1.65,1.65,1.65,1.65,1.65,1.65,1.65,1.65,1.65,1.65,1.65,1.65,1.65,1.65,1.65,1.65,1.6139,1.5764,1.5764,1.5332,1.4858,1.4858,1.4399,1.3956,1.3956,1.3576,1.3176,1.3079,1.3065,1.2987,1.2807,0.0,0.0,0.0,0.0,0.0,0.0,0.0,0.0,0.0,0.0,0.9946,0.0,0.9259,0.8948,0.8731,0.8719,0.0,0.0,0.0,0.0,0.0,0.8858,0.0,0.0,0.0,0.9431,0.9886,0.9646,0.9532,0.9532,0.9532,0.8821,0.7573,0.746,0.6727,0.5529,0.5555,0.5694,0.5918,0.615,0.6881,0.7936,0.9145,1.0168,1.1095,3.1881,3.308,3.3923,3.3721,3.5003,0.0,0.0,3.676,3.6147,3.4487,3.4423,3.3737,3.1685,3.1806,3.1387,2.9738,2.8963,2.7735,2.5734,2.4657,2.337,2.1769,2.1066,2.0247,1.931,1.9281,1.9151,1.8874,0.0,1.8593,1.8066,1.7807,1.7415,1.6879,1.6616,1.65,1.65,0.0,0.0,1.65,1.65,1.65,1.65,1.65,1.65,1.65,1.65,1.65,1.65,1.65,1.65,1.65,1.65,1.65,1.65,1.65,1.6281,1.6073,1.6073,1.5399,1.4698,1.4698,1.4014,1.3324,1.3324,1.3104,1.2905,1.2905,1.2905,1.2905,1.2905,1.2387,0.0,0.0,0.0,0.0,0.0,0.0,0.891,0.0,0.0,0.0,0.0,0.9424,0.0,0.0,0.0,0.0,0.0,0.0,0.0,0.0,0.0,0.0,0.0,0.0,0.0,0.9886,0.9753,0.9715,0.9715,0.9715,0.8902,0.7504,0.7504,0.6737,0.5525,0.564,0.583,0.5993,0.5993,0.6421,0.715,0.8228,0.9234,1.0233,3.4379,3.496,3.5502,3.5905,3.6702,3.7422,3.7838,3.7701,3.6982,3.5246,3.3631,3.214,3.0863,3.0597,3.0253,2.9666,2.8513,2.7195,2.5704,2.4343,2.3026,2.1754,2.0821,1.9876,1.8926,1.8798,1.8516,0.0,0.0,0.0,1.7312,1.7423,1.713,1.65,1.65,0.0,0.0,0.0,1.65,1.65,1.65,1.65,1.65,1.65,1.65,1.65,1.65,1.65,1.65,1.65,1.65,1.65,1.65,1.65,1.65,1.65,1.6402,1.6315,1.6315,1.5421,1.4514,1.4514,1.3705,1.2905,1.2905,1.2905,1.2905,1.2905,1.2905,1.2905,1.2905,1.2427,0.0,0.0,0.0,0.0,0.0,0.0,0.0,0.0,0.0,0.0,0.9283,0.0,0.0,0.0,0.0,0.0,0.9008,0.0,0.0,0.0,0.0,0.9304,0.9491,0.0,0.984,0.999,0.993,0.9903,0.9903,0.9903,0.9162,0.7855,0.7699,0.685,0.5647,0.5789,0.5939,0.6078,0.6078,0.6156,0.6426,0.7552,0.8517,0.9566,3.517,3.6269,3.7043,0.0,0.0,3.8582,3.799,3.7328,3.6609,3.583,3.4359,3.2886,3.154,3.0853,3.0253,2.9666,2.8921,2.7679,2.5734,2.4343,2.3026,2.1754,2.0006,1.9021,1.8893,1.8419,1.8165,0.0,0.0,1.8316,0.0,1.7858,1.7532,0.0,0.0,0.0,0.0,1.65,1.65,1.65,1.65,1.65,1.65,1.65,1.65,1.65,1.65,1.65,1.65,1.65,1.65,1.65,1.65,1.65,1.65,1.65,1.6117,1.5676,1.5676,1.479,1.3886,1.3886,1.3396,1.2905,1.2905,1.2905,1.2905,1.2905,1.2905,1.2905,1.2905,1.2847,1.2559,0.0,0.0,0.0,0.0,0.0,0.9718,0.9718,0.0,0.0,1.0686,1.1216,1.1091,0.0,0.9133,0.0,0.0,0.0,0.0,1.0127,0.0,0.9597,1.0459,1.0194,1.0341,1.0868,1.0633,1.0512,1.0512,1.0512,1.0008,0.9073,0.8286,0.7113,0.5793,0.5909,0.6098,0.6279,0.6279,0.6286,0.6416,0.7458,0.8441,0.9478,0.0,0.0,0.0,0.0,0.0,0.0,0.0,3.6578,3.5612,3.5764,3.41,3.2407,3.1061,3.0672,3.0103,2.9086,2.8008,2.6886,2.5689,2.3636,2.2088,2.1252,1.9729,1.8585,1.7947,1.7727,1.7463,0.0,0.0,0.0,0.0,0.0,0.0,0.0,0.0,1.65,1.65,1.65,1.65,1.65,1.65,1.65,1.65,1.65,1.65,1.65,1.65,1.65,1.65,1.65,1.65,1.65,1.65,1.65,1.65,1.65,1.6324,1.6051,1.5698,1.4983,1.426,1.3886,1.3348,1.2905,1.2905,1.2905,1.2905,1.2905,1.2905,1.2905,1.2905,1.2905,1.2666,1.1922,0.0,0.0,0.0,0.0,0.0,1.0389,0.0,1.1091,1.0838,1.104,1.0878,1.0151,0.0,0.0,0.0,0.0,0.0,0.9632,0.0,0.955,1.0287,1.0174,1.0327,1.0767,1.0646,1.0593,1.0593,1.0593,0.9872,0.8611,0.7797,0.6863,0.5952,0.6105,0.6245,0.63,0.63,0.6354,0.6476,0.6965,0.8223,0.9755,3.7787,0.0,3.6991,0.0,3.6528,3.6135,3.7709,3.5948,3.4669,3.5387,3.3556,3.1839,3.0911,3.0462,2.9864,2.8966,2.7675,2.6439,2.5408,2.3271,2.1614,2.0648,1.9211,0.0,1.7325,1.7146,1.6879,1.65,1.7099,0.0,0.0,0.0,0.0,0.0,1.65,1.65,1.65,1.65,1.65,1.65,1.65,1.65,1.65,1.65,1.65,1.65,1.65,1.65,1.65,1.65,1.65,1.65,1.65,1.65,1.65,1.65,1.65,1.638,1.5764,1.5163,1.4571,1.3956,1.3348,1.2905,1.2905,1.2905,1.2905,1.2905,1.2905,1.2905,1.2905,1.2905,1.2715,1.2212,0.0,0.0,0.0,1.1099,0.0,1.0813,1.1174,1.1325,1.1124,1.1275,1.1234,0.0,0.0,0.0,0.0,0.0,0.0,0.0,0.0,0.0,1.0241,1.0247,1.0394,1.072,1.072,1.072,1.072,1.072,1.0013,0.8719,0.792,0.7155,0.6447,0.635,0.6323,0.6361,0.6361,0.6644,0.7027,0.6781,0.8287,1.0425,3.5857,3.6852,3.7785,3.7805,3.7899,3.7914,3.7809,3.5455,3.3954,3.4641,3.2859,3.1511,3.1496,3.0357,2.9606,2.9592,2.8364,2.6753,2.4839,2.3563,2.1993,0.0,0.0,1.7312,1.7312,1.6774,1.6522,1.65,0.0,0.0,1.65,0.0,1.65,1.65,1.65,1.65,1.65,1.65,1.65,1.65,1.65,1.65,1.65,1.65,1.65,1.65,1.65,1.65,1.65,1.65,1.65,1.65,1.65,1.65,1.65,1.65,1.65,1.638,1.5764,1.5163,1.4571,1.3956,1.3348,1.2905,1.2905,1.2905,1.2905,1.2905,1.2905,1.2905,1.2905,1.2905,1.2905,1.2881,0.0,0.0,0.0,1.1783,0.0,1.0872,1.2024,1.2593,1.185,1.2446,0.0,0.0,0.0,0.0,0.0,0.0,0.0,1.0628,1.0042,0.0,1.0579,1.0586,1.0734,1.0989,1.0989,1.0989,1.0989,1.0989,1.0667,1.0043,0.9165,0.8285,0.7434,0.661,0.6381,0.6511,0.6511,0.7281,0.8233,0.7105,0.8819,1.1577,3.7162,3.7036,3.6853,3.6366,3.5926,3.5635,3.5678,3.4091,3.3159,3.3916,3.2061,3.0528,3.0105,2.9781,2.9232,0.0,2.696,2.5752,0.0,2.2999,2.1388,2.0036,1.864,1.7747,1.7386,1.6797,1.65,1.65,0.0,0.0,0.0,1.7099,1.6898,1.65,1.65,1.65,1.65,1.65,1.65,1.65,1.65,1.65,1.65,1.65,1.65,1.65,1.65,1.65,1.65,1.65,1.65,1.65,1.65,1.65,1.65,1.65,1.6216,1.5754,1.5152,1.456,1.3944,1.3334,1.3041,1.2905,1.2905,1.2905,1.2905,1.2905,1.2905,1.2905,1.2905,1.2905,1.2905,1.2905,1.2691,0.0,1.2559,0.0,1.1724,1.1516,1.1074,1.088,1.1099,1.1334,0.0,0.0,0.0,0.0,0.0,0.0,0.0,0.0,0.9991,0.0,1.0881,1.0855,1.1002,1.1255,1.1255,1.1255,1.1255,1.1255,1.1023,1.0536,1.0081,0.9156,0.7949,0.7504,0.7358,0.7367,0.7367,0.809,0.914,0.8959,1.0121,1.1823,3.6651,3.6597,3.6399,3.5692,3.5217,3.4743,3.4212,3.293,3.2093,3.2288,3.0843,2.9572,2.8933,2.8785,0.0,2.7237,2.6119,2.5012,2.3985,2.2513,2.1051,1.9692,1.8719,1.7953,1.741,1.7237,0.0,1.65,1.6886,1.7049,1.7049,1.7049,1.6861,1.65,1.65,1.65,1.65,1.65,1.65,1.65,1.65,1.65,1.65,1.65,1.65,1.65,1.65,1.65,1.65,1.65,1.65,1.65,1.65,1.65,1.65,1.65,1.6073,1.5477,1.4858,1.426,1.3661,1.3065,1.2905,1.2905,1.2905,1.2905,1.2905,1.2905,1.2905,1.2905,1.2905,1.2905,1.2905,1.2905,1.2905,1.2905,1.2905,0.0,1.1699,0.0,0.0,0.0,0.0,1.0636,1.0989,0.0,0.0,0.0,0.0,0.0,0.0,0.9702,0.9967,1.0401,1.0982,1.0995,1.1196,1.159,1.159,1.165,1.1715,1.1643,1.1582,1.1533,1.0958,1.016,0.9301,0.8743,0.8499,0.8456,0.8456,0.9247,1.0359,1.0101,1.1164,1.266,3.4841,3.5613,3.6291,0.0,3.5475,0.0,3.3362,3.1997,3.0891,3.0095,2.9375,2.8642,2.7989,2.7412,2.6866,2.6333,0.0,0.0,0.0,2.2115,2.0977,1.9183,1.8556,1.8003,1.7473,1.794,1.7654,1.655,1.6513,1.65,1.65,1.65,1.65,1.65,1.65,1.65,1.65,1.6538,1.6538,1.65,1.6538,1.6538,1.65,1.65,1.65,1.65,1.65,1.65,1.65,1.65,1.65,1.65,1.65,1.65,1.65,1.65,1.6073,1.5477,1.4858,1.426,1.3661,1.3065,1.2905,1.2905,1.2905,1.2905,1.2905,1.2905,1.2905,1.2905,1.2905,1.2905,1.2905,1.2905,1.2905,1.2881,1.2832,1.219,1.1493,0.0,0.0,0.0,0.9788,1.0362,1.1032,0.0,0.0,0.0,0.0,0.0,0.9431,0.9762,1.0047,1.0481,1.1049,1.1056,1.1383,1.1966,1.1966,1.2084,1.2358,1.2084,1.2295,1.2779,1.1766,1.1301,1.114,1.0238,0.9763,0.9635,0.962,1.0589,1.1852,1.0793,1.195,1.3829,0.0,0.0,3.5535,3.488,3.4534,3.3915,3.258,3.1532,3.0642,2.9923,2.876,2.7792,2.7218,2.6459,2.5775,2.5235,2.4797,2.4361,2.3925,2.2424,2.1196,2.0327,1.9346,1.8556,1.8028,1.8141,1.7865,1.7197,1.6735,1.65,1.65,1.65,1.65,1.65,1.65,1.65,1.6525,1.6986,1.6923,1.6538,1.6999,1.6911,1.65,1.65,1.65,1.65,1.65,1.65,1.65,1.65,1.65,1.65,1.65,1.65,1.65,1.65,1.6073,1.5477,1.4858,1.426,1.3661,1.3065,1.2905,1.2905,1.2905,1.2905,1.2905,1.2905,1.2905,1.2905,1.2905,1.2905,1.2905,1.2905,1.2905,1.27,1.2141,1.1468,1.0796,0.0,0.9773,0.9436,0.9081,0.986,1.0474,0.0,0.0,0.0,1.0826,1.0464,1.0311,1.0385,1.0848,1.1289,1.1692,1.1698,1.1993,1.2576,1.2576,1.2737,1.2993,1.2926,1.2966,1.31,1.2824,1.2299,1.1567,1.1329,1.1204,1.1147,1.0913,1.1531,1.2583,1.2525,1.2757,1.312,3.51,3.5295,3.515,3.405,3.3939,3.3377,3.1616,3.0931,3.0137,2.8836,2.8004,2.7296,2.6775,2.6049,2.5586,2.5573,2.4714,2.4064,2.3763,2.2353,2.127,2.0717,1.9836,1.9108,1.8569,1.8819,1.8543,1.7765,1.7187,1.6773,1.65,1.65,1.65,1.65,1.65,1.65,1.6513,1.6861,1.681,1.655,1.7149,1.7187,1.6911,1.6911,1.6911,1.6886,1.6588,1.65,1.65,1.65,1.65,1.65,1.65,1.65,1.65,1.65,1.6073,1.5477,1.4858,1.426,1.3661,1.3065,1.2905,1.2905,1.2905,1.2905,1.2905,1.2905,1.2905,1.2905,1.2905,1.2905,1.2905,1.2905,1.2905,1.2642,1.1891,1.1225,1.0598,1.0102,0.9541,0.9204,0.9212,0.9702,1.0149,1.0448,1.0314,0.0,1.1078,1.1002,1.0835,1.06,1.1122,1.157,1.1899,1.2174,1.2469,1.2784,1.2924,1.3046,1.3213,1.3213,1.328,1.3367,1.3367,1.3078,1.2581,1.2581,1.2506,1.238,1.219,1.2486,1.3018,1.3153,1.3106,1.3006,3.414,3.4493,3.4438,3.2895,3.302,3.259,3.045,3.0069,2.9395,2.7549,2.7281,2.7102,2.6549,2.6047,2.5925,2.6449,2.5021,2.3916,2.3396,2.2272,2.1405,2.0968,2.0314,1.9685,1.9133,1.9334,1.9032,1.8204,1.7652,1.7137,1.6647,1.6713,1.6701,1.6626,1.6592,1.6564,1.6513,1.6642,1.6676,1.6688,1.7363,1.7576,1.7524,1.7524,1.7473,1.7335,1.6823,1.6575,1.65,1.65,1.65,1.65,1.65,1.65,1.65,1.65,1.6073,1.5477,1.4858,1.4201,1.3552,1.3041,1.2905,1.2905,1.2905,1.2905,1.2905,1.2905,1.2905,1.2905,1.2905,1.2905,1.2925,1.2993,1.2944,1.2661,1.2013,0.0,1.0865,1.0358,0.9833,0.9566,0.9695,0.9726,1.0002,1.0559,1.0336,1.0578,1.1464,1.1496,1.1263,1.0807,1.1283,1.1703,1.2033,1.2583,1.2878,1.2924,1.3153,1.33,1.334,1.334,1.3413,1.3606,1.3476,1.3387,1.3348,1.3188,1.3018,1.28,1.2755,1.2868,1.2988,1.2988,1.3081,1.322,3.1743,3.1977,3.1979,3.0713,3.0317,2.9888,2.8958,2.8589,2.8178,2.7404,2.7281,2.7102,2.6549,2.6411,2.6399,2.6487,2.5372,2.4625,2.4537,2.3062,2.2146,2.2058,2.1106,2.0289,1.9698,1.8417,1.7903,1.8204,1.7652,1.736,1.7262,1.7727,1.7689,1.724,1.7072,1.6815,1.6545,1.7339,1.7532,1.736,1.8355,1.8469,1.8078,1.8078,1.779,1.7398,1.7297,1.6936,1.65,1.65,1.65,1.65,1.65,1.65,1.65,1.65,1.6073,1.5477,1.4858,1.3884,1.3017,1.2929,1.2905,1.2905,1.2905,1.2905,1.2905,1.2905,1.2905,1.2905,1.2905,1.2905,1.3023,1.335,1.3115,1.2776,1.2439,0.0,1.1738,1.0435,1.0708,1.0638,0.9787,0.9907,1.0077,1.019,1.0413,1.0678,1.1065,1.1545,1.1792,1.1705,1.1991,1.2305,1.2643,1.2966,1.326,1.3467,1.3513,1.3707,1.3955,1.3955,1.3834,1.3572,1.2824,1.2362,1.2094,1.1378,1.1054,1.0958,1.0768,1.1269,1.2099,1.2099,1.2588,1.3247,3.0627,3.138,3.157,2.9536,2.9349,2.9225,2.8418,2.8162,2.7908,2.7356,2.7281,2.7102,2.6549,2.6499,2.6499,2.6499,2.546,2.4788,2.4788,2.3221,2.2309,2.2309,2.1543,2.0867,2.0302,1.9233,1.853,1.8204,1.8242,1.7965,1.741,1.7953,1.7865,1.7216,1.7135,1.6775,1.6303,1.7118,1.7375,1.7325,1.8523,1.8845,1.8619,1.8619,1.8469,1.8229,1.7928,1.7652,1.7426,1.7426,1.7225,1.6986,1.6986,1.6773,1.6445,1.6117,1.5599,1.4983,1.4376,1.3563,1.2905,1.2905,1.2905,1.2905,1.2905,1.2905,1.2964,1.3174,1.3213,1.3213,1.3213,1.3213,1.3281,1.3477,1.3154,0.0,1.2813,1.2643,1.2333,1.1898,1.152,1.1338,1.1433,1.1384,1.1182,1.0841,1.1432,1.1748,1.1484,1.1759,1.198,1.2098,1.2429,1.2643,1.2784,1.3206,1.3467,1.3606,1.3766,1.3955,1.4088,1.4088,1.4015,1.3805,1.2753,1.2215,1.2031,1.1037,1.0611,1.06,1.0457,1.0642,1.1075,1.1656,1.2079,1.2424,2.9352,3.0325,3.0588,2.8426,2.8467,2.8554,2.7849,2.7833,2.772,2.7168,2.7241,2.7102,2.6549,2.6499,2.6436,2.6298,2.5385,2.4738,2.4612,2.3271,2.2498,2.2498,2.1845,2.1194,2.0515,1.9911,1.9071,1.8001,1.8499,1.8191,1.7126,1.7763,1.7676,1.7038,1.6979,1.6596,1.605,1.6857,1.7243,1.7408,1.866,1.9183,1.9183,1.9183,1.9108,1.8945,1.8519,1.8317,1.8204,1.8204,1.7734,1.7192,1.7353,1.6796,1.602,1.5698,1.5131,1.4518,1.3941,1.3429,1.3027,1.3027,1.3096,1.3174,1.3174,1.3174,1.3262,1.3584,1.3627,1.3627,1.3627,1.3627,1.3691,1.3789,0.0,1.3288,1.3589,1.3377,1.3286,1.3571,1.2821,1.2445,1.2866,1.2681,1.2207,1.1478,1.2203,1.2455,1.1928,1.2033,1.2241,1.2505,1.277,1.2924,1.2991,1.348,1.3706,1.3706,1.3975,1.4088,1.4088,1.4088,1.4088,1.3997,1.2553,1.1895,1.1809,1.0389,0.9788,0.9788,0.9788,0.9823,1.0025,1.1199,1.1622,1.1898,2.6958,2.7246,2.7462,2.6788,2.67,2.6712,2.6647,2.7052,2.7178,2.6625,2.7002,2.7102,2.6549,2.6499,2.6273,2.5711,2.5146,2.4575,2.4092,2.3409,2.3045,2.3045,2.2058,2.0978,1.9886,1.9334,1.8499,1.7363,1.7767,1.7404,1.6305,1.7217,1.7366,1.6807,1.6632,1.6332,1.6069,1.7102,1.7653,1.7955,1.9229,1.9748,1.9748,1.9748,1.9421,1.8995,1.8958,1.8619,1.8204,1.8204,1.744,1.6593,1.7204,1.6211,1.4926,1.5454,1.5036,1.4328,1.3907,1.3618,1.3467,1.3467,1.3724,1.4016,1.4016,1.4016,1.4026,1.4055,1.4065,1.4065,1.4065,1.4065,1.4192,1.4629,0.0,0.0,1.5109,1.5206,1.5098,1.4802,1.502,1.4577,1.3035,1.2893,1.2448,1.1457,1.1747,1.195,1.1906,1.2422,1.2864,1.3133,1.3166,1.3307,1.3533,1.3895,1.4055,1.4055,1.4075,1.4088,1.4088,1.4088,1.4088,1.3955,1.1692,1.074,1.0567,0.8269,0.7356,0.7356,0.7356,0.8006,0.9126,1.0288,1.1343,1.2402,2.6575,2.6663,2.6738,2.6524,2.6499,2.6499,2.6499,2.6675,2.6738,2.6524,2.6675,2.6725,2.6512,2.6499,2.626,2.5649,2.5121,2.4562,2.4029,2.3421,2.2945,2.2606,2.1568,2.0805,2.0377,1.9798,1.8894,1.767,1.8168,1.7755,1.6584,1.7292,1.7258,1.6609,1.6522,1.6182,1.5694,1.7038,1.763,1.7848,1.9233,1.9798,1.9798,1.9798,1.9673,1.951,1.951,1.9371,1.9196,1.9196,1.8448,1.7502,1.7384,1.6586,1.5636,1.5357,1.4605,1.3851,1.3962,1.3941,1.387,1.387,1.3987,1.4104,1.4104,1.4104,1.426,1.4786,1.4894,1.501,1.5283,1.5332,1.541,1.5576,0.0,1.5206,1.6073,1.5996,1.5983,1.6405,1.5886,1.5412,1.5223,1.5283,1.4718,1.3237,1.4006,1.4007,1.2775,1.2913,1.3173,1.3427,1.344,1.3493,1.36,1.3941,1.4088,1.4088,1.4269,1.4262,1.4095,1.4275,1.4255,1.3955,1.1606,1.0611,1.0438,0.8053,0.7095,0.7095,0.7095,0.736,0.8013,0.9918,1.0869,1.1515,2.6499,2.6499,2.6499,2.6499,2.6499,2.6499,2.6499,2.6499,2.6499,2.6499,2.6499,2.6424,2.6248,2.6223,2.5933,2.5159,2.477,2.4318,2.3766,2.3158,2.2681,2.2334,2.1418,2.0746,2.0355,1.976,1.8752,1.7275,1.7764,1.7375,1.617,1.6697,1.6641,1.6151,1.6151,1.5864,1.5468,1.6726,1.7246,1.7385,1.8847,1.9449,1.9475,1.9721,1.9798,1.9798,1.9798,1.9798,1.9798,1.9798,1.9071,1.8129,1.7885,1.7098,1.608,1.508,1.4366,1.3975,1.4231,1.4531,1.465,1.4377,1.4406,1.4504,1.4504,1.4611,1.4902,1.5498,1.5732,1.5918,1.6221,1.6279,1.6279,1.6279,1.6025,1.6054,1.6794,1.667,1.678,1.749,1.6826,1.6381,1.6582,1.6807,1.6314,1.4805,1.5683,1.5558,1.3957,1.3452,1.3387,1.3768,1.374,1.3786,1.3873,1.4122,1.4269,1.4362,1.4563,1.4556,1.4369,1.4569,1.4549,1.4226,1.1882,1.0782,1.0586,0.8178,0.7139,0.7095,0.7095,0.7316,0.7925,0.9874,1.0826,1.1429,2.6499,2.6499,2.6499,2.6499,2.6499,2.6499,2.6499,2.6499,2.6499,2.6499,2.6499,2.6273,2.5661,2.5598,2.5172,2.4104,2.4004,2.3753,2.3145,2.2594,2.2293,2.2293,2.1782,2.0872,1.963,1.9,1.779,1.589,1.6308,1.5925,1.4795,1.5215,1.541,1.541,1.541,1.541,1.5439,1.6179,1.6492,1.6624,1.8097,1.8688,1.8768,1.9501,1.9798,1.9798,1.9798,1.9798,1.9798,1.9798,1.904,1.8195,1.8809,1.7684,1.5924,1.4529,1.4453,1.4823,1.4795,1.5449,1.5899,1.5038,1.5107,1.542,1.542,1.5782,1.6105,1.6105,1.6426,1.6707,1.6716,1.6716,1.6716,1.6716,1.6716,1.6863,1.7334,1.7393,1.7539,1.7959,1.8018,1.7657,1.6715,1.6981,1.6819,1.5883,1.618,1.6086,1.5323,1.3959,1.3487,1.4075,1.4095,1.4235,1.4479,1.4479,1.4669,1.5008,1.5015,1.5015,1.5008,1.5015,1.5015,1.4874,1.2387,1.1247,1.09,0.845,0.7282,0.7098,0.7098,0.7845,0.9026,1.0188,1.1343,1.2462,2.6499,2.6499,2.6499,2.6499,2.6499,2.6499,2.6499,2.6499,2.6499,2.6499,2.6499,2.6424,2.6248,2.5837,2.5322,2.4632,2.4217,2.3493,2.2328,2.2104,2.1762,2.1132,2.0485,1.9718,1.8697,1.8196,1.739,1.6329,1.6448,1.605,1.5225,1.5352,1.541,1.541,1.541,1.541,1.5439,1.6179,1.6492,1.6567,1.755,1.7934,1.8004,1.8741,1.9044,1.9097,1.9618,1.9798,1.9798,1.9798,1.932,1.8684,1.8321,1.6956,1.5529,1.5722,1.5515,1.5293,1.5625,1.6103,1.6396,1.585,1.6006,1.6307,1.6307,1.6404,1.6621,1.6924,1.709,1.7275,1.7578,1.7594,1.7594,1.7594,1.7594,1.7676,1.7803,1.7822,1.7871,1.7998,1.8237,1.8308,1.8043,1.8657,1.8658,1.7623,1.6514,1.549,1.4511,1.423,1.4208,1.4389,1.4596,1.4843,1.513,1.493,1.4921,1.5015,1.517,1.5164,1.5015,1.517,1.5202,1.4912,1.3302,1.2115,1.1136,0.9535,0.8317,0.7554,0.8452,0.8993,0.9585,1.1666,1.2541,1.2846,2.6499,2.6499,2.6499,2.6499,2.6499,2.6499,2.6499,2.6499,2.6499,2.6499,2.6499,2.6336,2.5896,2.5498,2.4983,2.4199,2.3529,2.2811,2.1963,2.1585,2.1017,2.0107,1.9507,1.8955,1.842,1.7767,1.7088,1.633,1.6156,1.5835,1.541,1.541,1.541,1.541,1.541,1.541,1.5439,1.5864,1.6065,1.6122,1.6866,1.7174,1.7257,1.7977,1.8259,1.8328,1.8768,1.8927,1.8927,1.8927,1.9075,1.9195,1.8955,1.8136,1.7295,1.7549,1.7055,1.6477,1.6779,1.6923,1.6924,1.6682,1.666,1.6697,1.6697,1.6833,1.7061,1.7334,1.7646,1.7959,1.8178,1.8398,1.8516,1.8516,1.8516,1.8516,1.8516,1.8516,1.8516,1.8516,1.874,1.8896,1.8896,1.9512,1.9516,1.8626,1.7162,1.5922,1.4944,1.4631,1.4576,1.4689,1.4983,1.5217,1.5398,1.5337,1.5304,1.5311,1.5484,1.5478,1.5311,1.5484,1.5471,1.5258,1.4028,1.2707,1.1363,1.0146,0.9129,0.8423,0.9199,1.0117,1.1135,1.266,1.3381,1.3799,2.6499,2.6499,2.6499,2.6499,2.6499,2.6499,2.6499,2.6499,2.6499,2.6499,2.6449,2.6034,2.4963,2.4775,2.4324,2.3346,2.2499,2.1989,2.1914,2.1033,2.014,1.9262,1.8781,1.8541,1.8541,1.7613,1.6767,1.6095,1.5625,1.543,1.5469,1.5469,1.5488,1.5537,1.5537,1.5537,1.5537,1.5537,1.5508,1.5527,1.6224,1.648,1.6492,1.7273,1.7529,1.7495,1.7578,1.7628,1.7673,1.78,1.8684,1.9857,2.0337,2.0452,2.0279,1.9608,1.8827,1.8171,1.8171,1.788,1.7563,1.7563,1.7233,1.6863,1.6824,1.7187,1.75,1.75,1.8135,1.8656,1.8656,1.9023,1.9287,1.9287,1.9287,1.9287,1.9287,1.9287,1.9287,1.9287,1.9316,1.9346,1.9346,1.9644,1.9601,1.8944,1.7863,1.6856,1.6004,1.5071,1.4723,1.5035,1.5284,1.5438,1.5438,1.5698,1.5784,1.5784,1.5784,1.5784,1.5784,1.5784,1.573,1.5581,1.4513,1.3166,1.1642,1.0596,1.0013,0.9706,0.9846,1.1282,1.3282,1.3374,1.4101,1.5048,2.6499,2.6499,2.6499,2.6499,2.6499,2.6499,2.6499,2.6499,2.6499,2.6499,2.6097,2.5686,2.546,2.4682,2.4255,2.4412,2.3559,2.2716,2.2025,2.076,1.9664,1.88,1.8349,1.8131,1.8131,1.6953,1.6276,1.6095,1.5625,1.5586,1.5948,1.5948,1.6113,1.6414,1.6414,1.6414,1.6414,1.6414,1.624,1.5987,1.6453,1.6237,1.5759,1.6861,1.7055,1.681,1.7385,1.7824,1.83,1.9286,2.029,2.1123,2.1219,2.0864,2.0366,2.0221,1.9842,1.9479,1.9479,1.918,1.8899,1.8899,1.8536,1.81,1.7803,1.8022,1.8325,1.8325,1.8779,1.915,1.915,1.9219,1.9287,1.9287,1.9287,1.9287,1.9287,1.9287,1.9287,1.9287,1.958,1.9775,1.9775,1.9633,1.9156,1.8302,1.7299,1.6175,1.49,1.5084,1.5237,1.5297,1.5585,1.5684,1.5684,1.5751,1.5784,1.5784,1.5784,1.5784,1.5784,1.5784,1.5242,1.4364,1.5045,1.4046,1.1923,1.2689,1.2368,1.1462,1.256,1.3275,1.3856,1.4867,1.5259,1.5304,2.6499,2.6499,2.6499,2.6499,2.6499,2.6499,2.6499,2.6499,2.6399,2.6122,2.5787,2.5398,2.4883,2.433,2.4117,2.4406,2.312,2.2195,2.2024,2.0502,1.9299,1.8643,1.8393,1.8213,1.8018,1.7148,1.6623,1.6387,1.6152,1.6055,1.6095,1.631,1.6514,1.6697,1.6697,1.6697,1.6697,1.6697,1.657,1.6406,1.6609,1.6424,1.6075,1.6507,1.6535,1.6331,1.6488,1.6851,1.7442,1.8707,1.9597,2.0286,2.1371,2.1426,2.1176,2.1574,2.1474,2.1224,2.1224,2.098,2.0594,2.013,1.9837,1.9419,1.8503,1.8607,1.8945,1.8945,1.9287,1.959,1.959,1.9756,1.993,1.993,1.993,1.993,1.993,1.993,1.993,1.993,2.0088,2.0062,1.9709,1.9502,1.8821,1.7437,1.6883,1.6117,1.4981,1.5231,1.5464,1.5598,1.5752,1.5784,1.5784,1.5784,1.5784,1.5784,1.5784,1.5784,1.5784,1.5146,1.4507,1.3926,1.3932,1.2818,1.1121,1.2425,1.2528,1.2042,1.3392,1.4262,1.4902,1.5534,1.5732,1.5605,2.6499,2.6499,2.6499,2.6499,2.6499,2.6499,2.6499,2.6499,2.6323,2.5799,2.5649,2.5222,2.4243,2.4054,2.4042,2.413,2.2542,2.1846,2.2467,2.0719,1.9427,1.8997,1.8804,1.8498,1.8018,1.7666,1.7275,1.6814,1.6736,1.6582,1.633,1.667,1.6853,1.6921,1.6921,1.6921,1.6921,1.6921,1.6872,1.6824,1.6892,1.6824,1.6668,1.6437,1.6271,1.6153,1.5684,1.592,1.6607,1.7833,1.8533,1.9264,2.11,2.1784,2.2032,2.2702,2.2929,2.2931,2.2931,2.2669,2.2229,2.1446,2.109,2.0598,1.9353,1.9239,1.9394,1.9394,1.9727,2.0049,2.0127,2.0371,2.0635,2.0703,2.0654,2.0605,2.0605,2.0605,2.0605,2.0605,2.0605,2.0398,1.9893,1.9436,1.8575,1.7131,1.6684,1.6152,1.543,1.5444,1.5578,1.5771,1.5784,1.5784,1.5784,1.5784,1.5784,1.5784,1.5784,1.5683,1.5439,1.4364,1.368,1.3199,1.2285,1.1317,1.0435,1.1702,1.2382,1.2673,1.3782,1.4848,1.5784,1.5784,1.5784,1.5784,2.6499,2.6499,2.6499,2.6499,2.6499,2.6499,2.6499,2.6499,2.6461,2.6386,2.59,2.5372,2.477,2.4293,2.4192,2.4637,2.3658,2.3461,2.4508,2.2297,2.0796,2.0508,1.9653,1.8815,1.8008,1.7959,1.7715,1.7295,1.6882,1.6894,1.7239,1.7266,1.749,1.7832,1.7832,1.7832,1.7832,1.7832,1.7627,1.7334,1.7695,1.736,1.6736,1.709,1.6973,1.6551,1.6133,1.6759,1.7874,1.8826,1.9663,2.0373,2.0664,2.1302,2.1908,2.2032,2.2897,2.3823,2.3823,2.3587,2.3301,2.3156,2.2232,2.1251,2.1079,2.0397,1.9824,1.9824,2.0176,2.0596,2.0947,2.0781,2.0693,2.1074,2.082,2.0605,2.0605,2.0605,2.0605,2.0605,2.0605,2.0849,2.1504,1.9636,1.8446,1.8728,1.6965,1.5752,1.5411,1.5631,1.5744,1.5784,1.5784,1.5784,1.5784,1.5784,1.5784,1.5784,1.5784,1.5242,1.4166,1.3974,1.2668,1.0583,1.1507,1.1804,1.175,1.3102,1.4268,1.5296,1.5486,1.5635,1.5784,1.5784,1.5784,1.5784,2.6499,2.6499,2.6499,2.6499,2.6499,2.6386,2.6059,2.6285,2.6273,2.5624,2.5573,2.5398,2.485,2.4575,2.4669,2.5209,2.3623,2.3029,2.4087,2.1869,2.0309,1.9991,1.9535,1.8894,1.8018,1.8008,1.792,1.7734,1.7539,1.7422,1.7393,1.7627,1.7832,1.8008,1.8008,1.8008,1.8008,1.8008,1.79,1.7744,1.7939,1.7783,1.7408,1.7402,1.7266,1.7031,1.6592,1.6961,1.7708,1.8102,1.8649,1.9243,1.9726,2.0282,2.0994,2.2051,2.3171,2.423,2.4753,2.5021,2.5059,2.4487,2.3437,2.2436,2.1845,2.1169,2.0615,2.0615,2.0605,2.0703,2.1112,2.0869,2.0752,2.1122,2.0859,2.0693,2.0908,2.0937,2.1025,2.1279,2.1339,2.1034,2.0238,1.9201,1.8205,1.7338,1.635,1.5772,1.5645,1.5758,1.5784,1.5784,1.5784,1.5784,1.5784,1.5784,1.5784,1.5784,1.5784,1.5146,1.3878,1.3102,1.1745,0.9998,0.9801,1.0141,1.0925,1.2237,1.3542,1.48,1.5534,1.5784,1.5784,1.5784,1.5784,1.5784]}]]